[[{"header":{"parameterUnit":"m.s-1","parameterCategory":1,"la1":31.0,"la2":29.5877,"lo1":-88.7671,"lo2":-86.6584,"dy":0.0162,"dx":0.0185,"nx":115,"ny":88,"refTime":"2023-05-23T06:00:00:Z","depth":0,"parameterNumber":2,"parameterNumberName":"U-component_of_WINDS"},"data":[0.0,0.0,0.0,0.0,0.0,0.0,0.0,0.0,0.0,0.0,0.0,0.0,0.0,0.0,0.0,0.0,0.0,0.0,0.0,0.0,0.0,0.0,0.0,0.0,0.0,0.0,0.0,0.0,0.0,0.0,0.0,0.0,0.0,0.0,0.0,0.0,0.0,0.0,0.0,0.0,0.0,0.0,0.0,0.0,0.0,0.0,0.0,0.0,0.0,0.0,0.0,0.0,0.0,0.0,0.0,0.0,0.0,0.0,0.0,0.0,0.0,0.0,0.0,0.0,0.0,0.0,0.0,0.0,0.0,0.0,0.0,0.0,0.0,0.0,0.0,0.0,0.0,0.0,0.0,0.0,0.0,0.0,0.0,0.0,0.0,0.0,0.0,0.0,0.0,0.0,0.0,0.0,0.0,0.0,0.0,0.0,0.0,0.0,0.0,0.0,0.0,0.0,0.0,0.0,0.0,0.0,0.0,0.0,0.0,0.0,0.0,0.0,0.0,0.0,0.0,0.0,0.0,0.0,0.0,0.0,0.0,0.0,0.0,0.0,0.0,0.0,0.0,0.0,0.0,0.0,0.0,0.0,0.0,0.0,0.0,0.0,0.0,0.0,0.0,0.0,0.0,0.0,0.0,0.0,0.0,0.0,0.0,0.0,0.0,0.0,0.0,0.0,0.0,0.0,0.0,0.0,0.0,0.0,0.0,0.0,0.0,0.0,0.0,0.0,0.0,0.0,0.0,0.0,0.0,0.0,0.0,0.0,0.0,0.0,0.0,0.0,0.0,0.0,0.0,0.0,0.0,0.0,0.0,0.0,0.0,0.0,0.0,0.0,0.0,0.0,0.0,0.0,0.0,0.0,0.0,0.0,0.0,0.0,0.0,0.0,0.0,0.0,0.0,0.0,0.0,0.0,0.0,0.0,0.0,0.0,0.0,0.0,0.0,0.0,0.0,0.0,0.0,0.0,0.0,0.0,0.0,0.0,0.0,0.0,0.0,0.0,0.0,0.0,0.0,0.0,0.0,0.0,0.0,0.0,0.0,0.0,0.0,0.0,0.0,0.0,0.0,0.0,0.0,0.0,0.0,0.0,0.0,0.0,0.0,0.0,0.0,0.0,0.0,0.0,0.0,0.0,0.0,0.0,0.0,0.0,0.0,0.0,0.0,0.0,0.0,0.0,0.0,0.0,0.0,0.0,0.0,0.0,0.0,0.0,0.0,0.0,0.0,0.0,0.0,0.0,0.0,0.0,0.0,0.0,0.0,0.0,0.0,0.0,0.0,0.0,0.0,0.0,0.0,0.0,0.0,0.0,0.0,0.0,0.0,0.0,0.0,0.0,0.0,0.0,0.0,0.0,0.0,0.0,0.0,0.0,0.0,0.0,0.0,0.0,0.0,0.0,0.0,0.0,0.0,0.0,0.0,0.0,0.0,0.0,0.0,0.0,0.0,0.0,0.0,0.0,0.0,0.0,0.0,0.0,0.0,0.0,0.0,0.0,0.0,0.0,0.0,0.0,0.0,0.0,0.0,0.0,0.0,0.0,0.0,0.0,0.0,0.0,0.0,0.0,0.0,0.0,0.0,0.0,0.0,0.0,0.0,0.0,0.0,0.0,0.0,0.0,0.0,0.0,0.0,0.0,0.0,0.0,0.0,0.0,0.0,0.0,0.0,0.0,0.0,0.0,0.0,0.0,0.0,0.0,0.0,0.0,0.0,0.0,0.0,0.0,0.0,0.0,0.0,0.0,0.0,0.0,0.0,0.0,0.0,0.0,0.0,0.0,0.0,0.0,0.0,0.0,0.0,0.0,0.0,0.0,0.0,0.0,0.0,0.0,0.0,0.0,0.0,0.0,0.0,0.0,0.0,0.0,0.0,0.0,0.0,0.0,0.0,0.0,0.0,0.0,0.0,0.0,0.0,0.0,0.0,0.0,0.0,0.0,0.0,0.0,0.0,0.0,0.0,0.0,0.0,0.0,0.0,0.0,0.0,0.0,0.0,0.0,0.0,0.0,0.0,0.0,0.0,0.0,0.0,0.0,0.0,0.0,0.0,0.0,0.0,0.0,0.0,0.0,0.0,0.0,0.0,0.0,0.0,0.0,0.0,0.0,0.0,0.0,0.0,0.0,0.0,0.0,0.0,0.0,0.0,0.0,0.0,0.0,0.0,0.0,0.0,0.0,0.0,0.0,0.0,0.0,0.0,0.0,0.0,0.0,0.0,0.0,0.0,0.0,0.0,0.0,0.0,0.0,0.0,0.0,0.0,0.0,0.0,0.0,0.0,0.0,0.0,0.0,0.0,0.0,0.0,0.0,0.0,0.0,0.0,0.0,0.0,0.0,0.0,0.0,0.0,0.0,0.0,0.0,0.0,0.0,0.0,0.0,0.0,0.0,0.0,0.0,0.0,0.0,0.0,0.0,0.0,0.0,0.0,0.0,0.0,0.0,0.0,0.0,0.0,0.0,0.0,0.0,0.0,0.0,0.0,0.0,0.0,0.0,0.0,0.0,0.0,0.0,0.0,0.0,0.0,0.0,0.0,0.0,0.0,0.0,0.0,0.0,0.0,0.0,0.0,0.0,0.0,0.0,0.0,0.0,0.0,0.0,0.0,0.0,0.0,0.0,0.0,0.0,0.0,0.0,0.0,0.0,0.0,0.0,0.0,0.0,0.0,0.0,0.0,0.0,0.0,0.0,0.0,0.0,0.0,0.0,0.0,0.0,0.0,0.0,0.0,0.0,0.0,0.0,0.0,0.0,0.0,0.0,0.0,0.0,0.0,0.0,0.0,0.0,0.0,0.0,0.0,0.0,0.0,0.0,0.0,0.0,0.0,0.0,0.0,0.0,0.0,0.0,0.0,0.0,0.0,0.0,0.0,0.0,0.0,0.0,0.0,0.0,0.0,0.0,0.0,0.0,0.0,0.0,0.0,0.0,0.0,0.0,0.0,0.0,0.0,0.0,0.0,0.0,0.0,0.0,0.0,0.0,0.0,0.0,0.0,0.0,0.0,0.0,0.0,0.0,0.0,0.0,0.0,0.0,0.0,0.0,0.0,0.0,0.0,0.0,0.0,0.0,0.0,0.0,0.0,0.0,0.0,0.0,0.0,0.0,0.0,0.0,0.0,0.0,0.0,0.0,0.0,0.0,0.0,0.0,0.0,0.0,0.0,0.0,0.0,0.0,0.0,0.0,0.0,0.0,0.0,0.0,0.0,0.0,0.0,0.0,0.0,0.0,0.0,0.0,0.0,0.0,0.0,0.0,0.0,0.0,0.0,0.0,0.0,0.0,0.0,0.0,0.0,0.0,0.0,0.0,0.0,0.0,0.0,0.0,0.0,0.0,0.0,0.0,0.0,0.0,0.0,0.0,0.0,0.0,0.0,0.0,0.0,0.0,0.0,0.0,0.0,0.0,0.0,0.0,0.0,0.0,0.0,0.0,0.0,0.0,0.0,0.0,0.0,0.0,0.0,0.0,0.0,0.0,0.0,0.0,0.0,0.0,0.0,0.0,0.0,0.0,0.0,0.0,0.0,0.0,0.0,0.0,0.0,0.0,0.0,0.0,0.0,0.0,0.0,0.0,0.0,0.0,0.0,0.0,0.0,0.0,0.0,0.0,0.0,0.0,0.0,0.0,0.0,0.0,0.0,0.0,0.0,0.0,0.0,0.0,0.0,0.0,0.0,0.0,0.0,0.0,0.0,0.0,0.0,0.0,0.0,0.0,0.0,0.0,0.0,0.0,0.0,0.0,0.0,0.0,0.0,0.0,0.0,0.0,0.0,0.0,0.0,0.0,0.0,0.0,0.0,0.0,0.0,0.0,0.0,0.0,0.0,0.0,0.0,0.0,0.0,0.0,0.0,0.0,0.0,0.0,0.0,0.0,0.0,0.0,0.0,0.0,0.0,0.0,0.0,0.0,0.0,0.0,0.0,0.0,0.0,0.0,0.0,0.0,0.0,0.0,0.0,0.0,0.0,0.0,0.0,0.0,0.0,0.0,0.0,0.0,0.0,0.0,0.0,0.0,0.0,0.0,0.0,0.0,0.0,0.0,0.0,0.0,0.0,0.0,0.0,0.0,0.0,0.0,0.0,0.0,0.0,0.0,0.0,0.0,0.0,0.0,0.0,0.0,0.0,0.0,0.0,0.0,0.0,0.0,0.0,0.0,0.0,0.0,0.0,0.0,0.0,0.0,0.0,0.0,0.0,0.0,0.0,0.0,0.0,0.0,0.0,0.0,0.0,0.0,0.0,0.0,0.0,0.0,0.0,0.0,0.0,0.0,1.958,0.0,0.0,0.0,0.0,0.0,0.0,0.0,0.0,0.0,0.0,0.0,0.0,0.0,0.0,0.0,0.0,0.0,0.0,0.0,0.0,0.0,0.0,0.0,0.0,0.0,0.0,0.0,0.0,0.0,0.0,0.0,0.0,0.0,0.0,0.0,0.0,0.0,0.0,0.0,0.0,0.0,0.0,0.0,0.0,0.0,0.0,0.0,0.0,0.0,0.0,0.0,0.0,0.0,0.0,0.0,0.0,0.0,0.0,0.0,0.0,0.0,0.0,0.0,0.0,0.0,0.0,0.0,0.0,0.0,0.0,0.0,0.0,0.0,0.0,0.0,0.0,0.0,0.0,0.0,0.0,0.0,0.0,0.0,0.0,0.0,0.0,0.0,0.0,0.0,0.0,0.0,0.0,0.0,0.0,0.0,0.0,0.0,0.0,0.0,0.0,0.0,0.0,0.0,0.0,0.0,0.0,0.0,0.0,0.0,0.0,2.1203,2.1119,2.1097,2.1022,2.094,0.0,0.0,0.0,0.0,0.0,0.0,0.0,0.0,0.0,0.0,0.0,0.0,0.0,0.0,0.0,0.0,0.0,0.0,0.0,0.0,0.0,0.0,0.0,0.0,0.0,0.0,0.0,0.0,0.0,0.0,0.0,0.0,0.0,0.0,0.0,0.0,0.0,0.0,0.0,0.0,0.0,0.0,0.0,0.0,0.0,0.0,0.0,0.0,0.0,0.0,0.0,0.0,0.0,0.0,0.0,0.0,0.0,0.0,0.0,0.0,0.0,0.0,0.0,0.0,0.0,0.0,0.0,0.0,0.0,0.0,0.0,0.0,0.0,0.0,0.0,0.0,0.0,0.0,0.0,0.0,0.0,0.0,0.0,0.0,0.0,0.0,0.0,0.0,0.0,0.0,0.0,0.0,0.0,0.0,0.0,0.0,0.0,0.0,0.0,0.0,0.0,0.0,0.0,0.0,0.0,0.0,0.0,0.0,0.0,0.0,0.0,0.0,2.2144,2.2122,2.2046,0.0,0.0,0.0,0.0,0.0,0.0,0.0,0.0,0.0,0.0,0.0,0.0,0.0,0.0,0.0,0.0,0.0,0.0,0.0,0.0,0.0,0.0,0.0,0.0,0.0,0.0,0.0,0.0,0.0,0.0,0.0,0.0,0.0,0.0,0.0,0.0,0.0,0.0,0.0,0.0,0.0,0.0,0.0,0.0,0.0,0.0,0.0,0.0,0.0,0.0,0.0,0.0,0.0,0.0,0.0,0.0,0.0,0.0,0.0,0.0,0.0,0.0,0.0,0.0,0.0,0.0,0.0,0.0,0.0,0.0,0.0,0.0,0.0,0.0,0.0,0.0,0.0,0.0,0.0,0.0,0.0,0.0,0.0,0.0,0.0,0.0,0.0,0.0,0.0,0.0,0.0,0.0,0.0,0.0,0.0,0.0,0.0,0.0,0.0,0.0,0.0,0.0,0.0,0.0,0.0,0.0,0.0,0.0,0.0,0.0,2.2151,2.203,2.2046,0.0,2.191,0.0,0.0,0.0,0.0,0.0,0.0,0.0,0.0,0.0,0.0,0.0,0.0,0.0,0.0,0.0,0.0,0.0,0.0,0.0,0.0,0.0,0.0,0.0,0.0,0.0,0.0,0.0,0.0,0.0,0.0,0.0,0.0,0.0,0.0,0.0,0.0,0.0,0.0,0.0,0.0,0.0,0.0,0.0,0.0,0.0,0.0,0.0,0.0,0.0,0.0,0.0,0.0,0.0,0.0,0.0,0.0,0.0,0.0,0.0,0.0,0.0,0.0,0.0,0.0,0.0,0.0,0.0,0.0,0.0,0.0,0.0,0.0,0.0,0.0,0.0,0.0,0.0,0.0,0.0,0.0,0.0,0.0,0.0,0.0,0.0,0.0,0.0,0.0,0.0,0.0,0.0,0.0,0.0,0.0,0.0,0.0,0.0,0.0,0.0,0.0,0.0,0.0,0.0,0.0,0.0,0.0,0.0,0.0,0.0,0.0,2.4223,2.4144,2.407,2.3852,0.0,0.0,0.0,0.0,0.0,0.0,0.0,0.0,0.0,0.0,0.0,0.0,0.0,0.0,0.0,0.0,0.0,0.0,0.0,0.0,0.0,0.0,0.0,0.0,0.0,0.0,0.0,0.0,0.0,0.0,0.0,0.0,0.0,0.0,0.0,0.0,0.0,0.0,0.0,0.0,0.0,0.0,0.0,0.0,0.0,0.0,0.0,0.0,0.0,0.0,0.0,0.0,0.0,0.0,0.0,0.0,0.0,0.0,0.0,0.0,0.0,0.0,0.0,0.0,0.0,0.0,0.0,0.0,0.0,0.0,0.0,0.0,0.0,0.0,0.0,0.0,0.0,0.0,0.0,0.0,0.0,0.0,0.0,0.0,0.0,0.0,0.0,0.0,0.0,0.0,0.0,0.0,0.0,0.0,0.0,0.0,0.0,0.0,0.0,0.0,0.0,0.0,0.0,0.0,0.0,0.0,0.0,0.0,0.0,0.0,2.4687,2.5248,2.5238,2.5387,2.5107,2.4289,0.0,0.0,0.0,0.0,0.0,0.0,0.0,0.0,0.0,0.0,0.0,0.0,0.0,0.0,0.0,0.0,0.0,0.0,0.0,0.0,0.0,0.0,0.0,0.0,0.0,0.0,0.0,0.0,0.0,0.0,0.0,0.0,0.0,0.0,0.0,0.0,0.0,0.0,0.0,0.0,0.0,0.0,0.0,0.0,0.0,0.0,0.0,0.0,0.0,0.0,0.0,0.0,0.0,0.0,0.0,0.0,0.0,0.0,0.0,0.0,0.0,0.0,0.0,0.0,0.0,0.0,0.0,0.0,0.0,0.0,0.0,0.0,0.0,0.0,0.0,0.0,0.0,0.0,0.0,0.0,0.0,0.0,0.0,0.0,0.0,0.0,0.0,0.0,0.0,0.0,0.0,0.0,0.0,0.0,0.0,0.0,0.0,0.0,0.0,0.0,0.0,0.0,0.0,0.0,0.0,0.0,0.0,0.0,2.4164,2.427,2.4286,2.4353,2.5019,2.5012,0.0,0.0,0.0,0.0,0.0,0.0,0.0,0.0,0.0,0.0,0.0,0.0,0.0,0.0,0.0,0.0,0.0,0.0,0.0,0.0,0.0,0.0,0.0,0.0,0.0,0.0,0.0,0.0,0.0,0.0,0.0,0.0,0.0,0.0,0.0,0.0,0.0,0.0,0.0,0.0,0.0,0.0,0.0,0.0,0.0,0.0,0.0,0.0,0.0,0.0,0.0,0.0,0.0,0.0,0.0,0.0,0.0,0.0,0.0,0.0,0.0,0.0,0.0,0.0,0.0,0.0,0.0,0.0,0.0,0.0,0.0,0.0,0.0,0.0,0.0,0.0,0.0,0.0,0.0,0.0,0.0,0.0,0.0,0.0,0.0,0.0,0.0,0.0,0.0,0.0,0.0,0.0,0.0,0.0,0.0,0.0,0.0,0.0,0.0,0.0,0.0,0.0,0.0,0.0,0.0,0.0,0.0,0.0,0.0,2.4221,2.4694,2.5203,2.5692,2.5519,2.5044,0.0,0.0,0.0,0.0,0.0,0.0,0.0,0.0,0.0,0.0,0.0,0.0,0.0,0.0,0.0,0.0,0.0,0.0,0.0,0.0,0.0,0.0,0.0,0.0,0.0,0.0,0.0,0.0,0.0,0.0,0.0,0.0,0.0,0.0,0.0,0.0,0.0,0.0,0.0,0.0,0.0,0.0,0.0,0.0,0.0,0.0,0.0,0.0,0.0,0.0,0.0,0.0,0.0,0.0,0.0,0.0,0.0,0.0,0.0,0.0,0.0,0.0,0.0,0.0,0.0,0.0,0.0,0.0,0.0,0.0,0.0,0.0,0.0,0.0,0.0,0.0,0.0,0.0,0.0,0.0,0.0,0.0,0.0,0.0,0.0,0.0,0.0,0.0,0.0,0.0,0.0,0.0,0.0,0.0,0.0,0.0,0.0,0.0,0.0,0.0,0.0,0.0,0.0,0.0,0.0,0.0,0.0,0.0,0.0,2.4603,0.0,2.6069,2.6568,2.6064,2.5398,0.0,0.0,0.0,0.0,0.0,0.0,0.0,0.0,0.0,0.0,0.0,0.0,0.0,0.0,0.0,0.0,0.0,0.0,0.0,0.0,0.0,0.0,0.0,0.0,0.0,0.0,0.0,0.0,0.0,0.0,0.0,0.0,0.0,0.0,0.0,0.0,0.0,0.0,0.0,0.0,0.0,0.0,0.0,0.0,0.0,0.0,0.0,0.0,0.0,0.0,0.0,0.0,0.0,0.0,0.0,0.0,0.0,0.0,0.0,0.0,0.0,0.0,0.0,0.0,0.0,0.0,0.0,0.0,0.0,0.0,0.0,0.0,0.0,0.0,0.0,0.0,0.0,0.0,0.0,0.0,0.0,0.0,0.0,0.0,0.0,0.0,0.0,0.0,0.0,0.0,0.0,0.0,0.0,0.0,0.0,0.0,0.0,0.0,0.0,0.0,0.0,0.0,0.0,0.0,0.0,0.0,0.0,0.0,2.4726,2.5453,2.6203,2.6636,2.6641,2.6633,2.6177,0.0,0.0,0.0,0.0,0.0,0.0,0.0,0.0,0.0,0.0,0.0,0.0,0.0,0.0,0.0,0.0,0.0,0.0,0.0,0.0,0.0,0.0,0.0,0.0,0.0,0.0,0.0,0.0,0.0,0.0,0.0,0.0,0.0,0.0,0.0,0.0,0.0,0.0,0.0,0.0,0.0,0.0,0.0,0.0,0.0,0.0,0.0,0.0,0.0,0.0,0.0,0.0,0.0,0.0,0.0,0.0,0.0,0.0,0.0,0.0,0.0,0.0,0.0,0.0,0.0,0.0,0.0,0.0,0.0,0.0,0.0,0.0,0.0,0.0,0.0,0.0,0.0,0.0,0.0,0.0,0.0,0.0,0.0,0.0,0.0,0.0,0.0,0.0,0.0,0.0,0.0,0.0,0.0,0.0,0.0,0.0,0.0,0.0,0.0,0.0,0.0,0.0,0.0,0.0,0.0,0.0,0.0,0.0,0.0,2.7779,2.7523,2.7582,2.8091,2.7565,2.6655,0.0,0.0,0.0,0.0,0.0,0.0,0.0,0.0,0.0,0.0,0.0,0.0,0.0,0.0,0.0,0.0,0.0,0.0,0.0,0.0,0.0,0.0,0.0,0.0,0.0,0.0,0.0,0.0,0.0,0.0,0.0,0.0,0.0,0.0,0.0,0.0,0.0,0.0,0.0,0.0,0.0,0.0,0.0,0.0,0.0,0.0,0.0,0.0,0.0,0.0,0.0,0.0,0.0,0.0,0.0,0.0,0.0,0.0,0.0,0.0,0.0,0.0,0.0,0.0,0.0,0.0,0.0,0.0,0.0,0.0,0.0,0.0,0.0,0.0,0.0,0.0,0.0,0.0,0.0,0.0,0.0,0.0,0.0,0.0,0.0,0.0,0.0,0.0,0.0,0.0,0.0,0.0,0.0,0.0,0.0,0.0,0.0,0.0,0.0,0.0,0.0,0.0,0.0,0.0,0.0,0.0,0.0,0.0,0.0,3.1356,2.9849,2.9372,3.0143,2.9074,2.7717,2.6109,0.0,0.0,0.0,0.0,0.0,0.0,0.0,0.0,0.0,0.0,0.0,0.0,0.0,0.0,0.0,0.0,0.0,0.0,0.0,0.0,0.0,0.0,0.0,0.0,0.0,0.0,0.0,0.0,0.0,0.0,0.0,0.0,0.0,0.0,0.0,0.0,0.0,0.0,0.0,0.0,0.0,0.0,0.0,0.0,0.0,0.0,0.0,0.0,0.0,0.0,0.0,0.0,0.0,0.0,0.0,0.0,0.0,0.0,0.0,0.0,0.0,0.0,0.0,0.0,0.0,0.0,0.0,0.0,0.0,0.0,0.0,0.0,0.0,0.0,0.0,0.0,0.0,0.0,0.0,0.0,0.0,0.0,0.0,0.0,0.0,0.0,0.0,0.0,0.0,0.0,0.0,0.0,0.0,0.0,0.0,0.0,0.0,0.0,0.0,0.0,0.0,0.0,0.0,0.0,0.0,0.0,0.0,0.0,3.5917,3.3211,3.2114,3.2601,3.1177,2.9486,0.0,0.0,0.0,0.0,0.0,0.0,0.0,0.0,0.0,0.0,0.0,0.0,0.0,0.0,0.0,0.0,0.0,0.0,0.0,0.0,0.0,0.0,0.0,0.0,0.0,0.0,0.0,0.0,0.0,0.0,0.0,0.0,0.0,0.0,0.0,0.0,0.0,0.0,0.0,0.0,0.0,0.0,0.0,0.0,0.0,0.0,0.0,0.0,0.0,0.0,0.0,0.0,0.0,0.0,0.0,0.0,0.0,0.0,0.0,0.0,0.0,0.0,0.0,0.0,0.0,0.0,0.0,0.0,0.0,0.0,0.0,0.0,0.0,0.0,0.0,0.0,0.0,0.0,0.0,0.0,0.0,0.0,0.0,0.0,0.0,0.0,0.0,0.0,0.0,0.0,0.0,0.0,0.0,0.0,0.0,0.0,0.0,0.0,0.0,0.0,0.0,0.0,0.0,0.0,0.0,0.0,0.0,0.0,0.0,3.6661,3.8175,3.793,3.5882,3.4819,3.2668,0.0,0.0,0.0,0.0,0.0,0.0,0.0,0.0,0.0,0.0,0.0,0.0,0.0,0.0,0.0,0.0,0.0,0.0,0.0,0.0,0.0,0.0,0.0,0.0,0.0,0.0,0.0,0.0,0.0,0.0,0.0,0.0,0.0,0.0,0.0,0.0,0.0,0.0,0.0,0.0,0.0,0.0,0.0,0.0,0.0,0.0,0.0,0.0,0.0,0.0,0.0,0.0,0.0,0.0,0.0,0.0,0.0,0.0,0.0,0.0,0.0,0.0,0.0,0.0,0.0,0.0,0.0,0.0,0.0,0.0,0.0,0.0,0.0,0.0,0.0,0.0,0.0,0.0,0.0,0.0,0.0,0.0,0.0,0.0,0.0,0.0,0.0,0.0,0.0,0.0,0.0,0.0,0.0,0.0,0.0,0.0,0.0,0.0,0.0,0.0,0.0,0.0,0.0,0.0,0.0,0.0,0.0,0.0,3.7124,3.8979,4.2076,4.2701,4.0541,3.778,3.4592,0.0,0.0,0.0,0.0,0.0,0.0,0.0,0.0,0.0,0.0,0.0,0.0,0.0,0.0,0.0,0.0,0.0,0.0,0.0,0.0,0.0,0.0,0.0,0.0,0.0,0.0,0.0,0.0,0.0,0.0,0.0,0.0,0.0,0.0,0.0,0.0,0.0,0.0,0.0,0.0,0.0,0.0,0.0,0.0,0.0,0.0,0.0,0.0,0.0,0.0,0.0,0.0,0.0,0.0,0.0,0.0,0.0,0.0,0.0,0.0,0.0,0.0,0.0,0.0,0.0,0.0,0.0,0.0,0.0,0.0,0.0,0.0,0.0,0.0,0.0,0.0,0.0,0.0,0.0,0.0,0.0,0.0,0.0,0.0,0.0,0.0,0.0,0.0,0.0,0.0,0.0,0.0,0.0,0.0,0.0,0.0,0.0,0.0,0.0,0.0,0.0,0.0,0.0,0.0,0.0,0.0,0.0,0.0,3.9534,4.1786,4.4973,4.625,4.5304,4.0279,3.5976,0.0,0.0,0.0,0.0,0.0,0.0,0.0,0.0,0.0,0.0,0.0,0.0,0.0,0.0,0.0,0.0,0.0,0.0,0.0,0.0,0.0,0.0,0.0,0.0,0.0,0.0,0.0,0.0,0.0,0.0,0.0,0.0,0.0,0.0,0.0,0.0,0.0,0.0,0.0,0.0,0.0,0.0,0.0,0.0,0.0,0.0,0.0,0.0,0.0,0.0,0.0,0.0,0.0,0.0,0.0,0.0,0.0,0.0,0.0,0.0,0.0,0.0,0.0,0.0,0.0,0.0,0.0,0.0,0.0,0.0,0.0,0.0,0.0,0.0,0.0,0.0,0.0,0.0,0.0,0.0,0.0,0.0,0.0,0.0,0.0,0.0,0.0,0.0,0.0,0.0,0.0,0.0,0.0,0.0,0.0,0.0,0.0,0.0,0.0,0.0,0.0,0.0,0.0,0.0,0.0,0.0,0.0,0.0,4.0297,4.2629,4.578,4.7078,4.6245,4.2619,3.922,0.0,0.0,0.0,0.0,0.0,0.0,0.0,0.0,0.0,0.0,0.0,0.0,0.0,0.0,0.0,0.0,0.0,0.0,0.0,0.0,0.0,0.0,0.0,0.0,0.0,0.0,0.0,0.0,0.0,0.0,0.0,0.0,0.0,0.0,0.0,0.0,0.0,0.0,0.0,0.0,0.0,0.0,0.0,0.0,0.0,0.0,0.0,0.0,2.7205,0.0,0.0,0.0,0.0,0.0,0.0,0.0,0.0,0.0,0.0,0.0,0.0,0.0,0.0,0.0,0.0,0.0,0.0,0.0,0.0,0.0,0.0,0.0,0.0,0.0,0.0,0.0,0.0,0.0,0.0,0.0,0.0,0.0,0.0,0.0,0.0,0.0,0.0,0.0,0.0,0.0,0.0,0.0,0.0,0.0,0.0,0.0,0.0,0.0,0.0,0.0,0.0,0.0,0.0,0.0,0.0,0.0,0.0,0.0,4.161,4.3974,4.6421,4.7508,4.7001,4.4326,4.118,0.0,0.0,0.0,0.0,0.0,0.0,0.0,0.0,0.0,0.0,0.0,0.0,0.0,0.0,0.0,0.0,0.0,0.0,0.0,0.0,0.0,0.0,0.0,0.0,0.0,0.0,0.0,0.0,0.0,0.0,0.0,0.0,0.0,0.0,0.0,0.0,0.0,0.0,0.0,0.0,0.0,0.0,0.0,0.0,0.0,0.0,0.0,0.0,0.0,0.0,0.0,0.0,0.0,0.0,0.0,0.0,0.0,0.0,0.0,0.0,0.0,0.0,0.0,0.0,0.0,0.0,0.0,0.0,0.0,0.0,0.0,0.0,0.0,0.0,0.0,0.0,0.0,0.0,0.0,0.0,0.0,0.0,0.0,0.0,0.0,0.0,0.0,0.0,0.0,0.0,0.0,0.0,0.0,0.0,0.0,0.0,0.0,0.0,0.0,0.0,0.0,0.0,0.0,0.0,0.0,0.0,0.0,4.0306,4.309,4.5599,4.7114,4.7875,4.7828,4.5417,4.2344,3.8689,0.0,0.0,0.0,0.0,0.0,0.0,0.0,0.0,0.0,0.0,0.0,0.0,0.0,0.0,0.0,0.0,0.0,0.0,0.0,0.0,0.0,0.0,0.0,0.0,0.0,0.0,0.0,0.0,0.0,0.0,0.0,0.0,0.0,0.0,0.0,0.0,0.0,0.0,2.5636,2.6468,0.0,0.0,0.0,0.0,0.0,0.0,0.0,0.0,2.924,0.0,0.0,0.0,0.0,0.0,0.0,0.0,0.0,0.0,0.0,0.0,0.0,0.0,0.0,0.0,0.0,0.0,0.0,0.0,0.0,0.0,0.0,0.0,0.0,0.0,0.0,0.0,0.0,0.0,0.0,0.0,0.0,0.0,0.0,0.0,0.0,0.0,0.0,0.0,0.0,0.0,0.0,0.0,0.0,0.0,0.0,0.0,0.0,0.0,0.0,0.0,0.0,0.0,0.0,0.0,0.0,3.7969,4.1117,4.4191,4.7223,4.8232,4.8703,4.8625,4.5707,4.2846,4.0157,0.0,0.0,0.0,0.0,0.0,0.0,0.0,0.0,0.0,0.0,0.0,0.0,0.0,0.0,0.0,0.0,0.0,0.0,0.0,0.0,0.0,0.0,0.0,0.0,0.0,0.0,0.0,0.0,0.0,0.0,0.0,0.0,0.0,0.0,0.0,0.0,0.0,0.0,0.0,2.8115,2.8654,0.0,0.0,0.0,0.0,0.0,0.0,0.0,0.0,3.0201,0.0,0.0,0.0,0.0,0.0,0.0,0.0,0.0,0.0,0.0,0.0,0.0,0.0,0.0,0.0,0.0,0.0,0.0,0.0,0.0,0.0,0.0,0.0,0.0,0.0,0.0,0.0,0.0,0.0,0.0,0.0,0.0,0.0,0.0,0.0,0.0,0.0,0.0,0.0,0.0,0.0,0.0,0.0,0.0,0.0,0.0,0.0,0.0,0.0,0.0,0.0,0.0,0.0,0.0,0.0,3.9333,4.252,4.5309,4.7621,4.848,4.8516,4.7652,4.5345,4.2774,0.0,0.0,0.0,0.0,0.0,0.0,0.0,0.0,0.0,0.0,0.0,0.0,0.0,0.0,0.0,0.0,0.0,0.0,0.0,0.0,0.0,0.0,0.0,0.0,0.0,0.0,0.0,0.0,0.0,0.0,0.0,0.0,0.0,0.0,0.0,0.0,0.0,0.0,0.0,0.0,2.9729,3.0372,3.0772,0.0,0.0,0.0,0.0,0.0,0.0,3.1596,3.1135,0.0,0.0,0.0,0.0,0.0,0.0,0.0,0.0,0.0,0.0,0.0,0.0,0.0,0.0,0.0,0.0,0.0,0.0,0.0,0.0,0.0,0.0,0.0,0.0,0.0,0.0,0.0,0.0,0.0,0.0,0.0,0.0,0.0,0.0,0.0,0.0,0.0,0.0,0.0,0.0,0.0,0.0,0.0,0.0,0.0,0.0,0.0,0.0,0.0,0.0,0.0,0.0,0.0,0.0,0.0,4.07,4.3923,4.6318,4.7906,4.8739,4.8382,4.6789,4.4854,4.2419,0.0,0.0,0.0,0.0,0.0,0.0,0.0,0.0,0.0,0.0,0.0,0.0,0.0,0.0,0.0,0.0,0.0,0.0,0.0,0.0,0.0,0.0,0.0,0.0,0.0,0.0,0.0,0.0,0.0,0.0,0.0,0.0,0.0,0.0,0.0,0.0,0.0,0.0,0.0,0.0,0.0,3.1893,3.2637,3.271,0.0,0.0,0.0,0.0,3.3402,3.2927,0.0,0.0,0.0,0.0,0.0,0.0,0.0,0.0,0.0,0.0,0.0,0.0,0.0,0.0,0.0,0.0,0.0,0.0,0.0,0.0,0.0,0.0,0.0,0.0,0.0,0.0,0.0,0.0,0.0,0.0,0.0,0.0,0.0,0.0,0.0,0.0,0.0,0.0,0.0,0.0,0.0,0.0,0.0,0.0,0.0,0.0,0.0,0.0,0.0,0.0,0.0,0.0,0.0,0.0,0.0,0.0,4.1492,4.4719,4.7145,4.8697,4.9552,4.9184,4.758,4.4573,4.1783,0.0,0.0,0.0,0.0,0.0,0.0,0.0,0.0,0.0,0.0,0.0,0.0,0.0,0.0,0.0,0.0,0.0,0.0,0.0,0.0,0.0,0.0,0.0,0.0,0.0,0.0,0.0,0.0,0.0,0.0,0.0,0.0,0.0,0.0,0.0,0.0,0.0,0.0,0.0,0.0,0.0,3.267,3.3439,3.3438,3.3031,0.0,0.0,3.3845,3.4592,3.5455,0.0,0.0,0.0,0.0,0.0,0.0,0.0,0.0,0.0,0.0,0.0,0.0,0.0,0.0,0.0,0.0,0.0,0.0,0.0,0.0,0.0,0.0,0.0,0.0,0.0,0.0,0.0,0.0,0.0,0.0,0.0,0.0,0.0,0.0,0.0,0.0,0.0,0.0,0.0,0.0,0.0,0.0,0.0,0.0,0.0,0.0,0.0,0.0,0.0,0.0,0.0,0.0,0.0,0.0,0.0,3.8677,4.1709,4.5764,4.7978,4.8232,4.9449,4.9122,4.7073,4.4183,4.1549,0.0,0.0,0.0,0.0,0.0,0.0,0.0,0.0,0.0,0.0,0.0,0.0,0.0,0.0,0.0,0.0,0.0,0.0,0.0,0.0,0.0,0.0,0.0,0.0,0.0,0.0,0.0,0.0,0.0,0.0,0.0,0.0,0.0,0.0,0.0,0.0,0.0,0.0,0.0,0.0,0.0,0.0,3.4911,3.5571,0.0,0.0,0.0,3.5935,3.5881,0.0,0.0,0.0,0.0,0.0,0.0,0.0,0.0,0.0,0.0,0.0,0.0,0.0,0.0,0.0,0.0,0.0,0.0,0.0,0.0,0.0,0.0,0.0,0.0,0.0,0.0,0.0,0.0,0.0,0.0,0.0,0.0,0.0,0.0,0.0,0.0,0.0,0.0,0.0,0.0,0.0,0.0,0.0,0.0,0.0,0.0,0.0,0.0,0.0,0.0,0.0,0.0,0.0,0.0,0.0,0.0,0.0,4.2003,4.6395,4.8373,4.7832,4.8966,4.8569,4.6386,4.3824,0.0,0.0,0.0,0.0,0.0,0.0,0.0,0.0,0.0,0.0,0.0,0.0,0.0,0.0,0.0,0.0,0.0,0.0,0.0,0.0,0.0,0.0,0.0,0.0,0.0,0.0,0.0,2.4509,0.0,0.0,0.0,0.0,0.0,0.0,0.0,0.0,0.0,0.0,0.0,0.0,0.0,0.0,3.5804,3.5941,3.7108,3.768,0.0,0.0,3.7857,3.712,3.7808,3.7876,0.0,0.0,0.0,0.0,0.0,0.0,0.0,0.0,0.0,0.0,0.0,0.0,0.0,0.0,0.0,0.0,0.0,0.0,0.0,0.0,0.0,0.0,0.0,0.0,0.0,0.0,0.0,0.0,0.0,0.0,0.0,0.0,0.0,0.0,0.0,0.0,0.0,0.0,0.0,0.0,0.0,0.0,0.0,0.0,0.0,0.0,0.0,0.0,0.0,0.0,0.0,0.0,0.0,0.0,0.0,4.2739,4.6241,4.8032,4.7985,4.8193,4.7554,4.588,4.3373,4.1036,0.0,0.0,0.0,0.0,0.0,0.0,0.0,0.0,0.0,0.0,0.0,0.0,0.0,0.0,0.0,0.0,0.0,0.0,0.0,0.0,0.0,0.0,0.0,0.0,0.0,0.0,0.0,0.0,0.0,0.0,0.0,0.0,0.0,0.0,0.0,0.0,0.0,0.0,0.0,0.0,0.0,3.5322,3.598,3.719,3.7912,0.0,0.0,3.9147,3.826,4.0254,4.0525,3.6327,0.0,0.0,0.0,0.0,0.0,0.0,0.0,0.0,0.0,0.0,0.0,0.0,0.0,0.0,0.0,0.0,0.0,0.0,0.0,0.0,0.0,0.0,0.0,0.0,0.0,0.0,0.0,0.0,0.0,0.0,0.0,0.0,0.0,0.0,0.0,0.0,0.0,0.0,0.0,0.0,0.0,0.0,0.0,0.0,0.0,0.0,0.0,0.0,0.0,0.0,0.0,0.0,0.0,4.049,4.2729,4.6152,4.7908,4.7898,4.8413,4.7979,4.6434,4.3938,4.1574,0.0,0.0,0.0,0.0,0.0,0.0,0.0,0.0,0.0,0.0,0.0,0.0,0.0,0.0,0.0,0.0,0.0,0.0,0.0,0.0,0.0,0.0,0.0,0.0,0.0,0.0,0.0,0.0,2.7422,2.766,2.7828,0.0,0.0,0.0,0.0,0.0,0.0,0.0,0.0,0.0,0.0,3.7979,3.8536,3.9785,0.0,0.0,4.062,4.0463,3.9625,3.9942,3.9519,3.7369,3.6101,0.0,0.0,0.0,0.0,0.0,0.0,0.0,0.0,0.0,0.0,0.0,0.0,0.0,0.0,0.0,0.0,0.0,0.0,0.0,0.0,0.0,0.0,0.0,0.0,0.0,0.0,0.0,0.0,0.0,0.0,0.0,0.0,0.0,0.0,0.0,0.0,0.0,0.0,0.0,0.0,0.0,0.0,0.0,0.0,0.0,0.0,0.0,0.0,0.0,0.0,0.0,0.0,4.0735,4.2864,4.6039,4.7734,4.7921,4.8057,4.7622,4.6591,4.4148,4.1914,0.0,0.0,0.0,0.0,0.0,0.0,0.0,0.0,0.0,0.0,0.0,0.0,0.0,0.0,0.0,0.0,0.0,0.0,0.0,0.0,0.0,0.0,0.0,0.0,0.0,0.0,0.0,0.0,2.8733,2.8698,2.8067,0.0,0.0,0.0,0.0,0.0,0.0,0.0,0.0,0.0,0.0,3.9333,3.9859,4.0926,4.1654,4.1539,4.1498,4.1188,4.0386,3.975,3.9106,3.8356,0.0,0.0,0.0,0.0,0.0,0.0,0.0,0.0,0.0,0.0,0.0,0.0,0.0,0.0,0.0,0.0,0.0,0.0,0.0,0.0,0.0,0.0,0.0,0.0,0.0,0.0,0.0,0.0,0.0,0.0,2.6207,0.0,0.0,0.0,0.0,0.0,0.0,0.0,0.0,0.0,0.0,0.0,0.0,0.0,0.0,0.0,0.0,0.0,0.0,0.0,0.0,0.0,0.0,4.1258,4.327,4.5788,4.7453,4.8126,4.6888,4.6237,4.6088,4.3795,4.1865,4.0474,0.0,0.0,0.0,0.0,0.0,0.0,0.0,0.0,0.0,0.0,0.0,0.0,0.0,0.0,0.0,0.0,0.0,0.0,0.0,0.0,0.0,0.0,0.0,0.0,0.0,0.0,2.812,2.9354,2.9609,0.0,0.0,0.0,0.0,0.0,0.0,0.0,0.0,0.0,0.0,3.7603,3.8596,3.9284,3.9932,4.043,4.0271,4.0911,4.1106,4.0301,4.0087,3.9838,0.0,0.0,0.0,0.0,0.0,0.0,0.0,0.0,0.0,0.0,0.0,0.0,0.0,0.0,0.0,0.0,0.0,0.0,0.0,0.0,0.0,0.0,0.0,0.0,0.0,0.0,0.0,2.9687,2.99,0.0,0.0,0.0,0.0,0.0,0.0,0.0,0.0,0.0,0.0,0.0,3.6009,3.5844,0.0,0.0,0.0,0.0,0.0,0.0,0.0,0.0,0.0,0.0,0.0,0.0,4.0628,4.3138,4.518,4.6827,4.8009,4.7596,4.6904,4.5916,4.4627,4.263,3.98,0.0,0.0,0.0,0.0,0.0,0.0,0.0,0.0,0.0,0.0,0.0,0.0,0.0,0.0,0.0,0.0,0.0,0.0,0.0,0.0,0.0,0.0,0.0,0.0,0.0,3.0141,0.0,0.0,0.0,0.0,0.0,0.0,0.0,0.0,0.0,0.0,0.0,3.5965,3.7549,3.8877,3.9906,4.0497,4.1159,4.1764,0.0,0.0,0.0,0.0,0.0,0.0,0.0,0.0,0.0,0.0,0.0,0.0,0.0,0.0,3.7903,3.753,3.798,3.8436,3.8504,0.0,0.0,0.0,0.0,0.0,0.0,0.0,0.0,0.0,0.0,0.0,0.0,0.0,0.0,3.2084,0.0,3.2055,0.0,0.0,0.0,0.0,0.0,0.0,0.0,0.0,3.6535,3.766,3.8155,3.7985,3.792,0.0,3.7867,3.7163,0.0,0.0,0.0,0.0,0.0,0.0,0.0,0.0,4.078,4.3286,4.5213,4.6775,4.7926,4.7744,4.704,4.5822,4.4596,4.284,4.0495,3.8301,3.6916,0.0,0.0,0.0,0.0,0.0,0.0,0.0,0.0,0.0,0.0,0.0,0.0,0.0,0.0,0.0,0.0,0.0,0.0,0.0,0.0,0.0,0.0,0.0,3.1337,0.0,0.0,0.0,0.0,0.0,0.0,0.0,0.0,0.0,3.414,3.5804,3.7367,3.8447,3.9808,4.0705,4.0823,0.0,0.0,0.0,0.0,0.0,0.0,0.0,3.9863,4.01,4.0134,4.0331,4.0872,4.1115,4.1339,4.1637,0.0,0.0,3.9834,3.9997,4.0436,4.0424,4.0895,4.1333,4.1383,4.1828,4.2177,0.0,0.0,0.0,0.0,0.0,0.0,0.0,0.0,3.3412,3.3475,0.0,3.3396,0.0,0.0,0.0,0.0,0.0,3.4985,0.0,0.0,3.9259,3.9844,3.9975,4.0002,3.9903,3.9739,3.9843,3.9751,3.9474,3.8433,0.0,0.0,0.0,0.0,0.0,0.0,4.1749,4.3835,4.5826,4.7239,4.7959,4.7305,4.6584,4.5789,4.3646,4.2513,4.2421,4.0455,3.9348,3.9275,3.6618,0.0,0.0,0.0,0.0,0.0,0.0,0.0,0.0,0.0,0.0,0.0,0.0,0.0,0.0,0.0,0.0,0.0,0.0,0.0,0.0,3.1311,0.0,0.0,0.0,0.0,0.0,0.0,0.0,0.0,0.0,0.0,3.6142,3.7234,3.8342,3.9148,0.0,0.0,0.0,0.0,4.209,4.1468,4.1914,4.2394,4.2428,4.1813,4.1542,4.2259,0.0,0.0,4.4405,4.4012,4.3727,4.4499,4.5135,4.4587,4.106,4.0565,4.0559,4.0527,4.1663,4.2441,4.271,4.381,4.4708,4.0233,0.0,0.0,0.0,0.0,3.7561,3.8304,3.8863,3.847,3.8183,3.7919,3.7094,0.0,0.0,0.0,0.0,0.0,0.0,3.7821,3.9255,4.1016,4.2498,4.3643,4.3408,4.3084,4.2641,4.2031,4.1428,4.0868,4.0506,3.952,3.7945,0.0,0.0,0.0,0.0,4.2349,4.4399,4.607,4.7272,4.8001,4.7802,4.7073,4.5822,4.3654,4.2513,4.2513,4.1401,4.058,4.0104,3.9308,0.0,0.0,0.0,0.0,0.0,0.0,0.0,0.0,0.0,0.0,0.0,0.0,0.0,0.0,0.0,0.0,0.0,0.0,0.0,3.3569,3.4194,3.4194,0.0,0.0,0.0,0.0,0.0,0.0,0.0,0.0,0.0,3.8776,3.8773,3.9189,0.0,0.0,4.1305,4.1629,4.2489,4.3193,4.3579,4.3829,0.0,4.4654,4.412,4.3687,4.3931,4.4364,4.506,4.6015,4.5981,4.5913,4.615,4.6319,4.6082,4.5203,4.4871,4.4864,4.4925,4.5229,4.5514,4.5584,4.5971,4.6385,4.4517,4.1041,4.0599,4.0135,3.9796,4.0843,4.1615,4.2046,4.1684,4.1279,4.0865,4.0028,3.8884,3.7644,3.754,0.0,0.0,0.0,3.9946,4.1309,4.2808,4.419,4.5352,4.5211,4.4981,4.4633,4.407,4.358,4.3157,4.2859,4.2121,4.0851,0.0,0.0,4.0186,4.164,4.347,4.5499,4.6742,4.7703,4.8398,4.757,4.6717,4.5789,4.3919,4.2943,4.2943,4.2222,4.1659,4.125,4.0694,3.96,0.0,0.0,0.0,0.0,0.0,0.0,0.0,0.0,0.0,0.0,0.0,3.2036,3.2476,0.0,0.0,0.0,3.5311,3.5677,3.5999,3.6129,0.0,0.0,0.0,0.0,0.0,0.0,0.0,3.7246,3.8403,3.9477,4.0426,4.0618,4.0991,4.1955,4.2347,4.2706,4.3146,0.0,4.4823,4.5,4.5277,4.5616,4.6049,4.5778,4.5582,4.5887,4.6278,4.6947,4.7909,4.8112,4.8214,4.8477,4.8545,4.8545,4.8545,4.8545,4.8206,4.7428,4.747,4.7733,4.8037,4.8315,4.8706,4.8536,4.6407,4.4368,4.3271,4.2964,4.3748,4.3946,4.3713,4.3574,4.3252,4.2799,4.2299,4.148,4.0477,4.0214,0.0,3.9994,4.1259,4.2608,4.3979,4.4591,4.5267,4.5955,4.5988,4.5955,4.5888,4.5888,4.5847,4.5723,4.5086,4.4836,4.4803,4.2251,4.1217,4.1792,4.3175,4.4905,4.7032,4.7728,4.839,4.8986,4.6974,4.5881,4.5881,4.4441,4.3679,4.3679,4.2984,4.2579,4.2546,4.1349,4.0601,4.0402,0.0,0.0,0.0,0.0,0.0,0.0,0.0,0.0,0.0,0.0,0.0,0.0,0.0,0.0,0.0,3.6625,0.0,3.8086,3.755,0.0,0.0,0.0,3.6489,3.7874,3.8083,3.8664,4.0007,0.0,0.0,4.1348,4.2469,4.3378,4.3604,4.4234,4.4702,4.477,4.5954,4.665,4.6,4.6515,4.6955,4.7064,4.6996,4.7158,4.7725,4.7981,4.8402,4.9534,4.9838,5.0236,5.0769,5.1058,5.1058,5.1167,5.1006,5.0592,4.8698,4.8774,4.939,4.994,5.0541,5.0998,5.0652,4.9547,4.8471,4.6709,4.4747,4.5999,4.6492,4.6431,4.6442,4.6006,4.5354,4.4681,4.386,4.2955,4.277,4.2702,4.2707,4.3588,4.4443,4.5338,4.6037,4.6783,4.7479,4.7479,4.7173,4.6684,4.6643,4.6352,4.5822,4.5623,4.5822,4.6311,4.569,4.516,4.4787,4.5674,4.69,4.8556,4.8754,4.8655,4.8266,4.7206,4.6643,4.6617,4.5226,4.4423,4.4431,4.3753,4.3341,4.3333,4.3017,4.2322,4.121,4.0024,0.0,0.0,0.0,0.0,0.0,0.0,0.0,0.0,0.0,3.4488,3.4991,0.0,3.6513,0.0,3.9177,4.0127,4.0373,4.0155,0.0,0.0,3.8839,3.8791,3.9166,3.9689,4.0159,4.0507,4.1238,4.1915,4.2493,4.3436,4.4426,4.5428,4.5525,4.5643,4.6184,4.7056,4.7582,4.7447,4.7954,4.8477,4.8428,4.8469,4.8503,4.8706,4.8732,4.8875,4.9221,4.9263,4.95,5.0168,5.0371,5.0566,5.1117,5.1201,5.1302,5.1209,5.0972,5.0728,5.0905,5.11,5.1531,5.1626,5.0917,5.0526,4.921,4.7477,4.7743,4.8082,4.8342,4.792,4.7385,4.6745,4.5915,4.526,4.4702,4.4611,4.4581,4.4647,4.5682,4.6385,4.6841,4.7876,4.8589,4.8953,4.8622,4.8456,4.8357,4.8026,4.7835,4.7769,4.7769,4.7968,4.8365,4.8365,4.8332,4.8249,4.8001,4.8597,5.003,5.0096,4.9566,4.8531,4.7769,4.7081,4.6411,4.5292,4.453,4.4217,4.3812,4.344,4.3135,4.3109,4.2579,4.1461,4.0462,3.9375,0.0,0.0,0.0,0.0,0.0,0.0,0.0,0.0,0.0,0.0,0.0,3.8359,3.9444,4.0681,4.1433,4.1506,4.1446,4.1218,4.0828,4.0668,4.0762,4.1063,4.1465,4.1853,4.2187,4.2547,4.3075,4.3882,4.4614,4.5533,4.6649,4.6854,4.7083,4.7495,4.7925,4.8153,4.8187,4.8531,4.8767,4.8767,4.8775,4.8775,4.8801,4.9036,4.9264,4.929,4.9803,5.0376,5.0788,5.1116,5.1453,5.1874,5.1975,5.211,5.2362,5.2328,5.2167,5.2207,5.2224,5.2562,5.2192,5.1695,5.1505,5.1132,5.0527,4.9359,4.9155,4.9607,4.881,4.8193,4.7694,4.6885,4.6478,4.6352,4.6385,4.6352,4.6452,4.7703,4.8291,4.8365,4.9615,5.0203,5.0179,4.9549,4.9582,5.0145,4.9541,4.9582,5.0203,5.0203,5.0236,5.0353,5.0444,5.0808,5.1373,5.0253,5.0187,5.1265,5.1298,5.0593,4.9152,4.8489,4.7446,4.5996,4.5233,4.4489,4.3771,4.3639,4.3308,4.2686,4.2645,4.2355,4.1692,4.0422,3.9673,0.0,3.8301,0.0,0.0,0.0,0.0,0.0,0.0,0.0,0.0,3.9873,4.0201,4.0896,4.1692,4.2161,4.2175,4.2221,4.2247,4.2181,4.2126,4.2387,4.2976,4.3077,4.3378,4.4073,4.4082,4.4319,4.5124,4.5831,4.654,4.7203,4.7867,4.8259,4.841,4.8416,4.8456,4.8491,4.8491,4.8539,4.8531,4.8515,4.8515,4.8574,4.9118,4.9563,4.9579,5.0643,5.1614,5.179,5.2159,5.2677,5.2861,5.287,5.287,5.2862,5.2958,5.3103,5.329,5.3298,5.3475,5.3458,5.3789,5.2647,5.2449,5.2696,5.1334,5.053,5.0073,4.9898,4.9774,4.9675,4.9476,4.9376,4.9351,4.9384,4.9375,4.9384,4.964,4.9773,4.9814,5.0071,5.0203,5.0203,5.0071,5.0079,5.0161,5.0071,5.0079,5.0203,5.0203,5.0518,5.1099,5.1695,5.2051,5.2192,0.0,0.0,0.0,5.1298,5.0569,4.9152,4.8978,4.8199,4.675,4.5988,0.0,4.453,4.3911,4.3547,4.3407,4.3407,0.0,0.0,0.0,0.0,0.0,0.0,0.0,0.0,0.0,0.0,0.0,4.2365,4.197,4.0431,4.0789,4.1428,4.232,4.3075,4.3559,4.3681,4.4093,4.4119,4.356,4.3384,4.3322,4.3463,4.3503,4.3776,4.448,4.4565,4.4815,4.5624,4.6433,4.6964,4.7076,4.7713,4.8162,4.8123,4.8316,4.8483,4.8491,4.8534,4.8517,4.8491,4.8517,4.856,4.8592,4.9128,4.958,4.9673,5.03,5.1154,5.1656,5.1916,5.2258,5.2785,5.2894,5.2868,5.2894,5.2921,5.3007,5.3238,5.3238,5.344,5.4177,0.0,5.3723,5.3424,0.0,5.3036,5.2473,5.1693,5.0675,5.0203,5.0203,5.0203,5.0203,5.0203,5.0203,5.0203,5.0203,5.0576,5.0759,5.0759,5.1115,5.128,5.128,5.0925,5.0949,5.1247,5.0925,5.1082,5.176,5.176,5.2166,5.2879,5.3268,5.3434,5.3434,5.378,5.3235,5.187,5.1837,5.1298,5.0262,5.0187,4.9301,4.7504,4.7081,0.0,0.0,0.0,0.0,0.0,0.0,0.0,0.0,4.3241,0.0,4.2487,4.2163,4.2137,4.249,4.284,4.3356,4.4084,4.4489,4.4059,4.2616,4.3172,4.3765,4.4245,4.461,4.488,4.4948,4.5172,4.5234,4.4876,4.4767,4.468,4.468,4.468,4.4813,4.516,4.5259,4.5532,4.6261,4.6714,4.7177,4.7421,4.7809,4.8066,4.8025,4.8122,4.8335,4.8727,4.8802,4.8927,4.9227,4.9002,4.896,4.9293,4.9651,4.9851,4.9884,5.0492,5.1125,5.1517,5.1842,5.2242,5.2533,5.2666,5.2666,5.2683,5.2703,5.2773,5.2886,5.2981,5.3276,5.4773,5.4872,5.4749,5.4343,5.3846,5.4433,5.421,5.3283,0.0,0.0,0.0,5.0642,5.0576,5.0567,5.0576,5.0576,5.0609,5.1231,5.1572,5.1687,5.2159,5.2458,5.2557,5.1961,5.1994,5.2515,5.2093,5.2449,5.3557,5.3581,5.3912,5.4475,5.465,5.4674,5.4697,5.4574,5.3921,5.2822,5.2647,5.2159,5.1331,5.1298,5.0304,4.8233,4.8199,4.7504,4.6054,4.5988,4.5657,4.4943,4.4894,4.4622,4.4044,4.4003,4.3977,4.3977,4.397,4.4324,4.5035,4.5093,4.5391,4.6153,4.6179,4.5822,4.4961,4.5458,4.5797,4.5797,4.5922,4.5922,4.583,4.5929,4.5922,4.5822,4.5797,4.5789,4.5789,4.5797,4.5742,4.578,4.5894,4.6193,4.6733,4.6988,4.7268,4.7777,4.7904,4.7924,4.7908,4.795,4.8148,4.857,4.8656,4.9024,4.9641,4.9452,4.9388,4.9971,5.0262,5.0386,5.0485,5.1033,5.143,5.1565,5.2027,5.2343,5.2409,5.2427,5.2449,5.2557,5.2664,5.2786,5.2928,5.3077,5.3392,5.5809,5.6358,5.57,5.5369,5.5293,5.5393,5.4674,5.3415,5.3051,5.2919,5.2928,5.234,5.2084,5.2084,5.2084,5.2093,5.2093,5.2192,5.2548,5.306,5.2614,5.2705,5.3226,5.3159,5.3159,5.3292,5.378,5.4144,5.4343,5.4343,5.4409,5.4565,5.5128,5.5459,5.5402,5.483,5.4409,5.4177,5.3581,5.2638,5.134,5.1298,5.0569,4.9052,4.8953,4.8258,4.6816,4.6775,4.6378,4.5682,4.5664,4.559,4.5491,4.5491,4.5483,4.5491,4.5491,4.5822,4.6518,4.6584,4.6908,4.7603,4.7703,4.7106,4.5789,4.5723,4.5797,4.5822,4.6419,4.6485,4.5955,4.6403,4.6609,4.599,4.5847,4.5822,4.5908,4.5876,4.5869,4.583,4.6314,4.6716,4.6815,4.7285,4.7585,4.7645,4.7704,4.7679,4.7695,4.7761,4.7809,4.78,4.7805,4.8166,4.9008,4.904,4.9263,5.0043,5.0646,5.0948,5.094,5.1459,5.1906,5.2163,5.2122,5.2233,5.2293,5.24,5.2513,5.2854,5.2987,5.3282,5.3838,5.4087,5.4131,5.7342,5.7253,5.6945,5.6339,5.5601,5.5601,5.5468,5.5156,5.4749,5.4111,5.3382,5.3069,5.3169,5.3524,5.3524,5.3524,5.3524,5.3533,5.3689,5.3945,5.3259,5.3301,5.3912,5.3581,5.3623,5.4011,5.4333,5.4697,5.5071,5.5104,5.5303,5.5686,5.6051,5.6207,5.6173,5.5852,5.5511,5.5095,5.4376,5.3482,5.2473,5.244,5.1744,5.0328,5.0295,4.9798,4.8721,4.8688,4.8357,4.7603,4.7595,4.7396,4.7007,4.7015,4.6974,4.6982,4.7015,4.7147,4.7471,4.7868,4.8423,4.9119,4.9185,4.8736,4.7566,4.7169,4.6966,4.7007,4.7678,4.7762,4.7011,4.7984,4.8365,4.7583,4.7467,4.7475,4.7425,4.7024,4.6764,4.6759,4.7038,4.7241,4.7169,4.7478,4.7662,4.7609,4.7615,4.7579,4.7569,4.7596,4.7766,4.812,4.8189,4.8554,4.918,4.9014,4.9183,4.9858,5.026,5.0482,5.0482,5.0856,5.0972,5.0999,5.1018,5.1008,5.1036,5.1312,5.1658,5.1875,5.233,5.2793,5.3547,5.4076,5.4442,5.8578,5.8038,5.8048,5.7309,5.6098,5.5932,5.6084,5.6391,5.5833,5.4972,5.3945,5.3713,5.3978,5.4475,5.4517,5.4517,5.4517,5.4517,5.4598,5.4674,5.3978,5.4045,5.4641,5.4144,5.421,5.4712,5.4694,5.4952,5.547,5.5338,5.5513,5.6034,5.609,5.61,5.61,5.61,5.5795,5.524,5.4674,5.4038,5.3361,5.338,5.2671,5.1301,5.1184,5.0782,4.9921,4.9855,4.9527,4.8839,4.8765,4.8503,4.7954,4.8082,4.8207,4.8207,4.8198,4.8123,4.7971,4.8641,4.9217,4.9569,4.9783,4.9514,4.8682,4.8204,4.7904,4.7987,4.8557,4.8663,4.7975,4.8754,4.9346,4.8679,4.8606,4.8436,4.851,4.8001,4.7529,4.7424,4.7501,4.7517,4.7391,4.7483,4.7567,4.7537,4.7536,4.7498,4.7477,4.7455,4.7763,4.8146,4.8396,4.8612,4.9343,4.9068,4.9062,4.9684,4.9832,4.9899,4.9901,4.9823,4.9835,4.9933,4.9884,4.9953,4.9908,5.0382,5.0897,5.1252,5.1823,5.2433,5.3343,5.3858,5.4372,5.8866,5.88,5.88,5.8336,5.7518,5.6888,5.6316,5.58,5.5625,5.5568,5.536,5.4697,5.4475,5.4508,5.4574,5.4607,5.4574,5.4508,5.4863,5.5369,5.474,5.4806,5.5468,5.5402,5.5435,5.5473,5.5293,5.5215,5.5272,5.4588,5.4243,5.4243,5.4243,5.4338,5.4317,5.4296,5.4243,5.4147,5.4073,5.3769,5.3249,5.3201,5.2451,5.09,5.0868,5.0214,4.9063,4.884,4.8523,4.782,4.7803,4.7743,4.7723,4.8363,4.8792,4.876,4.8792,4.8486,4.782,4.8441,4.8642,4.8001,4.8689,4.8739,4.7905,4.7728,4.7661,4.7764,4.8423,4.8519,4.7766,4.7911,4.8063,4.7985,4.7874,4.7697,4.7805,4.7672,4.7348,4.669,4.7224,4.7306,4.6812,4.7129,4.7436,4.7374,4.7372,4.738,4.734,4.7347,4.7357,4.7462,4.746,4.7823,4.847,4.8687,4.8799,4.9507,4.9736,4.9597,4.9497,4.9567,4.9756,4.9307,4.9587,4.9537,4.9817,5.0334,5.0948,5.1361,5.2052,5.2965,5.3672,5.3872,5.3999,5.9916,5.9552,5.9562,5.9131,5.8413,5.7641,5.7187,5.6879,5.6448,5.6481,5.6836,5.6581,5.6216,5.5852,5.6249,5.6207,5.5809,5.5786,5.5951,5.6173,5.5502,5.5535,5.614,5.5767,5.58,5.6153,5.5498,5.5108,5.5028,5.4602,5.4338,5.4317,5.4479,5.449,5.4286,5.4091,5.3998,5.3998,5.3998,5.3617,5.2943,5.2973,5.2494,5.1481,5.1008,5.0545,4.9977,4.9586,4.9008,4.8306,4.8243,4.8054,4.7615,4.7936,4.8123,4.8123,4.8123,4.8388,4.8962,4.8882,4.9055,4.9603,4.9512,4.91,4.8294,4.861,4.8531,4.768,4.8265,4.8447,4.7754,4.8339,4.8718,4.8304,4.8205,4.8164,4.8195,4.7722,4.7301,4.7021,4.7239,4.7331,4.7014,4.7179,4.7363,4.7322,4.7298,4.7298,4.7298,4.7298,4.7298,4.7298,4.7298,4.7439,4.7816,4.7817,4.8029,4.825,4.8324,4.8314,4.8397,4.8324,4.8314,4.8366,4.848,4.8664,4.8811,4.9446,5.0131,5.0927,5.1978,5.2699,5.241,5.2765,5.2929,6.081,6.0314,6.0092,5.9694,5.9131,5.8214,5.7777,5.7581,5.6922,5.6871,5.7272,5.7501,5.7174,5.6711,5.7592,5.7717,5.7025,5.6744,5.6484,5.6175,5.5483,5.5348,5.5681,5.5388,5.5358,5.552,5.4673,5.4052,5.3793,5.3597,5.3453,5.3464,5.3689,5.3723,5.3484,5.3304,5.3249,5.3207,5.3218,5.2887,5.23,5.2368,5.2094,5.1398,5.088,5.0486,5.0102,4.9646,4.9044,4.837,4.8329,4.807,4.7583,4.7727,4.7873,4.7873,4.7873,4.8239,4.9211,4.8871,4.9042,4.9901,4.9638,4.9199,4.8768,4.9048,4.8932,4.819,4.8468,4.8532,4.7732,4.845,4.88,4.8314,4.826,4.8291,4.8422,4.7906,4.7674,4.7799,4.7949,4.7758,4.7608,4.7461,4.7301,4.7309,4.7298,4.7298,4.7298,4.7298,4.7298,4.7298,4.7298,4.7309,4.7298,4.7374,4.7298,4.7298,4.7439,4.7441,4.7298,4.732,4.751,4.8097,4.7679,4.7883,4.878,4.9298,4.9794,5.0481,5.1394,5.2044,5.1577,5.1899,5.1876,6.1086,6.0868,6.027,5.988,5.9796,5.8333,5.7617,5.7276,5.6587,5.6199,5.6177,5.6747,5.6626,5.621,5.791,5.8386,5.7625,5.6717,5.5908,5.5122,5.4443,5.3838,5.3429,5.3817,5.3871,5.3634,5.2892,5.1972,5.0988,5.0816,5.0674,5.0828,5.116,5.1106,5.1183,5.1411,5.1351,5.1479,5.1503,5.1363,5.1304,5.1321,5.1042,5.0494,5.0248,4.9731,4.8697,4.8413,4.8083,4.743,4.7426,4.7372,4.7385,4.8066,4.8461,4.8461,4.8533,4.8222,4.7799,4.8272,4.8479,4.794,4.8529,4.8599,4.8487,4.8525,4.8722,4.9131,4.9148,4.8711,4.7692,4.7804,4.7794,4.7634,4.7488,4.7799,4.8309,4.8369,4.8558,4.8947,4.9007,4.8768,4.8308,4.7698,4.7519,4.7459,4.7369,4.7369,4.7388,4.7358,4.7328,4.7369,4.7369,4.7339,4.7339,4.7298,4.7298,4.7298,4.7298,4.7358,4.7298,4.7369,4.7698,4.8038,4.8188,4.8547,4.9157,4.9744,5.0361,5.0822,5.1055,5.1299,5.1253,5.1229,5.1276,5.9168,5.9168,5.89,5.8803,5.8599,5.7249,5.6595,5.6398,5.5304,5.528,5.5936,5.625,5.6703,5.7326,5.7585,5.7334,5.652,5.5654,5.5067,5.4653,5.3865,5.3374,5.3254,5.3407,5.3396,5.3101,5.2229,5.1431,5.0903,5.0847,5.1106,5.1354,5.1321,5.1151,5.0941,5.0797,5.0733,5.0787,5.0858,5.0952,5.0964,5.1094,5.1068,5.0847,5.0416,4.98,4.8947,4.8528,4.7978,4.7328,4.7298,4.7298,4.7331,4.7591,4.7764,4.7814,4.8188,4.8486,4.8698,4.8921,4.9166,4.935,4.9111,4.9008,4.8977,4.8947,4.9037,4.9258,4.9288,4.8977,4.8768,4.8588,4.8588,4.8588,4.8547,4.8607,4.8858,4.8947,4.9037,4.9228,4.9288,4.9198,4.9018,4.8719,4.8588,4.8558,4.8218,4.7978,4.7859,4.7608,4.7478,4.7818,4.7948,4.8098,4.8588,4.7758,4.7298,4.7298,4.7339,4.7638,4.7728,4.7919,4.8218,4.8757,4.8917,4.9164,4.9763,5.029,5.0865,5.0996,5.1217,5.1217,5.1217,5.1217,5.1217,5.863,5.8441,5.8409,5.8294,5.7958,5.6841,5.6271,5.6062,5.4905,5.4827,5.5507,5.5515,5.6018,5.6753,5.6617,5.6106,5.5372,5.4755,5.4434,5.4247,5.3137,5.2658,5.2696,5.2638,5.2658,5.2607,5.2167,5.1726,5.1575,5.1746,5.1992,5.2179,5.1857,5.1454,5.1042,5.0639,5.0513,5.0548,5.065,5.0728,5.0822,5.0976,5.1135,5.1134,5.0745,5.0249,4.9636,4.9134,4.8596,4.8068,4.7938,4.7948,4.7948,4.7948,4.7948,4.8008,4.839,4.8832,4.9313,4.9342,4.9527,5.0017,4.9638,4.9348,4.9535,4.9595,4.9684,4.9834,4.9894,4.9924,4.9894,4.9924,4.9756,4.9438,4.9288,4.9408,4.9565,4.9595,4.9714,4.9905,4.9774,4.9613,4.9565,4.9396,4.9288,4.9288,4.8858,4.8648,4.8558,4.8308,4.8068,4.8528,4.8618,4.8809,4.9018,4.8528,4.8218,4.8188,4.8038,4.8218,4.8356,4.8547,4.8858,4.9366,4.9714,4.9961,5.0338,5.0877,5.1086,5.1187,5.1217,5.1217,5.1217,5.1217,5.1217,5.957,5.8975,5.9073,5.8542,5.791,5.7089,5.675,5.6288,5.5387,5.4886,5.4895,5.459,5.4752,5.4699,5.5372,5.5029,5.4692,5.4437,5.4111,5.3662,5.2251,5.1636,5.1758,5.1675,5.1722,5.1888,5.2306,5.2575,5.2665,5.3017,5.3075,5.2662,5.2254,5.1729,5.1061,5.0813,5.057,5.0588,5.0612,5.0655,5.0775,5.0828,5.0905,5.1105,5.1087,5.0788,5.0214,5.0106,4.9751,4.9247,4.9168,4.9258,4.9127,4.9108,4.9198,4.9138,4.9258,4.9329,4.9352,4.9453,4.9539,4.9663,4.943,4.9714,5.014,5.0219,5.0428,5.0858,5.1008,5.1098,5.1038,5.1038,5.0589,4.9606,4.9527,4.9744,5.0069,5.0207,5.0446,5.0858,5.0578,5.0249,5.0099,4.9853,4.9606,4.9546,4.9396,4.9307,4.9247,4.9097,4.9198,4.9277,4.9307,4.9415,4.9396,4.9329,4.9318,4.9277,4.9097,4.9067,4.9134,4.9295,4.9583,5.0032,5.0242,5.0458,5.0679,5.1116,5.1146,5.1217,5.1217,5.1217,5.1217,5.1217,5.1217,5.7905,5.7709,5.7722,5.76,5.7278,5.6243,5.5699,5.5535,5.458,5.4358,5.4692,5.4922,5.5234,5.5515,5.547,5.5427,5.5571,5.4577,5.3743,5.3161,5.2092,5.1603,5.1606,5.1574,5.1807,5.2233,5.2494,5.3078,5.3733,5.3704,5.3574,5.3688,5.2907,5.2335,5.2073,5.1541,5.127,5.1225,5.0964,5.0894,5.0903,5.0731,5.0656,5.0686,5.071,5.0662,5.0619,5.0354,4.992,4.9348,4.9288,4.9288,4.9288,4.9288,4.9288,4.9348,4.9714,4.992,4.9991,5.032,5.0571,5.0601,5.0601,5.069,5.0847,5.0888,5.0966,5.1187,5.1217,5.1217,5.1217,5.1217,5.0978,5.0631,5.0601,5.0589,5.0757,5.0877,5.0966,5.1116,5.0996,5.0907,5.0877,5.0601,5.0511,5.0451,5.017,4.9931,4.9871,4.9625,4.9535,4.9811,4.9871,5.0051,5.0152,5.0223,5.0253,5.0074,4.9864,4.9774,4.9883,4.9991,5.029,5.0488,5.0697,5.0877,5.1128,5.1217,5.1217,5.1217,5.1217,5.1217,5.1217,5.1217,5.1217,5.7627,5.7325,5.7325,5.711,5.675,5.5903,5.5606,5.5495,5.4809,5.4722,5.5113,5.5272,5.555,5.5872,5.5768,5.5797,5.5888,5.5115,5.4378,5.3474,5.2429,5.2094,5.2326,5.2588,5.2862,5.3326,5.3804,5.4414,5.5142,5.5039,5.5026,5.4967,5.3949,5.3165,5.2875,5.2049,5.1617,5.1568,5.1345,5.1279,5.1244,5.0935,5.0734,5.0813,5.0714,5.0686,5.0763,5.0641,5.041,5.0074,5.0014,5.0014,5.0025,5.0044,5.0014,5.0074,5.032,5.0566,5.0607,5.0936,5.1217,5.1217,5.1217,5.1187,5.1206,5.1217,5.1217,5.1217,5.1217,5.1217,5.1217,5.1217,5.1217,5.1217,5.1158,5.1217,5.1217,5.1217,5.1217,5.1206,5.1187,5.1217,5.1217,5.1217,5.1217,5.1116,5.0835,5.0578,5.0518,5.0272,5.035,5.0458,5.0536,5.0757,5.1068,5.1128,5.1158,5.0858,5.0541,5.0511,5.0559,5.0589,5.0757,5.0877,5.1026,5.1026,5.1217,5.1217,5.1217,5.1217,5.1217,5.1217,5.1217,5.1217,5.1217,5.8538,5.7776,5.7716,5.7272,5.6584,5.6394,5.6348,5.6298,5.5968,5.5802,5.5823,5.5737,5.5645,5.5734,5.6239,5.6196,5.5707,5.6009,5.5618,5.4543,5.353,5.3152,5.3603,5.4068,5.4387,5.4749,5.5649,5.6229,5.6332,5.6694,5.7013,5.6273,5.52,5.4258,5.3632,5.2414,5.1949,5.1891,5.1759,5.1811,5.1954,5.1382,5.113,5.1334,5.098,5.0792,5.0834,5.0964,5.1092,5.1158,5.1026,5.1008,5.1158,5.1176,5.1068,5.1038,5.1176,5.1146,5.1187,5.1295,5.1367,5.1367,5.1367,5.1247,5.1337,5.1397,5.1337,5.1217,5.1307,5.1307,5.1236,5.1217,5.1217,5.1217,5.1217,5.1217,5.1217,5.1217,5.1217,5.1217,5.1217,5.1217,5.1217,5.1217,5.1217,5.1187,5.1146,5.1098,5.1068,5.0948,5.1128,5.1116,5.0985,5.1056,5.1217,5.1217,5.1217,5.1128,5.0888,5.0918,5.0936,5.0996,5.1026,5.1146,5.1217,5.1217,5.1217,5.1217,5.1217,5.1217,5.1217,5.1217,5.1217,5.1217,5.1217,5.852,5.8083,5.8069,5.7926,5.7621,5.7195,5.6975,5.6919,5.6647,5.6511,5.6558,5.6718,5.6723,5.681,5.6955,5.6955,5.6752,5.652,5.6302,5.5852,5.5097,5.4735,5.488,5.5084,5.5403,5.5852,5.6229,5.6622,5.7042,5.7216,5.7202,5.7042,5.6215,5.5533,5.4851,5.4068,5.3487,5.2994,5.2555,5.2378,5.2338,5.1815,5.1466,5.147,5.1053,5.0825,5.0908,5.0905,5.0999,5.1206,5.1217,5.1217,5.1217,5.1217,5.1217,5.1217,5.1247,5.1217,5.1337,5.1666,5.1917,5.1947,5.1947,5.1947,5.1947,5.1947,5.1708,5.1457,5.1618,5.1768,5.1367,5.1277,5.1247,5.1217,5.1325,5.1307,5.1217,5.1217,5.1217,5.1217,5.1217,5.1217,5.1217,5.1217,5.1217,5.1217,5.1217,5.1217,5.1217,5.1217,5.1217,5.1217,5.1146,5.1187,5.1217,5.1217,5.1217,5.1217,5.1128,5.1098,5.1128,5.1128,5.1158,5.1217,5.1217,5.1217,5.1217,5.1217,5.1217,5.1217,5.1217,5.1217,5.1217,5.1217,5.1217,5.839,5.8181,5.8086,5.7961,5.7792,5.7383,5.7251,5.7209,5.7071,5.7017,5.7034,5.7213,5.7303,5.7303,5.7303,5.7303,5.7245,5.6955,5.6622,5.6332,5.5954,5.5635,5.5519,5.5635,5.6012,5.6361,5.6651,5.6984,5.7245,5.7303,5.7303,5.7187,5.668,5.6186,5.5794,5.52,5.4706,5.4242,5.3704,5.3384,5.3339,5.2484,5.2078,5.1942,5.1524,5.1274,5.1153,5.0856,5.0805,5.0988,5.1147,5.1217,5.1217,5.1217,5.1217,5.1217,5.1445,5.1636,5.1726,5.2217,5.2576,5.2618,5.2618,5.2606,5.2606,5.2618,5.2396,5.2229,5.2438,5.2366,5.2157,5.2037,5.2037,5.2097,5.2025,5.1798,5.1307,5.1217,5.1217,5.1217,5.1217,5.1217,5.1217,5.1217,5.1217,5.1217,5.1217,5.1217,5.1217,5.1217,5.1217,5.1217,5.1217,5.1217,5.1217,5.1217,5.1217,5.1217,5.1217,5.1217,5.1307,5.1277,5.1217,5.1217,5.1217,5.1217,5.1217,5.1217,5.1217,5.1217,5.1217,5.1217,5.1217,5.1217,5.1217,5.8183,5.8085,5.785,5.757,5.7345,5.7303,5.7301,5.7288,5.7273,5.7273,5.7288,5.7303,5.7303,5.7303,5.7303,5.7303,5.7303,5.7245,5.6984,5.668,5.6448,5.6244,5.5896,5.6287,5.6477,5.6622,5.7057,5.7245,5.7303,5.7303,5.7303,5.7216,5.6781,5.6477,5.6215,5.5751,5.549,5.5171,5.459,5.4358,5.4226,5.3355,5.2788,5.2843,5.2228,5.1775,5.1417,5.103,5.0784,5.0834,5.1024,5.1076,5.11,5.1153,5.1255,5.1416,5.1852,5.2246,5.2396,5.2917,5.3306,5.3306,5.3306,5.3306,5.3306,5.3306,5.3216,5.2959,5.3228,5.3186,5.3037,5.3109,5.3019,5.2947,5.3079,5.2558,5.1726,5.1337,5.1277,5.1217,5.1217,5.1217,5.1217,5.1217,5.1217,5.1217,5.1217,5.1217,5.1217,5.1217,5.1217,5.1217,5.1217,5.1217,5.1217,5.1217,5.1217,5.1217,5.1217,5.1247,5.1457,5.1427,5.1277,5.1217,5.1217,5.1217,5.1217,5.1217,5.1217,5.1217,5.1217,5.1217,5.1217,5.1217,5.1217,5.7948,5.7486,5.743,5.7389,5.7317,5.7303,5.7332,5.7332,5.7332,5.7361,5.7303,5.7303,5.7303,5.7303,5.7303,5.7303,5.7303,5.7303,5.7202,5.7158,5.71,5.7071,5.6868,5.7042,5.7071,5.7129,5.7202,5.7289,5.7303,5.7303,5.7303,5.7274,5.7129,5.6854,5.6448,5.6302,5.5896,5.5403,5.4851,5.4851,5.4938,5.4081,5.3559,5.3833,5.3011,5.2164,5.1716,5.1629,5.1431,5.1031,5.0825,5.0816,5.0875,5.1189,5.151,5.1791,5.2316,5.2788,5.3024,5.3526,5.397,5.392,5.3945,5.3982,5.397,5.3982,5.3755,5.3486,5.3623,5.3773,5.3438,5.3258,5.3318,5.3378,5.3348,5.3198,5.2755,5.2306,5.1816,5.1457,5.1307,5.1217,5.1247,5.1277,5.1277,5.1217,5.1217,5.1217,5.1217,5.1217,5.1217,5.1217,5.1217,5.1217,5.1217,5.1217,5.1217,5.1307,5.1337,5.1457,5.1636,5.1798,5.1708,5.1487,5.1217,5.1247,5.1427,5.1217,5.1217,5.1217,5.1217,5.1217,5.1217,5.1217,5.1367,5.8121,5.7981,5.8144,5.8232,5.8261,5.8232,5.8058,5.7812,5.7768,5.7579,5.7361,5.7303,5.7303,5.7303,5.7303,5.7303,5.7303,5.7303,5.7303,5.7303,5.7303,5.7303,5.7303,5.7303,5.7303,5.7303,5.7303,5.7303,5.7303,5.7303,5.7303,5.7303,5.7303,5.7144,5.6897,5.681,5.6651,5.6302,5.5693,5.5577,5.5635,5.4952,5.43,5.4255,5.331,5.2394,5.2116,5.1857,5.1616,5.1304,5.1124,5.1055,5.1211,5.1703,5.2072,5.2318,5.2902,5.3216,5.3469,5.3847,5.4251,5.4234,5.4377,5.4457,5.452,5.4595,5.4521,5.4324,5.4413,5.4491,5.4174,5.4156,5.4114,5.4144,5.4114,5.3994,5.3665,5.3067,5.2588,5.2229,5.2229,5.2007,5.1846,5.1708,5.1397,5.1397,5.1247,5.1247,5.1217,5.1217,5.1217,5.1217,5.1217,5.1217,5.1217,5.1217,5.1217,5.1367,5.1606,5.1756,5.1965,5.2127,5.2258,5.2037,5.1828,5.1696,5.1786,5.1517,5.1217,5.1217,5.1217,5.1217,5.1307,5.1517,5.1666,5.852,5.8837,5.9146,5.9292,5.9292,5.9248,5.8929,5.8493,5.8348,5.7957,5.7507,5.7361,5.7303,5.7332,5.7463,5.7434,5.7477,5.7477,5.7536,5.7303,5.7303,5.7303,5.7303,5.7303,5.7303,5.7303,5.7303,5.7303,5.7303,5.7303,5.7303,5.7303,5.7303,5.7274,5.7274,5.7303,5.7187,5.7013,5.652,5.6332,5.6332,5.5736,5.5084,5.4604,5.3717,5.3091,5.2846,5.2452,5.1917,5.1775,5.182,5.1892,5.2075,5.2391,5.2813,5.283,5.3367,5.3668,5.3693,5.4014,5.4296,5.4316,5.4509,5.4667,5.4713,5.4786,5.4802,5.4908,5.4938,5.5001,5.5128,5.4987,5.5059,5.5102,5.5162,5.491,5.4431,5.3815,5.3545,5.3067,5.2857,5.2636,5.2486,5.2336,5.1917,5.1546,5.1427,5.1265,5.1277,5.1217,5.1217,5.1217,5.1217,5.1217,5.1217,5.1217,5.1217,5.1367,5.1666,5.1977,5.2187,5.2258,5.2378,5.2707,5.2618,5.2336,5.1947,5.1546,5.1337,5.1277,5.1247,5.1265,5.1517,5.1816,5.2067,5.8854,5.9205,5.9263,5.9292,5.9292,5.9335,5.9277,5.9045,5.861,5.8261,5.8087,5.7565,5.7361,5.7448,5.7928,5.8102,5.8116,5.8,5.7768,5.7419,5.7361,5.7303,5.7303,5.7303,5.7303,5.7303,5.7361,5.739,5.7332,5.7303,5.7303,5.7303,5.7303,5.7303,5.7303,5.7303,5.7303,5.7245,5.681,5.6709,5.6738,5.6084,5.5461,5.52,5.4487,5.411,5.3965,5.3487,5.2965,5.2526,5.2907,5.2969,5.2803,5.2723,5.2807,5.3106,5.3552,5.3884,5.3982,5.4134,5.4278,5.4316,5.4401,5.4427,5.4453,5.4534,5.4784,5.4688,5.4803,5.4905,5.4879,5.5065,5.5179,5.5222,5.5192,5.5132,5.4982,5.4743,5.4294,5.3677,5.3396,5.3246,5.3114,5.2965,5.2636,5.2217,5.1905,5.1636,5.1427,5.1337,5.1217,5.1217,5.1217,5.1217,5.1217,5.1217,5.1217,5.1307,5.1576,5.1977,5.2157,5.2229,5.2438,5.3186,5.3037,5.2438,5.2037,5.1738,5.1517,5.1517,5.1445,5.1415,5.1905,5.2426,5.2665,5.9583,5.98,6.0119,6.0293,6.0293,6.0264,6.0061,5.9742,5.9437,5.9103,5.8682,5.8131,5.7826,5.7913,5.8116,5.8464,5.8639,5.8,5.7826,5.771,5.7507,5.7303,5.7361,5.7361,5.7303,5.7419,5.7594,5.7623,5.7332,5.7303,5.7332,5.7303,5.7303,5.7303,5.7303,5.7303,5.7303,5.7216,5.7042,5.6984,5.7202,5.6345,5.5983,5.5751,5.5287,5.4851,5.4474,5.4271,5.372,5.3268,5.3342,5.3363,5.3286,5.3195,5.3195,5.3474,5.373,5.388,5.3906,5.3893,5.388,5.3935,5.4287,5.457,5.4769,5.5037,5.5113,5.5016,5.4734,5.4866,5.5019,5.5103,5.5179,5.5222,5.5209,5.5209,5.5179,5.5179,5.473,5.4192,5.4294,5.4132,5.3773,5.3563,5.3324,5.2935,5.2486,5.2127,5.1756,5.1487,5.1337,5.1247,5.1277,5.1367,5.1397,5.1487,5.1517,5.1576,5.1768,5.2157,5.2576,5.2827,5.3486,5.4264,5.3725,5.2797,5.2677,5.2558,5.2157,5.1846,5.2097,5.2366,5.2665,5.2995,5.3264,6.0293,6.0438,6.099,6.1193,6.1193,6.1193,6.0874,6.0438,6.0206,5.9887,5.9422,5.8668,5.8261,5.829,5.8377,5.8639,5.919,5.8145,5.8174,5.8334,5.8087,5.7768,5.7739,5.771,5.7812,5.8029,5.8232,5.8145,5.771,5.7594,5.7536,5.7507,5.7448,5.7303,5.7303,5.7303,5.7303,5.7303,5.7303,5.7303,5.7187,5.6854,5.6564,5.6506,5.5925,5.5374,5.5084,5.4764,5.4474,5.4097,5.3952,5.3865,5.3733,5.3704,5.3809,5.3951,5.3915,5.3755,5.3825,5.3788,5.3957,5.4187,5.4627,5.4898,5.5009,5.5289,5.5589,5.544,5.503,5.4709,5.4875,5.5103,5.5128,5.5078,5.5108,5.5108,5.5002,5.5002,5.5082,5.4899,5.5141,5.494,5.4461,5.4311,5.4102,5.3653,5.3204,5.2845,5.2456,5.1816,5.1576,5.1355,5.1325,5.1487,5.1636,5.1905,5.1995,5.2127,5.2396,5.2767,5.3246,5.3695,5.4264,5.4563,5.4174,5.3384,5.3366,5.3258,5.2767,5.2618,5.2947,5.3216,5.3384,5.3623,5.3892,6.0555,6.1077,6.1164,6.1193,6.1193,6.1193,6.1164,6.099,6.0467,6.0192,6.0003,5.8885,5.8348,5.8348,5.8319,5.8697,5.9103,5.9074,5.8958,5.9089,5.8958,5.8842,5.8987,5.9074,5.8842,5.8842,5.9045,5.8784,5.8348,5.8218,5.8087,5.7971,5.7507,5.7332,5.7448,5.7361,5.7303,5.7332,5.7332,5.7303,5.7303,5.7173,5.7129,5.6984,5.6636,5.6171,5.5925,5.5562,5.5171,5.5084,5.5084,5.488,5.4517,5.4387,5.44,5.4266,5.4005,5.3788,5.4242,5.4358,5.4532,5.4836,5.5281,5.5326,5.5467,5.5161,5.508,5.4679,5.4544,5.4469,5.4649,5.4943,5.5006,5.4913,5.4824,5.4722,5.4615,5.4773,5.4837,5.5019,5.5065,5.5141,5.494,5.494,5.485,5.4401,5.394,5.3533,5.3114,5.2486,5.2025,5.1876,5.1905,5.2037,5.2127,5.2336,5.2486,5.2636,5.3007,5.3336,5.3665,5.3982,5.4012,5.4162,5.3982,5.4072,5.4054,5.3815,5.3348,5.3318,5.3545,5.3773,5.4012,5.4269,5.4478,6.0932,6.1193,6.1193,6.1193,6.1193,6.1193,6.1193,6.1135,6.0918,6.0758,6.0526,5.9422,5.8871,5.8784,5.8523,5.9103,5.9945,5.9655,5.951,5.9655,5.9539,5.9335,5.9263,5.9306,5.9292,5.948,5.964,5.9713,5.9248,5.861,5.8174,5.7826,5.7521,5.7565,5.7768,5.7477,5.7594,5.7652,5.7565,5.7332,5.7303,5.7303,5.7303,5.7303,5.7028,5.6738,5.6432,5.62,5.5765,5.5519,5.5403,5.5316,5.5097,5.4996,5.4996,5.4967,5.4764,5.4764,5.4967,5.501,5.5213,5.5432,5.5751,5.6113,5.6215,5.591,5.5411,5.5252,5.519,5.4933,5.4589,5.4894,5.4831,5.4746,5.4775,5.4683,5.4576,5.4475,5.459,5.4811,5.4989,5.504,5.5116,5.5119,5.5059,5.482,5.4371,5.4012,5.3623,5.3174,5.2785,5.2558,5.2618,5.2737,5.2797,5.2887,5.2947,5.3156,5.3563,5.3832,5.3952,5.4132,5.4281,5.4491,5.4683,5.4743,5.47,5.4533,5.4204,5.4114,5.4084,5.4341,5.4581,5.47,5.491,6.1193,6.1193,6.1193,6.1193,6.1193,6.1193,6.1193,6.1193,6.1164,6.1164,6.0903,6.0032,5.9451,5.9219,5.8885,5.9393,6.0758,5.9945,6.0003,6.009,6.0061,5.9887,5.9945,5.9858,5.9843,5.9727,6.0279,6.0279,5.9858,5.9364,5.8668,5.8029,5.8116,5.8174,5.8261,5.8,5.7754,5.7783,5.7507,5.7332,5.7303,5.7303,5.7303,5.7303,5.7245,5.71,5.6723,5.6636,5.6316,5.6113,5.5997,5.5968,5.5693,5.5664,5.5678,5.5649,5.5577,5.5693,5.578,5.5809,5.5765,5.5983,5.6215,5.6738,5.7013,5.6752,5.63,5.5909,5.5708,5.5313,5.5031,5.5283,5.528,5.5116,5.4926,5.4866,5.4813,5.4722,5.4575,5.4577,5.4773,5.4943,5.5002,5.5128,5.5136,5.5119,5.482,5.4418,5.4047,5.3676,5.3359,5.306,5.3294,5.3414,5.3503,5.3503,5.3545,5.3695,5.4102,5.4371,5.4461,5.464,5.4862,5.5102,5.5222,5.5132,5.4952,5.5042,5.5072,5.4832,5.4683,5.4922,5.5132,5.5222,5.5222,6.1193,6.1193,6.1193,6.1193,6.1193,6.1193,6.1193,6.1193,6.1193,6.1164,6.099,6.0438,5.9771,5.9422,5.935,5.9655,6.0322,6.0177,6.0496,6.0874,6.1048,6.0874,6.0816,6.0816,6.0903,6.0903,6.0961,6.0671,6.0351,6.0177,5.9945,5.9931,5.9103,5.9132,5.9045,5.8697,5.8029,5.7884,5.7594,5.7492,5.7477,5.7448,5.7463,5.7448,5.739,5.7274,5.7245,5.7245,5.7129,5.6955,5.6897,5.6723,5.639,5.6302,5.6316,5.6316,5.6316,5.6477,5.6651,5.6564,5.6622,5.697,5.7158,5.7158,5.7245,5.6781,5.6431,5.6341,5.6143,5.5856,5.5784,5.595,5.5835,5.5531,5.5267,5.5272,5.5161,5.4998,5.4818,5.4532,5.4513,5.4632,5.4773,5.4875,5.5116,5.5124,5.5035,5.4635,5.4408,5.408,5.3764,5.3597,5.3915,5.4077,5.4184,5.4256,5.4384,5.4443,5.4713,5.4892,5.5012,5.5222,5.5222,5.5222,5.5222,5.5222,5.5192,5.5162,5.5162,5.5149,5.5179,5.5192,5.5222,5.5222,5.5281,6.1193,6.1193,6.1193,6.1193,6.1193,6.1193,6.1193,6.1193,6.1193,6.0932,6.0613,6.0293,6.0076,5.9887,5.9887,6.0206,6.0729,6.0816,6.1005,6.1092,6.1193,6.1193,6.1193,6.1193,6.1164,6.1193,6.1164,6.112,6.0874,6.0758,6.0787,6.0526,5.9858,5.9684,5.9539,5.948,5.8842,5.8261,5.8232,5.8363,5.8029,5.8377,5.8523,5.8523,5.8552,5.829,5.8,5.7913,5.7681,5.7419,5.7361,5.7187,5.7028,5.697,5.6955,5.6984,5.6984,5.7158,5.7245,5.7086,5.7086,5.7187,5.7303,5.7303,5.7303,5.7042,5.6723,5.659,5.6587,5.6451,5.5694,5.5981,5.6143,5.5766,5.5659,5.5708,5.5571,5.5432,5.5203,5.4979,5.4508,5.4256,5.441,5.4564,5.4845,5.5103,5.5015,5.4891,5.4636,5.4499,5.4214,5.406,5.4349,5.446,5.4567,5.4881,5.5209,5.5251,5.5281,5.5311,5.5371,5.5222,5.5222,5.5222,5.5222,5.5222,5.5222,5.5222,5.5192,5.5179,5.5179,5.5192,5.5222,5.5281,5.5491,6.1193,6.1193,6.1193,6.1193,6.1193,6.1193,6.1193,6.1193,6.1193,6.0961,6.0496,6.0496,6.0496,6.0496,6.0526,6.07,6.1048,6.1135,6.1164,6.1193,6.1193,6.1193,6.1193,6.1193,6.1193,6.1193,6.1193,6.1164,6.1135,6.1164,6.1135,6.0845,6.0409,6.0322,6.0322,6.0206,5.9669,5.8987,5.8929,5.9118,5.8697,5.8987,5.9219,5.9132,5.8958,5.8639,5.8319,5.8174,5.8058,5.7797,5.7652,5.7623,5.7579,5.7579,5.7594,5.7652,5.7739,5.7797,5.7623,5.739,5.7318,5.7303,5.7303,5.7303,5.7303,5.7303,5.7042,5.6839,5.7013,5.6912,5.5925,5.6488,5.6661,5.6413,5.6549,5.6571,5.6205,5.5953,5.5667,5.5422,5.5,5.471,5.474,5.491,5.4737,5.4977,5.4888,5.4837,5.4815,5.4709,5.4722,5.4658,5.4768,5.4824,5.4862,5.5338,5.57,5.5713,5.5713,5.5653,5.5623,5.5461,5.5281,5.5222,5.5222,5.5222,5.5273,5.5342,5.5278,5.5209,5.5269,5.5371,5.5611,5.573,5.6013,6.1164,6.1193,6.1193,6.1193,6.1193,6.1193,6.1193,6.1193,6.1193,6.1135,6.1077,6.1077,6.1077,6.1077,6.1019,6.1077,6.1135,6.1193,6.1193,6.1193,6.1193,6.1193,6.1193,6.1193,6.1193,6.1193,6.1193,6.1193,6.1193,6.1193,6.1193,6.1193,6.0961,6.0932,6.1077,6.0526,5.9916,5.9393,5.9364,5.9422,5.9335,5.9451,5.9597,5.9539,5.9248,5.8987,5.8755,5.8697,5.8552,5.8348,5.8261,5.829,5.829,5.829,5.829,5.8276,5.8813,5.8784,5.8348,5.771,5.7477,5.7361,5.7303,5.7303,5.7303,5.7303,5.7303,5.7071,5.7245,5.7303,5.7187,5.7173,5.71,5.7084,5.7164,5.7117,5.6709,5.633,5.6018,5.5767,5.5764,5.5703,5.5579,5.5408,5.4939,5.4811,5.4751,5.4798,5.4934,5.4946,5.4993,5.5128,5.5167,5.5312,5.5431,5.5888,5.6179,5.6162,5.6162,5.6162,5.6042,5.591,5.5671,5.5401,5.5521,5.582,5.5688,5.5526,5.5675,5.5825,5.5568,5.5641,5.591,5.6239,5.6539,6.0526,6.0584,6.1034,6.1193,6.1193,6.1193,6.1193,6.1193,6.1193,6.1193,6.1193,6.1193,6.1193,6.1193,6.1193,6.1193,6.1193,6.1193,6.1193,6.1193,6.1193,6.1193,6.1193,6.1193,6.1193,6.1193,6.1193,6.1193,6.1193,6.1193,6.1193,6.1193,6.1193,6.1193,6.1135,6.0874,6.0555,6.0119,6.0235,6.0409,6.0003,6.0264,6.0496,6.0482,6.0192,5.9829,5.9466,5.9393,5.9248,5.9016,5.8958,5.8958,5.8958,5.8958,5.8958,5.8943,5.9306,5.9219,5.8987,5.8668,5.8174,5.7739,5.7448,5.7448,5.7303,5.7303,5.7303,5.7332,5.7332,5.7332,5.7303,5.7274,5.7216,5.7216,5.7271,5.7242,5.6981,5.6603,5.6252,5.6062,5.596,5.5812,5.5676,5.5757,5.5427,5.5217,5.5226,5.5247,5.5377,5.5263,5.5214,5.5411,5.5552,5.5745,5.5974,5.6316,5.6596,5.6652,5.673,5.6778,5.6628,5.6397,5.6406,5.6273,5.6376,5.6453,5.6392,5.6387,5.6508,5.6513,5.6483,5.6406,5.6615,5.6885,5.7107,5.9887,5.9974,6.0584,6.0845,6.0903,6.1106,6.1193,6.1193,6.1193,6.1193,6.1193,6.1193,6.1193,6.1193,6.1193,6.1193,6.1193,6.1193,6.1193,6.1193,6.1193,6.1193,6.1193,6.1193,6.1193,6.1193,6.1193,6.1193,6.1193,6.1193,6.1193,6.1193,6.1193,6.1193,6.1164,6.1077,6.099,6.07,6.0845,6.0903,6.0758,6.0874,6.1106,6.1048,6.0845,6.0555,6.0293,6.0148,6.0032,5.9713,5.9626,5.9597,5.9597,5.9597,5.9626,5.9626,5.9626,5.9626,5.9597,5.9277,5.8755,5.8232,5.7986,5.7884,5.771,5.7739,5.771,5.7652,5.7477,5.7536,5.7623,5.7594,5.7332,5.7361,5.7332,5.7317,5.7259,5.6853,5.6708,5.649,5.6403,5.6142,5.5925,5.5924,5.589,5.5814,5.5768,5.5804,5.5823,5.5704,5.5608,5.576,5.5859,5.5997,5.6261,5.6637,5.6888,5.7093,5.7186,5.7295,5.7116,5.6888,5.7023,5.7098,5.6961,5.6948,5.7199,5.7335,5.7322,5.754,5.7746,5.7653,5.75,5.7543,5.7693,5.9277,5.9364,5.9945,6.025,6.0322,6.0932,6.1193,6.1193,6.1193,6.1193,6.1193,6.1193,6.1193,6.1193,6.1193,6.1193,6.1193,6.1193,6.1193,6.1193,6.1193,6.1193,6.1193,6.1193,6.1193,6.1193,6.1193,6.1193,6.1193,6.1193,6.1193,6.1193,6.1193,6.1193,6.1193,6.1164,6.1135,6.1077,6.1077,6.1106,6.1048,6.1106,6.1193,6.1077,6.0816,6.0584,6.0424,6.0366,6.0322,6.0235,6.0235,6.0235,6.0235,6.0235,6.0235,6.0235,6.0235,6.0235,6.0177,5.9829,5.9626,5.9335,5.935,5.8987,5.8552,5.8348,5.8348,5.8145,5.7942,5.8058,5.8174,5.7768,5.7434,5.7419,5.739,5.739,5.7419,5.7274,5.7216,5.7129,5.71,5.6955,5.6825,5.6738,5.6419,5.6533,5.6457,5.6323,5.6328,5.6264,5.6187,5.6142,5.6239,5.6241,5.6568,5.7045,5.7379,5.767,5.7619,5.763,5.7495,5.748,5.7683,5.767,5.7354,5.7348,5.7599,5.7883,5.8083,5.8289,5.8265,5.838,5.8078,5.8115,5.8291,5.8581,5.8697,5.9742,6.0221,6.0293,6.0903,6.1193,6.1193,6.1193,6.1193,6.1193,6.1193,6.1193,6.1193,6.1193,6.1193,6.1193,6.1193,6.1193,6.1193,6.1193,6.1193,6.1193,6.1193,6.1193,6.1193,6.1193,6.1193,6.1193,6.1193,6.1193,6.1193,6.1193,6.1193,6.1193,6.1193,6.1193,6.1193,6.1193,6.1193,6.1193,6.1193,6.1193,6.1048,6.099,6.0816,6.0816,6.0831,6.0816,6.0845,6.0874,6.0903,6.0903,6.0903,6.0903,6.0903,6.0903,6.0903,6.0874,6.0729,6.0555,6.0496,6.0526,5.9974,5.9422,5.9045,5.9031,5.8784,5.8435,5.8493,5.8552,5.8261,5.8116,5.8145,5.8029,5.7826,5.7797,5.7652,5.7565,5.7303,5.7303,5.7303,5.7245,5.7187,5.6955,5.7115,5.7143,5.6909,5.6773,5.6686,5.6667,5.6633,5.6688,5.6679,5.7126,5.7633,5.7953,5.8233,5.8008,5.7962,5.8175,5.8235,5.8366,5.8247,5.7915,5.7878,5.8019,5.8192,5.8256,5.8235,5.8254,5.8497,5.8684,5.8578,5.8546,5.7913,5.8044,5.9016,5.9713,6.0293,6.0903,6.1193,6.1193,6.1193,6.1193,6.1193,6.1193,6.1193,6.1193,6.1193,6.1193,6.1193,6.1193,6.1193,6.1193,6.1193,6.1193,6.1193,6.1193,6.1193,6.1193,6.1193,6.1193,6.1193,6.1193,6.1193,6.1193,6.1193,6.1193,6.1193,6.1193,6.1193,6.1193,6.1193,6.1193,6.1193,6.1193,6.1193,6.1193,6.1193,6.1193,6.1193,6.1193,6.1193,6.1193,6.1193,6.1193,6.1193,6.1164,6.1164,6.1135,6.1135,6.1106,6.1106,6.1135,6.1164,6.1193,6.1193,6.0787,6.0293,5.9887,5.9742,5.9539,5.9132,5.8842,5.8871,5.89,5.9045,5.9161,5.8755,5.8348,5.8174,5.8043,5.7739,5.7419,5.7303,5.7303,5.7303,5.7303,5.7303,5.7303,5.7274,5.7201,5.7098,5.705,5.7048,5.7022,5.7091,5.7214,5.7634,5.7809,5.7875,5.7899,5.7759,5.7884,5.847,5.8536,5.8247,5.8333,5.8463,5.8317,5.8095,5.8166,5.8205,5.8154,5.8126,5.8303,5.8452,5.8477,5.8488,5.7332,5.739,5.8087,5.919,6.0206,6.0903,6.1193,6.1193,6.1193,6.1193,6.1193,6.1193,6.1193,6.1193,6.1193,6.1193,6.1193,6.1193,6.1193,6.1193,6.1193,6.1193,6.1193,6.1193,6.1193,6.1193,6.1193,6.1193,6.1193,6.1193,6.1193,6.1193,6.1193,6.1193,6.1193,6.1193,6.1193,6.1193,6.1193,6.1193,6.1193,6.1193,6.1193,6.1193,6.1193,6.1193,6.1193,6.1193,6.1193,6.1193,6.1193,6.1193,6.1193,6.1193,6.1193,6.1193,6.1193,6.1193,6.1193,6.1193,6.1193,6.1193,6.1164,6.1077,6.0758,6.0496,6.0351,6.0177,5.98,5.9742,5.98,5.9393,5.9306,5.948,5.9335,5.9161,5.9074,5.8726,5.8232,5.7884,5.7652,5.7594,5.7303,5.7303,5.7303,5.7303,5.7303,5.7303,5.7317,5.7287,5.7273,5.7274,5.7314,5.7296,5.7384,5.7486,5.7458,5.7458,5.7486,5.7723,5.8223,5.8183,5.7975,5.81,5.8252,5.8169,5.8029,5.7988,5.7932,5.7946,5.7946,5.8043,5.8126,5.8167,5.8292,5.7303,5.7419,5.8581,5.951,6.025,6.0903,6.1193,6.1193,6.1193,6.1193,6.1193,6.1193,6.1193,6.1193,6.1193,6.1193,6.1193,6.1193,6.1193,6.1193,6.1193,6.1193,6.1193,6.1193,6.1193,6.1193,6.1193,6.1193,6.1193,6.1193,6.1193,6.1193,6.1193,6.1193,6.1193,6.1193,6.1193,6.1193,6.1193,6.1193,6.1193,6.1193,6.1193,6.1193,6.1193,6.1193,6.1193,6.1193,6.1193,6.1193,6.1193,6.1193,6.1193,6.1193,6.1193,6.1193,6.1193,6.1193,6.1193,6.1193,6.1193,6.1193,6.1193,6.1193,6.1106,6.1019,6.0874,6.07,6.0613,6.0613,6.0496,5.9974,5.9626,5.9829,5.9974,5.9945,5.9945,5.9364,5.8784,5.8435,5.813,5.7797,5.7477,5.7332,5.7303,5.7303,5.7303,5.7303,5.7303,5.7288,5.7288,5.7303,5.7303,5.7316,5.7303,5.7317,5.7345,5.7458,5.757,5.7779,5.7988,5.8017,5.7961,5.7878,5.7906,5.7864,5.7751,5.7556,5.7528,5.7682,5.7737,5.785,5.771,5.7696,5.7904,5.7303,5.7477,5.874,5.9655,6.0264,6.0932,6.1193,6.1193,6.1193,6.1193,6.1193,6.1193,6.1193,6.1193,6.1193,6.1193,6.1193,6.1193,6.1193,6.1193,6.1193,6.1193,6.1193,6.1193,6.1193,6.1193,6.1193,6.1193,6.1193,6.1193,6.1193,6.1193,6.1193,6.1222,6.1222,6.1193,6.1251,6.1193,6.1251,6.1251,6.1251,6.1222,6.1193,6.1193,6.1193,6.1193,6.1193,6.1193,6.1193,6.1193,6.1193,6.1193,6.1193,6.1193,6.1193,6.1193,6.1193,6.1193,6.1193,6.1193,6.1193,6.1222,6.1222,6.1222,6.1193,6.1077,6.1077,6.0932,6.0903,6.0932,6.0932,6.0555,6.0496,6.0642,6.0584,6.0526,6.0264,5.9829,5.9306,5.8929,5.8552,5.8116,5.7768,5.7419,5.739,5.7303,5.7303,5.7419,5.7419,5.7565,5.7507,5.7419,5.7477,5.739,5.7303,5.7317,5.7345,5.7472,5.7598,5.7627,5.7697,5.7892,5.7975,5.7895,5.7799,5.7655,5.7529,5.7518,5.7515,5.7696,5.7697,5.7627,5.7487,5.7504,5.7818,5.7361,5.7608,5.8784,5.9655,6.0264,6.0947,6.1193,6.1193,6.1193,6.1193,6.1193,6.1193,6.1193,6.1193,6.1193,6.1193,6.1193,6.1193,6.1193,6.1193,6.1193,6.1193,6.1193,6.1193,6.1193,6.1193,6.1193,6.1193,6.1193,6.1193,6.1193,6.1222,6.128,6.1353,6.1353,6.147,6.1629,6.1687,6.1716,6.1571,6.1425,6.128,6.128,6.128,6.1251,6.1251,6.128,6.1222,6.1222,6.128,6.1338,6.1571,6.1557,6.1586,6.1425,6.1425,6.1251,6.1222,6.1193,6.1193,6.1251,6.1309,6.1309,6.1309,6.1338,6.1425,6.1425,6.1338,6.1309,6.1251,6.128,6.1338,6.1338,6.1164,6.1048,6.0961,6.0613,6.0293,5.9916,5.948,5.9045,5.861,5.8203,5.7826,5.7652,5.7536,5.7507,5.7521,5.7667,5.7986,5.8174,5.7971,5.7884,5.771,5.739,5.7317,5.7331,5.736,5.7459,5.7418,5.7447,5.7657,5.7842,5.7931,5.7818,5.7748,5.7805,5.7894,5.7904,5.7914,5.7847,5.7894,5.7934,5.7952,5.7985,5.7623,5.816,5.8987,5.9655,6.0264,6.0903,6.1193,6.1193,6.1193,6.1193,6.1135,6.1164,6.1193,6.1164,6.1193,6.1193,6.1193,6.1193,6.1193,6.1193,6.128,6.1251,6.1251,6.1367,6.1222,6.1222,6.1251,6.1193,6.1251,6.1222,6.1222,6.1251,6.1803,6.1948,6.2006,6.2209,6.2544,6.2499,6.2499,6.2515,6.2283,6.2035,6.16,6.1513,6.1454,6.16,6.1658,6.1411,6.1251,6.1309,6.1687,6.2122,6.2238,6.2166,6.1977,6.1861,6.1658,6.1513,6.1513,6.1513,6.1629,6.1919,6.1948,6.1948,6.2093,6.2383,6.2267,6.1992,6.189,6.1716,6.1716,6.189,6.189,6.1454,6.1208,6.1135,6.0932,6.0816,6.0613,6.0235,5.9858,5.9451,5.9074,5.8813,5.8726,5.8639,5.861,5.8624,5.8537,5.8682,5.8798,5.8581,5.8348,5.7826,5.7448,5.7332,5.7317,5.7303,5.7492,5.7839,5.7868,5.7492,5.7634,5.8037,5.8112,5.8042,5.8143,5.8299,5.8341,5.8355,5.8244,5.8231,5.8329,5.846,5.8536]},{"header":{"parameterUnit":"m.s-1","parameterCategory":1,"la1":31.0,"la2":29.5877,"lo1":-88.7671,"lo2":-86.6584,"dy":0.0162,"dx":0.0185,"nx":115,"ny":88,"refTime":"2023-05-23T06:00:00:Z","depth":0,"parameterNumber":3,"parameterNumberName":"V-component_of_WINDS"},"data":[0.0,0.0,0.0,0.0,0.0,0.0,0.0,0.0,0.0,0.0,0.0,0.0,0.0,0.0,0.0,0.0,0.0,0.0,0.0,0.0,0.0,0.0,0.0,0.0,0.0,0.0,0.0,0.0,0.0,0.0,0.0,0.0,0.0,0.0,0.0,0.0,0.0,0.0,0.0,0.0,0.0,0.0,0.0,0.0,0.0,0.0,0.0,0.0,0.0,0.0,0.0,0.0,0.0,0.0,0.0,0.0,0.0,0.0,0.0,0.0,0.0,0.0,0.0,0.0,0.0,0.0,0.0,0.0,0.0,0.0,0.0,0.0,0.0,0.0,0.0,0.0,0.0,0.0,0.0,0.0,0.0,0.0,0.0,0.0,0.0,0.0,0.0,0.0,0.0,0.0,0.0,0.0,0.0,0.0,0.0,0.0,0.0,0.0,0.0,0.0,0.0,0.0,0.0,0.0,0.0,0.0,0.0,0.0,0.0,0.0,0.0,0.0,0.0,0.0,0.0,0.0,0.0,0.0,0.0,0.0,0.0,0.0,0.0,0.0,0.0,0.0,0.0,0.0,0.0,0.0,0.0,0.0,0.0,0.0,0.0,0.0,0.0,0.0,0.0,0.0,0.0,0.0,0.0,0.0,0.0,0.0,0.0,0.0,0.0,0.0,0.0,0.0,0.0,0.0,0.0,0.0,0.0,0.0,0.0,0.0,0.0,0.0,0.0,0.0,0.0,0.0,0.0,0.0,0.0,0.0,0.0,0.0,0.0,0.0,0.0,0.0,0.0,0.0,0.0,0.0,0.0,0.0,0.0,0.0,0.0,0.0,0.0,0.0,0.0,0.0,0.0,0.0,0.0,0.0,0.0,0.0,0.0,0.0,0.0,0.0,0.0,0.0,0.0,0.0,0.0,0.0,0.0,0.0,0.0,0.0,0.0,0.0,0.0,0.0,0.0,0.0,0.0,0.0,0.0,0.0,0.0,0.0,0.0,0.0,0.0,0.0,0.0,0.0,0.0,0.0,0.0,0.0,0.0,0.0,0.0,0.0,0.0,0.0,0.0,0.0,0.0,0.0,0.0,0.0,0.0,0.0,0.0,0.0,0.0,0.0,0.0,0.0,0.0,0.0,0.0,0.0,0.0,0.0,0.0,0.0,0.0,0.0,0.0,0.0,0.0,0.0,0.0,0.0,0.0,0.0,0.0,0.0,0.0,0.0,0.0,0.0,0.0,0.0,0.0,0.0,0.0,0.0,0.0,0.0,0.0,0.0,0.0,0.0,0.0,0.0,0.0,0.0,0.0,0.0,0.0,0.0,0.0,0.0,0.0,0.0,0.0,0.0,0.0,0.0,0.0,0.0,0.0,0.0,0.0,0.0,0.0,0.0,0.0,0.0,0.0,0.0,0.0,0.0,0.0,0.0,0.0,0.0,0.0,0.0,0.0,0.0,0.0,0.0,0.0,0.0,0.0,0.0,0.0,0.0,0.0,0.0,0.0,0.0,0.0,0.0,0.0,0.0,0.0,0.0,0.0,0.0,0.0,0.0,0.0,0.0,0.0,0.0,0.0,0.0,0.0,0.0,0.0,0.0,0.0,0.0,0.0,0.0,0.0,0.0,0.0,0.0,0.0,0.0,0.0,0.0,0.0,0.0,0.0,0.0,0.0,0.0,0.0,0.0,0.0,0.0,0.0,0.0,0.0,0.0,0.0,0.0,0.0,0.0,0.0,0.0,0.0,0.0,0.0,0.0,0.0,0.0,0.0,0.0,0.0,0.0,0.0,0.0,0.0,0.0,0.0,0.0,0.0,0.0,0.0,0.0,0.0,0.0,0.0,0.0,0.0,0.0,0.0,0.0,0.0,0.0,0.0,0.0,0.0,0.0,0.0,0.0,0.0,0.0,0.0,0.0,0.0,0.0,0.0,0.0,0.0,0.0,0.0,0.0,0.0,0.0,0.0,0.0,0.0,0.0,0.0,0.0,0.0,0.0,0.0,0.0,0.0,0.0,0.0,0.0,0.0,0.0,0.0,0.0,0.0,0.0,0.0,0.0,0.0,0.0,0.0,0.0,0.0,0.0,0.0,0.0,0.0,0.0,0.0,0.0,0.0,0.0,0.0,0.0,0.0,0.0,0.0,0.0,0.0,0.0,0.0,0.0,0.0,0.0,0.0,0.0,0.0,0.0,0.0,0.0,0.0,0.0,0.0,0.0,0.0,0.0,0.0,0.0,0.0,0.0,0.0,0.0,0.0,0.0,0.0,0.0,0.0,0.0,0.0,0.0,0.0,0.0,0.0,0.0,0.0,0.0,0.0,0.0,0.0,0.0,0.0,0.0,0.0,0.0,0.0,0.0,0.0,0.0,0.0,0.0,0.0,0.0,0.0,0.0,0.0,0.0,0.0,0.0,0.0,0.0,0.0,0.0,0.0,0.0,0.0,0.0,0.0,0.0,0.0,0.0,0.0,0.0,0.0,0.0,0.0,0.0,0.0,0.0,0.0,0.0,0.0,0.0,0.0,0.0,0.0,0.0,0.0,0.0,0.0,0.0,0.0,0.0,0.0,0.0,0.0,0.0,0.0,0.0,0.0,0.0,0.0,0.0,0.0,0.0,0.0,0.0,0.0,0.0,0.0,0.0,0.0,0.0,0.0,0.0,0.0,0.0,0.0,0.0,0.0,0.0,0.0,0.0,0.0,0.0,0.0,0.0,0.0,0.0,0.0,0.0,0.0,0.0,0.0,0.0,0.0,0.0,0.0,0.0,0.0,0.0,0.0,0.0,0.0,0.0,0.0,0.0,0.0,0.0,0.0,0.0,0.0,0.0,0.0,0.0,0.0,0.0,0.0,0.0,0.0,0.0,0.0,0.0,0.0,0.0,0.0,0.0,0.0,0.0,0.0,0.0,0.0,0.0,0.0,0.0,0.0,0.0,0.0,0.0,0.0,0.0,0.0,0.0,0.0,0.0,0.0,0.0,0.0,0.0,0.0,0.0,0.0,0.0,0.0,0.0,0.0,0.0,0.0,0.0,0.0,0.0,0.0,0.0,0.0,0.0,0.0,0.0,0.0,0.0,0.0,0.0,0.0,0.0,0.0,0.0,0.0,0.0,0.0,0.0,0.0,0.0,0.0,0.0,0.0,0.0,0.0,0.0,0.0,0.0,0.0,0.0,0.0,0.0,0.0,0.0,0.0,0.0,0.0,0.0,0.0,0.0,0.0,0.0,0.0,0.0,0.0,0.0,0.0,0.0,0.0,0.0,0.0,0.0,0.0,0.0,0.0,0.0,0.0,0.0,0.0,0.0,0.0,0.0,0.0,0.0,0.0,0.0,0.0,0.0,0.0,0.0,0.0,0.0,0.0,0.0,0.0,0.0,0.0,0.0,0.0,0.0,0.0,0.0,0.0,0.0,0.0,0.0,0.0,0.0,0.0,0.0,0.0,0.0,0.0,0.0,0.0,0.0,0.0,0.0,0.0,0.0,0.0,0.0,0.0,0.0,0.0,0.0,0.0,0.0,0.0,0.0,0.0,0.0,0.0,0.0,0.0,0.0,0.0,0.0,0.0,0.0,0.0,0.0,0.0,0.0,0.0,0.0,0.0,0.0,0.0,0.0,0.0,0.0,0.0,0.0,0.0,0.0,0.0,0.0,0.0,0.0,0.0,0.0,0.0,0.0,0.0,0.0,0.0,0.0,0.0,0.0,0.0,0.0,0.0,0.0,0.0,0.0,0.0,0.0,0.0,0.0,0.0,0.0,0.0,0.0,0.0,0.0,0.0,0.0,0.0,0.0,0.0,0.0,0.0,0.0,0.0,0.0,0.0,0.0,0.0,0.0,0.0,0.0,0.0,0.0,0.0,0.0,0.0,0.0,0.0,0.0,0.0,0.0,0.0,0.0,0.0,0.0,0.0,0.0,0.0,0.0,0.0,0.0,0.0,0.0,0.0,0.0,0.0,0.0,0.0,0.0,0.0,0.0,0.0,0.0,0.0,0.0,0.0,0.0,0.0,0.0,0.0,0.0,0.0,0.0,0.0,0.0,0.0,0.0,0.0,0.0,0.0,0.0,0.0,0.0,0.0,0.0,0.0,0.0,0.0,0.0,0.0,0.0,0.0,0.0,0.0,0.0,0.0,0.0,0.0,0.0,0.0,0.0,0.0,0.0,0.0,0.0,0.0,0.0,0.0,0.0,0.0,0.0,0.0,0.0,0.0,0.0,0.0,0.0,0.0,0.0,0.0,0.0,0.0,0.0,0.0,0.0,0.0,0.0,0.0,0.0,0.0,0.0,0.6356,0.0,0.0,0.0,0.0,0.0,0.0,0.0,0.0,0.0,0.0,0.0,0.0,0.0,0.0,0.0,0.0,0.0,0.0,0.0,0.0,0.0,0.0,0.0,0.0,0.0,0.0,0.0,0.0,0.0,0.0,0.0,0.0,0.0,0.0,0.0,0.0,0.0,0.0,0.0,0.0,0.0,0.0,0.0,0.0,0.0,0.0,0.0,0.0,0.0,0.0,0.0,0.0,0.0,0.0,0.0,0.0,0.0,0.0,0.0,0.0,0.0,0.0,0.0,0.0,0.0,0.0,0.0,0.0,0.0,0.0,0.0,0.0,0.0,0.0,0.0,0.0,0.0,0.0,0.0,0.0,0.0,0.0,0.0,0.0,0.0,0.0,0.0,0.0,0.0,0.0,0.0,0.0,0.0,0.0,0.0,0.0,0.0,0.0,0.0,0.0,0.0,0.0,0.0,0.0,0.0,0.0,0.0,0.0,0.0,0.0,0.5688,0.5994,0.6212,0.6459,0.6722,0.0,0.0,0.0,0.0,0.0,0.0,0.0,0.0,0.0,0.0,0.0,0.0,0.0,0.0,0.0,0.0,0.0,0.0,0.0,0.0,0.0,0.0,0.0,0.0,0.0,0.0,0.0,0.0,0.0,0.0,0.0,0.0,0.0,0.0,0.0,0.0,0.0,0.0,0.0,0.0,0.0,0.0,0.0,0.0,0.0,0.0,0.0,0.0,0.0,0.0,0.0,0.0,0.0,0.0,0.0,0.0,0.0,0.0,0.0,0.0,0.0,0.0,0.0,0.0,0.0,0.0,0.0,0.0,0.0,0.0,0.0,0.0,0.0,0.0,0.0,0.0,0.0,0.0,0.0,0.0,0.0,0.0,0.0,0.0,0.0,0.0,0.0,0.0,0.0,0.0,0.0,0.0,0.0,0.0,0.0,0.0,0.0,0.0,0.0,0.0,0.0,0.0,0.0,0.0,0.0,0.0,0.0,0.0,0.0,0.0,0.0,0.0,0.6665,0.6869,0.711,0.0,0.0,0.0,0.0,0.0,0.0,0.0,0.0,0.0,0.0,0.0,0.0,0.0,0.0,0.0,0.0,0.0,0.0,0.0,0.0,0.0,0.0,0.0,0.0,0.0,0.0,0.0,0.0,0.0,0.0,0.0,0.0,0.0,0.0,0.0,0.0,0.0,0.0,0.0,0.0,0.0,0.0,0.0,0.0,0.0,0.0,0.0,0.0,0.0,0.0,0.0,0.0,0.0,0.0,0.0,0.0,0.0,0.0,0.0,0.0,0.0,0.0,0.0,0.0,0.0,0.0,0.0,0.0,0.0,0.0,0.0,0.0,0.0,0.0,0.0,0.0,0.0,0.0,0.0,0.0,0.0,0.0,0.0,0.0,0.0,0.0,0.0,0.0,0.0,0.0,0.0,0.0,0.0,0.0,0.0,0.0,0.0,0.0,0.0,0.0,0.0,0.0,0.0,0.0,0.0,0.0,0.0,0.0,0.0,0.0,0.664,0.7032,0.711,0.0,0.7518,0.0,0.0,0.0,0.0,0.0,0.0,0.0,0.0,0.0,0.0,0.0,0.0,0.0,0.0,0.0,0.0,0.0,0.0,0.0,0.0,0.0,0.0,0.0,0.0,0.0,0.0,0.0,0.0,0.0,0.0,0.0,0.0,0.0,0.0,0.0,0.0,0.0,0.0,0.0,0.0,0.0,0.0,0.0,0.0,0.0,0.0,0.0,0.0,0.0,0.0,0.0,0.0,0.0,0.0,0.0,0.0,0.0,0.0,0.0,0.0,0.0,0.0,0.0,0.0,0.0,0.0,0.0,0.0,0.0,0.0,0.0,0.0,0.0,0.0,0.0,0.0,0.0,0.0,0.0,0.0,0.0,0.0,0.0,0.0,0.0,0.0,0.0,0.0,0.0,0.0,0.0,0.0,0.0,0.0,0.0,0.0,0.0,0.0,0.0,0.0,0.0,0.0,0.0,0.0,0.0,0.0,0.0,0.0,0.0,0.0,0.7739,0.7983,0.8083,0.8118,0.0,0.0,0.0,0.0,0.0,0.0,0.0,0.0,0.0,0.0,0.0,0.0,0.0,0.0,0.0,0.0,0.0,0.0,0.0,0.0,0.0,0.0,0.0,0.0,0.0,0.0,0.0,0.0,0.0,0.0,0.0,0.0,0.0,0.0,0.0,0.0,0.0,0.0,0.0,0.0,0.0,0.0,0.0,0.0,0.0,0.0,0.0,0.0,0.0,0.0,0.0,0.0,0.0,0.0,0.0,0.0,0.0,0.0,0.0,0.0,0.0,0.0,0.0,0.0,0.0,0.0,0.0,0.0,0.0,0.0,0.0,0.0,0.0,0.0,0.0,0.0,0.0,0.0,0.0,0.0,0.0,0.0,0.0,0.0,0.0,0.0,0.0,0.0,0.0,0.0,0.0,0.0,0.0,0.0,0.0,0.0,0.0,0.0,0.0,0.0,0.0,0.0,0.0,0.0,0.0,0.0,0.0,0.0,0.0,0.0,0.8208,0.8501,0.8652,0.8819,0.8791,0.8527,0.0,0.0,0.0,0.0,0.0,0.0,0.0,0.0,0.0,0.0,0.0,0.0,0.0,0.0,0.0,0.0,0.0,0.0,0.0,0.0,0.0,0.0,0.0,0.0,0.0,0.0,0.0,0.0,0.0,0.0,0.0,0.0,0.0,0.0,0.0,0.0,0.0,0.0,0.0,0.0,0.0,0.0,0.0,0.0,0.0,0.0,0.0,0.0,0.0,0.0,0.0,0.0,0.0,0.0,0.0,0.0,0.0,0.0,0.0,0.0,0.0,0.0,0.0,0.0,0.0,0.0,0.0,0.0,0.0,0.0,0.0,0.0,0.0,0.0,0.0,0.0,0.0,0.0,0.0,0.0,0.0,0.0,0.0,0.0,0.0,0.0,0.0,0.0,0.0,0.0,0.0,0.0,0.0,0.0,0.0,0.0,0.0,0.0,0.0,0.0,0.0,0.0,0.0,0.0,0.0,0.0,0.0,0.0,0.8527,0.858,0.8652,0.8811,0.9037,0.9057,0.0,0.0,0.0,0.0,0.0,0.0,0.0,0.0,0.0,0.0,0.0,0.0,0.0,0.0,0.0,0.0,0.0,0.0,0.0,0.0,0.0,0.0,0.0,0.0,0.0,0.0,0.0,0.0,0.0,0.0,0.0,0.0,0.0,0.0,0.0,0.0,0.0,0.0,0.0,0.0,0.0,0.0,0.0,0.0,0.0,0.0,0.0,0.0,0.0,0.0,0.0,0.0,0.0,0.0,0.0,0.0,0.0,0.0,0.0,0.0,0.0,0.0,0.0,0.0,0.0,0.0,0.0,0.0,0.0,0.0,0.0,0.0,0.0,0.0,0.0,0.0,0.0,0.0,0.0,0.0,0.0,0.0,0.0,0.0,0.0,0.0,0.0,0.0,0.0,0.0,0.0,0.0,0.0,0.0,0.0,0.0,0.0,0.0,0.0,0.0,0.0,0.0,0.0,0.0,0.0,0.0,0.0,0.0,0.0,0.8719,0.8904,0.9103,0.9359,0.9264,0.9084,0.0,0.0,0.0,0.0,0.0,0.0,0.0,0.0,0.0,0.0,0.0,0.0,0.0,0.0,0.0,0.0,0.0,0.0,0.0,0.0,0.0,0.0,0.0,0.0,0.0,0.0,0.0,0.0,0.0,0.0,0.0,0.0,0.0,0.0,0.0,0.0,0.0,0.0,0.0,0.0,0.0,0.0,0.0,0.0,0.0,0.0,0.0,0.0,0.0,0.0,0.0,0.0,0.0,0.0,0.0,0.0,0.0,0.0,0.0,0.0,0.0,0.0,0.0,0.0,0.0,0.0,0.0,0.0,0.0,0.0,0.0,0.0,0.0,0.0,0.0,0.0,0.0,0.0,0.0,0.0,0.0,0.0,0.0,0.0,0.0,0.0,0.0,0.0,0.0,0.0,0.0,0.0,0.0,0.0,0.0,0.0,0.0,0.0,0.0,0.0,0.0,0.0,0.0,0.0,0.0,0.0,0.0,0.0,0.0,0.8924,0.0,0.9464,0.9694,0.9479,0.9252,0.0,0.0,0.0,0.0,0.0,0.0,0.0,0.0,0.0,0.0,0.0,0.0,0.0,0.0,0.0,0.0,0.0,0.0,0.0,0.0,0.0,0.0,0.0,0.0,0.0,0.0,0.0,0.0,0.0,0.0,0.0,0.0,0.0,0.0,0.0,0.0,0.0,0.0,0.0,0.0,0.0,0.0,0.0,0.0,0.0,0.0,0.0,0.0,0.0,0.0,0.0,0.0,0.0,0.0,0.0,0.0,0.0,0.0,0.0,0.0,0.0,0.0,0.0,0.0,0.0,0.0,0.0,0.0,0.0,0.0,0.0,0.0,0.0,0.0,0.0,0.0,0.0,0.0,0.0,0.0,0.0,0.0,0.0,0.0,0.0,0.0,0.0,0.0,0.0,0.0,0.0,0.0,0.0,0.0,0.0,0.0,0.0,0.0,0.0,0.0,0.0,0.0,0.0,0.0,0.0,0.0,0.0,0.0,0.8695,0.9217,0.9553,0.9736,0.9721,0.9743,0.9625,0.0,0.0,0.0,0.0,0.0,0.0,0.0,0.0,0.0,0.0,0.0,0.0,0.0,0.0,0.0,0.0,0.0,0.0,0.0,0.0,0.0,0.0,0.0,0.0,0.0,0.0,0.0,0.0,0.0,0.0,0.0,0.0,0.0,0.0,0.0,0.0,0.0,0.0,0.0,0.0,0.0,0.0,0.0,0.0,0.0,0.0,0.0,0.0,0.0,0.0,0.0,0.0,0.0,0.0,0.0,0.0,0.0,0.0,0.0,0.0,0.0,0.0,0.0,0.0,0.0,0.0,0.0,0.0,0.0,0.0,0.0,0.0,0.0,0.0,0.0,0.0,0.0,0.0,0.0,0.0,0.0,0.0,0.0,0.0,0.0,0.0,0.0,0.0,0.0,0.0,0.0,0.0,0.0,0.0,0.0,0.0,0.0,0.0,0.0,0.0,0.0,0.0,0.0,0.0,0.0,0.0,0.0,0.0,0.0,1.036,1.0265,1.033,1.0643,1.0486,1.0132,0.0,0.0,0.0,0.0,0.0,0.0,0.0,0.0,0.0,0.0,0.0,0.0,0.0,0.0,0.0,0.0,0.0,0.0,0.0,0.0,0.0,0.0,0.0,0.0,0.0,0.0,0.0,0.0,0.0,0.0,0.0,0.0,0.0,0.0,0.0,0.0,0.0,0.0,0.0,0.0,0.0,0.0,0.0,0.0,0.0,0.0,0.0,0.0,0.0,0.0,0.0,0.0,0.0,0.0,0.0,0.0,0.0,0.0,0.0,0.0,0.0,0.0,0.0,0.0,0.0,0.0,0.0,0.0,0.0,0.0,0.0,0.0,0.0,0.0,0.0,0.0,0.0,0.0,0.0,0.0,0.0,0.0,0.0,0.0,0.0,0.0,0.0,0.0,0.0,0.0,0.0,0.0,0.0,0.0,0.0,0.0,0.0,0.0,0.0,0.0,0.0,0.0,0.0,0.0,0.0,0.0,0.0,0.0,0.0,1.2056,1.1402,1.1229,1.1618,1.1242,1.0744,1.0137,0.0,0.0,0.0,0.0,0.0,0.0,0.0,0.0,0.0,0.0,0.0,0.0,0.0,0.0,0.0,0.0,0.0,0.0,0.0,0.0,0.0,0.0,0.0,0.0,0.0,0.0,0.0,0.0,0.0,0.0,0.0,0.0,0.0,0.0,0.0,0.0,0.0,0.0,0.0,0.0,0.0,0.0,0.0,0.0,0.0,0.0,0.0,0.0,0.0,0.0,0.0,0.0,0.0,0.0,0.0,0.0,0.0,0.0,0.0,0.0,0.0,0.0,0.0,0.0,0.0,0.0,0.0,0.0,0.0,0.0,0.0,0.0,0.0,0.0,0.0,0.0,0.0,0.0,0.0,0.0,0.0,0.0,0.0,0.0,0.0,0.0,0.0,0.0,0.0,0.0,0.0,0.0,0.0,0.0,0.0,0.0,0.0,0.0,0.0,0.0,0.0,0.0,0.0,0.0,0.0,0.0,0.0,0.0,1.4228,1.2998,1.2478,1.2627,1.2085,1.1476,0.0,0.0,0.0,0.0,0.0,0.0,0.0,0.0,0.0,0.0,0.0,0.0,0.0,0.0,0.0,0.0,0.0,0.0,0.0,0.0,0.0,0.0,0.0,0.0,0.0,0.0,0.0,0.0,0.0,0.0,0.0,0.0,0.0,0.0,0.0,0.0,0.0,0.0,0.0,0.0,0.0,0.0,0.0,0.0,0.0,0.0,0.0,0.0,0.0,0.0,0.0,0.0,0.0,0.0,0.0,0.0,0.0,0.0,0.0,0.0,0.0,0.0,0.0,0.0,0.0,0.0,0.0,0.0,0.0,0.0,0.0,0.0,0.0,0.0,0.0,0.0,0.0,0.0,0.0,0.0,0.0,0.0,0.0,0.0,0.0,0.0,0.0,0.0,0.0,0.0,0.0,0.0,0.0,0.0,0.0,0.0,0.0,0.0,0.0,0.0,0.0,0.0,0.0,0.0,0.0,0.0,0.0,0.0,0.0,1.4684,1.5315,1.5192,1.4316,1.3924,1.3095,0.0,0.0,0.0,0.0,0.0,0.0,0.0,0.0,0.0,0.0,0.0,0.0,0.0,0.0,0.0,0.0,0.0,0.0,0.0,0.0,0.0,0.0,0.0,0.0,0.0,0.0,0.0,0.0,0.0,0.0,0.0,0.0,0.0,0.0,0.0,0.0,0.0,0.0,0.0,0.0,0.0,0.0,0.0,0.0,0.0,0.0,0.0,0.0,0.0,0.0,0.0,0.0,0.0,0.0,0.0,0.0,0.0,0.0,0.0,0.0,0.0,0.0,0.0,0.0,0.0,0.0,0.0,0.0,0.0,0.0,0.0,0.0,0.0,0.0,0.0,0.0,0.0,0.0,0.0,0.0,0.0,0.0,0.0,0.0,0.0,0.0,0.0,0.0,0.0,0.0,0.0,0.0,0.0,0.0,0.0,0.0,0.0,0.0,0.0,0.0,0.0,0.0,0.0,0.0,0.0,0.0,0.0,0.0,1.4788,1.5724,1.7027,1.7252,1.6341,1.5252,1.3965,0.0,0.0,0.0,0.0,0.0,0.0,0.0,0.0,0.0,0.0,0.0,0.0,0.0,0.0,0.0,0.0,0.0,0.0,0.0,0.0,0.0,0.0,0.0,0.0,0.0,0.0,0.0,0.0,0.0,0.0,0.0,0.0,0.0,0.0,0.0,0.0,0.0,0.0,0.0,0.0,0.0,0.0,0.0,0.0,0.0,0.0,0.0,0.0,0.0,0.0,0.0,0.0,0.0,0.0,0.0,0.0,0.0,0.0,0.0,0.0,0.0,0.0,0.0,0.0,0.0,0.0,0.0,0.0,0.0,0.0,0.0,0.0,0.0,0.0,0.0,0.0,0.0,0.0,0.0,0.0,0.0,0.0,0.0,0.0,0.0,0.0,0.0,0.0,0.0,0.0,0.0,0.0,0.0,0.0,0.0,0.0,0.0,0.0,0.0,0.0,0.0,0.0,0.0,0.0,0.0,0.0,0.0,0.0,1.581,1.6909,1.8199,1.8686,1.8318,1.6261,1.4501,0.0,0.0,0.0,0.0,0.0,0.0,0.0,0.0,0.0,0.0,0.0,0.0,0.0,0.0,0.0,0.0,0.0,0.0,0.0,0.0,0.0,0.0,0.0,0.0,0.0,0.0,0.0,0.0,0.0,0.0,0.0,0.0,0.0,0.0,0.0,0.0,0.0,0.0,0.0,0.0,0.0,0.0,0.0,0.0,0.0,0.0,0.0,0.0,0.0,0.0,0.0,0.0,0.0,0.0,0.0,0.0,0.0,0.0,0.0,0.0,0.0,0.0,0.0,0.0,0.0,0.0,0.0,0.0,0.0,0.0,0.0,0.0,0.0,0.0,0.0,0.0,0.0,0.0,0.0,0.0,0.0,0.0,0.0,0.0,0.0,0.0,0.0,0.0,0.0,0.0,0.0,0.0,0.0,0.0,0.0,0.0,0.0,0.0,0.0,0.0,0.0,0.0,0.0,0.0,0.0,0.0,0.0,0.0,1.6217,1.7223,1.8496,1.9036,1.8699,1.7246,1.5858,0.0,0.0,0.0,0.0,0.0,0.0,0.0,0.0,0.0,0.0,0.0,0.0,0.0,0.0,0.0,0.0,0.0,0.0,0.0,0.0,0.0,0.0,0.0,0.0,0.0,0.0,0.0,0.0,0.0,0.0,0.0,0.0,0.0,0.0,0.0,0.0,0.0,0.0,0.0,0.0,0.0,0.0,0.0,0.0,0.0,0.0,0.0,0.0,0.9885,0.0,0.0,0.0,0.0,0.0,0.0,0.0,0.0,0.0,0.0,0.0,0.0,0.0,0.0,0.0,0.0,0.0,0.0,0.0,0.0,0.0,0.0,0.0,0.0,0.0,0.0,0.0,0.0,0.0,0.0,0.0,0.0,0.0,0.0,0.0,0.0,0.0,0.0,0.0,0.0,0.0,0.0,0.0,0.0,0.0,0.0,0.0,0.0,0.0,0.0,0.0,0.0,0.0,0.0,0.0,0.0,0.0,0.0,0.0,1.6825,1.7753,1.8785,1.9224,1.9019,1.7923,1.6638,0.0,0.0,0.0,0.0,0.0,0.0,0.0,0.0,0.0,0.0,0.0,0.0,0.0,0.0,0.0,0.0,0.0,0.0,0.0,0.0,0.0,0.0,0.0,0.0,0.0,0.0,0.0,0.0,0.0,0.0,0.0,0.0,0.0,0.0,0.0,0.0,0.0,0.0,0.0,0.0,0.0,0.0,0.0,0.0,0.0,0.0,0.0,0.0,0.0,0.0,0.0,0.0,0.0,0.0,0.0,0.0,0.0,0.0,0.0,0.0,0.0,0.0,0.0,0.0,0.0,0.0,0.0,0.0,0.0,0.0,0.0,0.0,0.0,0.0,0.0,0.0,0.0,0.0,0.0,0.0,0.0,0.0,0.0,0.0,0.0,0.0,0.0,0.0,0.0,0.0,0.0,0.0,0.0,0.0,0.0,0.0,0.0,0.0,0.0,0.0,0.0,0.0,0.0,0.0,0.0,0.0,0.0,1.6298,1.7437,1.8423,1.905,1.9358,1.9369,1.835,1.7094,1.5607,0.0,0.0,0.0,0.0,0.0,0.0,0.0,0.0,0.0,0.0,0.0,0.0,0.0,0.0,0.0,0.0,0.0,0.0,0.0,0.0,0.0,0.0,0.0,0.0,0.0,0.0,0.0,0.0,0.0,0.0,0.0,0.0,0.0,0.0,0.0,0.0,0.0,0.0,0.9283,0.9625,0.0,0.0,0.0,0.0,0.0,0.0,0.0,0.0,1.0914,0.0,0.0,0.0,0.0,0.0,0.0,0.0,0.0,0.0,0.0,0.0,0.0,0.0,0.0,0.0,0.0,0.0,0.0,0.0,0.0,0.0,0.0,0.0,0.0,0.0,0.0,0.0,0.0,0.0,0.0,0.0,0.0,0.0,0.0,0.0,0.0,0.0,0.0,0.0,0.0,0.0,0.0,0.0,0.0,0.0,0.0,0.0,0.0,0.0,0.0,0.0,0.0,0.0,0.0,0.0,0.0,1.5304,1.6586,1.784,1.9094,1.9518,1.9708,1.9692,1.8467,1.7311,1.625,0.0,0.0,0.0,0.0,0.0,0.0,0.0,0.0,0.0,0.0,0.0,0.0,0.0,0.0,0.0,0.0,0.0,0.0,0.0,0.0,0.0,0.0,0.0,0.0,0.0,0.0,0.0,0.0,0.0,0.0,0.0,0.0,0.0,0.0,0.0,0.0,0.0,0.0,0.0,1.0242,1.0473,0.0,0.0,0.0,0.0,0.0,0.0,0.0,0.0,1.1792,0.0,0.0,0.0,0.0,0.0,0.0,0.0,0.0,0.0,0.0,0.0,0.0,0.0,0.0,0.0,0.0,0.0,0.0,0.0,0.0,0.0,0.0,0.0,0.0,0.0,0.0,0.0,0.0,0.0,0.0,0.0,0.0,0.0,0.0,0.0,0.0,0.0,0.0,0.0,0.0,0.0,0.0,0.0,0.0,0.0,0.0,0.0,0.0,0.0,0.0,0.0,0.0,0.0,0.0,0.0,1.5891,1.7179,1.8306,1.9255,1.9633,1.9648,1.9283,1.8321,1.7282,0.0,0.0,0.0,0.0,0.0,0.0,0.0,0.0,0.0,0.0,0.0,0.0,0.0,0.0,0.0,0.0,0.0,0.0,0.0,0.0,0.0,0.0,0.0,0.0,0.0,0.0,0.0,0.0,0.0,0.0,0.0,0.0,0.0,0.0,0.0,0.0,0.0,0.0,0.0,0.0,1.083,1.112,1.1391,0.0,0.0,0.0,0.0,0.0,0.0,1.3239,1.3326,0.0,0.0,0.0,0.0,0.0,0.0,0.0,0.0,0.0,0.0,0.0,0.0,0.0,0.0,0.0,0.0,0.0,0.0,0.0,0.0,0.0,0.0,0.0,0.0,0.0,0.0,0.0,0.0,0.0,0.0,0.0,0.0,0.0,0.0,0.0,0.0,0.0,0.0,0.0,0.0,0.0,0.0,0.0,0.0,0.0,0.0,0.0,0.0,0.0,0.0,0.0,0.0,0.0,0.0,0.0,1.647,1.7774,1.8728,1.9386,1.9723,1.9563,1.8919,1.8179,1.7219,0.0,0.0,0.0,0.0,0.0,0.0,0.0,0.0,0.0,0.0,0.0,0.0,0.0,0.0,0.0,0.0,0.0,0.0,0.0,0.0,0.0,0.0,0.0,0.0,0.0,0.0,0.0,0.0,0.0,0.0,0.0,0.0,0.0,0.0,0.0,0.0,0.0,0.0,0.0,0.0,0.0,1.1736,1.2203,1.2342,0.0,0.0,0.0,0.0,1.4383,1.4973,0.0,0.0,0.0,0.0,0.0,0.0,0.0,0.0,0.0,0.0,0.0,0.0,0.0,0.0,0.0,0.0,0.0,0.0,0.0,0.0,0.0,0.0,0.0,0.0,0.0,0.0,0.0,0.0,0.0,0.0,0.0,0.0,0.0,0.0,0.0,0.0,0.0,0.0,0.0,0.0,0.0,0.0,0.0,0.0,0.0,0.0,0.0,0.0,0.0,0.0,0.0,0.0,0.0,0.0,0.0,0.0,1.6803,1.8096,1.9078,1.9721,2.0004,1.9872,1.9254,1.8249,1.7227,0.0,0.0,0.0,0.0,0.0,0.0,0.0,0.0,0.0,0.0,0.0,0.0,0.0,0.0,0.0,0.0,0.0,0.0,0.0,0.0,0.0,0.0,0.0,0.0,0.0,0.0,0.0,0.0,0.0,0.0,0.0,0.0,0.0,0.0,0.0,0.0,0.0,0.0,0.0,0.0,0.0,1.2225,1.2513,1.2846,1.3136,0.0,0.0,1.5502,1.6027,1.7305,0.0,0.0,0.0,0.0,0.0,0.0,0.0,0.0,0.0,0.0,0.0,0.0,0.0,0.0,0.0,0.0,0.0,0.0,0.0,0.0,0.0,0.0,0.0,0.0,0.0,0.0,0.0,0.0,0.0,0.0,0.0,0.0,0.0,0.0,0.0,0.0,0.0,0.0,0.0,0.0,0.0,0.0,0.0,0.0,0.0,0.0,0.0,0.0,0.0,0.0,0.0,0.0,0.0,0.0,0.0,1.5639,1.6891,1.8534,1.9415,1.9518,1.9947,1.9816,1.9049,1.8273,1.7383,0.0,0.0,0.0,0.0,0.0,0.0,0.0,0.0,0.0,0.0,0.0,0.0,0.0,0.0,0.0,0.0,0.0,0.0,0.0,0.0,0.0,0.0,0.0,0.0,0.0,0.0,0.0,0.0,0.0,0.0,0.0,0.0,0.0,0.0,0.0,0.0,0.0,0.0,0.0,0.0,0.0,0.0,1.3477,1.4147,0.0,0.0,0.0,1.7746,1.7768,0.0,0.0,0.0,0.0,0.0,0.0,0.0,0.0,0.0,0.0,0.0,0.0,0.0,0.0,0.0,0.0,0.0,0.0,0.0,0.0,0.0,0.0,0.0,0.0,0.0,0.0,0.0,0.0,0.0,0.0,0.0,0.0,0.0,0.0,0.0,0.0,0.0,0.0,0.0,0.0,0.0,0.0,0.0,0.0,0.0,0.0,0.0,0.0,0.0,0.0,0.0,0.0,0.0,0.0,0.0,0.0,0.0,1.7104,1.9158,2.0099,1.9874,2.0706,2.0741,1.9884,1.9312,0.0,0.0,0.0,0.0,0.0,0.0,0.0,0.0,0.0,0.0,0.0,0.0,0.0,0.0,0.0,0.0,0.0,0.0,0.0,0.0,0.0,0.0,0.0,0.0,0.0,0.0,0.0,0.9508,0.0,0.0,0.0,0.0,0.0,0.0,0.0,0.0,0.0,0.0,0.0,0.0,0.0,0.0,1.4511,1.4795,1.5751,1.6592,0.0,0.0,1.9825,1.9465,2.0662,2.1185,0.0,0.0,0.0,0.0,0.0,0.0,0.0,0.0,0.0,0.0,0.0,0.0,0.0,0.0,0.0,0.0,0.0,0.0,0.0,0.0,0.0,0.0,0.0,0.0,0.0,0.0,0.0,0.0,0.0,0.0,0.0,0.0,0.0,0.0,0.0,0.0,0.0,0.0,0.0,0.0,0.0,0.0,0.0,0.0,0.0,0.0,0.0,0.0,0.0,0.0,0.0,0.0,0.0,0.0,0.0,1.7676,2.0121,2.1385,2.1396,2.2906,2.3419,2.275,2.2085,2.1078,0.0,0.0,0.0,0.0,0.0,0.0,0.0,0.0,0.0,0.0,0.0,0.0,0.0,0.0,0.0,0.0,0.0,0.0,0.0,0.0,0.0,0.0,0.0,0.0,0.0,0.0,0.0,0.0,0.0,0.0,0.0,0.0,0.0,0.0,0.0,0.0,0.0,0.0,0.0,0.0,0.0,1.5935,1.6468,1.7664,1.8683,0.0,0.0,2.1144,2.1058,2.2775,2.3324,2.0907,0.0,0.0,0.0,0.0,0.0,0.0,0.0,0.0,0.0,0.0,0.0,0.0,0.0,0.0,0.0,0.0,0.0,0.0,0.0,0.0,0.0,0.0,0.0,0.0,0.0,0.0,0.0,0.0,0.0,0.0,0.0,0.0,0.0,0.0,0.0,0.0,0.0,0.0,0.0,0.0,0.0,0.0,0.0,0.0,0.0,0.0,0.0,0.0,0.0,0.0,0.0,0.0,0.0,1.8253,1.9557,2.2013,2.3318,2.3426,2.4237,2.4315,2.3563,2.2949,2.1989,0.0,0.0,0.0,0.0,0.0,0.0,0.0,0.0,0.0,0.0,0.0,0.0,0.0,0.0,0.0,0.0,0.0,0.0,0.0,0.0,0.0,0.0,0.0,0.0,0.0,0.0,0.0,0.0,1.1271,1.1616,1.2019,0.0,0.0,0.0,0.0,0.0,0.0,0.0,0.0,0.0,0.0,1.7823,1.8562,1.9741,0.0,0.0,2.1869,2.24,2.2219,2.2771,2.2802,2.1602,2.083,0.0,0.0,0.0,0.0,0.0,0.0,0.0,0.0,0.0,0.0,0.0,0.0,0.0,0.0,0.0,0.0,0.0,0.0,0.0,0.0,0.0,0.0,0.0,0.0,0.0,0.0,0.0,0.0,0.0,0.0,0.0,0.0,0.0,0.0,0.0,0.0,0.0,0.0,0.0,0.0,0.0,0.0,0.0,0.0,0.0,0.0,0.0,0.0,0.0,0.0,0.0,0.0,1.9758,2.1182,2.3648,2.5047,2.5279,2.5771,2.5756,2.5198,2.4456,2.3488,0.0,0.0,0.0,0.0,0.0,0.0,0.0,0.0,0.0,0.0,0.0,0.0,0.0,0.0,0.0,0.0,0.0,0.0,0.0,0.0,0.0,0.0,0.0,0.0,0.0,0.0,0.0,0.0,1.2484,1.2758,1.2921,0.0,0.0,0.0,0.0,0.0,0.0,0.0,0.0,0.0,0.0,1.9598,2.0377,2.1376,2.2089,2.2305,2.287,2.3185,2.2937,2.2791,2.2578,2.2159,0.0,0.0,0.0,0.0,0.0,0.0,0.0,0.0,0.0,0.0,0.0,0.0,0.0,0.0,0.0,0.0,0.0,0.0,0.0,0.0,0.0,0.0,0.0,0.0,0.0,0.0,0.0,0.0,0.0,0.0,1.0838,0.0,0.0,0.0,0.0,0.0,0.0,0.0,0.0,0.0,0.0,0.0,0.0,0.0,0.0,0.0,0.0,0.0,0.0,0.0,0.0,0.0,0.0,2.0641,2.2286,2.4877,2.6388,2.6866,2.7688,2.8092,2.8036,2.7068,2.5954,2.4787,0.0,0.0,0.0,0.0,0.0,0.0,0.0,0.0,0.0,0.0,0.0,0.0,0.0,0.0,0.0,0.0,0.0,0.0,0.0,0.0,0.0,0.0,0.0,0.0,0.0,0.0,1.2899,1.3581,1.3866,0.0,0.0,0.0,0.0,0.0,0.0,0.0,0.0,0.0,0.0,1.9889,2.1175,2.1789,2.2391,2.286,2.306,2.3279,2.3331,2.3165,2.3144,2.3029,0.0,0.0,0.0,0.0,0.0,0.0,0.0,0.0,0.0,0.0,0.0,0.0,0.0,0.0,0.0,0.0,0.0,0.0,0.0,0.0,0.0,0.0,0.0,0.0,0.0,0.0,0.0,1.3227,1.2836,0.0,0.0,0.0,0.0,0.0,0.0,0.0,0.0,0.0,0.0,0.0,1.8808,1.9121,0.0,0.0,0.0,0.0,0.0,0.0,0.0,0.0,0.0,0.0,0.0,0.0,2.2506,2.4499,2.6663,2.8172,2.8936,2.9238,2.9096,2.8465,2.7801,2.6574,2.4689,0.0,0.0,0.0,0.0,0.0,0.0,0.0,0.0,0.0,0.0,0.0,0.0,0.0,0.0,0.0,0.0,0.0,0.0,0.0,0.0,0.0,0.0,0.0,0.0,0.0,1.4387,0.0,0.0,0.0,0.0,0.0,0.0,0.0,0.0,0.0,0.0,0.0,1.8722,1.9991,2.1232,2.2277,2.3058,2.3554,2.3991,0.0,0.0,0.0,0.0,0.0,0.0,0.0,0.0,0.0,0.0,0.0,0.0,0.0,0.0,2.1376,2.0843,2.0756,2.0734,2.0689,0.0,0.0,0.0,0.0,0.0,0.0,0.0,0.0,0.0,0.0,0.0,0.0,0.0,0.0,1.5303,0.0,1.5365,0.0,0.0,0.0,0.0,0.0,0.0,0.0,0.0,2.0382,2.1172,2.1327,2.1628,2.1742,0.0,2.1835,2.1335,0.0,0.0,0.0,0.0,0.0,0.0,0.0,0.0,2.4126,2.6025,2.7893,2.9228,2.9966,2.9816,2.9394,2.8616,2.785,2.6753,2.5273,2.3919,2.304,0.0,0.0,0.0,0.0,0.0,0.0,0.0,0.0,0.0,0.0,0.0,0.0,0.0,0.0,0.0,0.0,0.0,0.0,0.0,0.0,0.0,0.0,0.0,1.5935,0.0,0.0,0.0,0.0,0.0,0.0,0.0,0.0,0.0,1.7998,1.9113,2.0328,2.1284,2.2293,2.3088,2.351,0.0,0.0,0.0,0.0,0.0,0.0,0.0,2.2986,2.3123,2.3142,2.327,2.3583,2.3708,2.3867,2.4054,0.0,0.0,2.2724,2.2514,2.253,2.2552,2.2669,2.2764,2.2674,2.2918,2.3094,0.0,0.0,0.0,0.0,0.0,0.0,0.0,0.0,1.7197,1.716,0.0,1.7143,0.0,0.0,0.0,0.0,0.0,1.9392,0.0,0.0,2.3169,2.3867,2.3723,2.3754,2.3843,2.3966,2.3792,2.387,2.4101,2.2724,0.0,0.0,0.0,0.0,0.0,0.0,2.5396,2.6928,2.8462,2.9518,2.9987,2.9559,2.9091,2.8595,2.7306,2.6613,2.654,2.5264,2.4528,2.4497,2.2853,0.0,0.0,0.0,0.0,0.0,0.0,0.0,0.0,0.0,0.0,0.0,0.0,0.0,0.0,0.0,0.0,0.0,0.0,0.0,0.0,1.7156,0.0,0.0,0.0,0.0,0.0,0.0,0.0,0.0,0.0,0.0,2.0124,2.0972,2.179,2.2191,0.0,0.0,0.0,0.0,2.4285,2.3957,2.4199,2.4461,2.4481,2.4141,2.3984,2.4383,0.0,0.0,2.5589,2.541,2.5278,2.5659,2.6042,2.5742,2.3647,2.3332,2.3343,2.3398,2.4009,2.438,2.4303,2.4818,2.5294,2.1098,0.0,0.0,0.0,0.0,1.9293,1.9728,1.9922,2.0671,2.0463,1.9621,1.9931,0.0,0.0,0.0,0.0,0.0,0.0,2.2223,2.3253,2.4874,2.582,2.6191,2.6503,2.6434,2.6035,2.5835,2.5621,2.5413,2.4959,2.41,2.2856,0.0,0.0,0.0,0.0,2.6063,2.7576,2.8735,2.9539,2.9994,2.987,2.9415,2.8616,2.7294,2.6613,2.6613,2.5886,2.5357,2.5014,2.4518,0.0,0.0,0.0,0.0,0.0,0.0,0.0,0.0,0.0,0.0,0.0,0.0,0.0,0.0,0.0,0.0,0.0,0.0,0.0,1.8643,1.9125,1.9125,0.0,0.0,0.0,0.0,0.0,0.0,0.0,0.0,0.0,2.2134,2.2217,2.2512,0.0,0.0,2.3848,2.3989,2.4531,2.4953,2.5144,2.5257,0.0,2.5781,2.5457,2.5191,2.5316,2.5581,2.6016,2.655,2.653,2.6491,2.6628,2.6726,2.6589,2.6081,2.5874,2.5886,2.5937,2.6113,2.6245,2.6202,2.6391,2.6612,2.5315,2.2647,2.1743,2.1284,2.1174,2.2032,2.2492,2.2681,2.3419,2.3103,2.2073,2.2618,2.2182,2.1041,2.1225,0.0,0.0,0.0,2.4151,2.5144,2.6361,2.7246,2.7741,2.8045,2.7971,2.7569,2.7438,2.7265,2.6984,2.6797,2.6209,2.5218,0.0,0.0,2.4883,2.5799,2.6998,2.8396,2.9208,2.9808,3.0243,2.9725,2.9174,2.8595,2.746,2.6883,2.6883,2.6415,2.6063,2.576,2.5397,2.4715,0.0,0.0,0.0,0.0,0.0,0.0,0.0,0.0,0.0,0.0,0.0,1.8496,1.875,0.0,0.0,0.0,2.0246,2.0314,2.038,2.0545,0.0,0.0,0.0,0.0,0.0,0.0,0.0,2.1504,2.2312,2.2951,2.334,2.3554,2.3845,2.4284,2.4465,2.4625,2.4879,0.0,2.5879,2.5964,2.6108,2.6303,2.6569,2.6413,2.6284,2.6459,2.6719,2.7122,2.7643,2.776,2.7819,2.7988,2.8027,2.8027,2.8027,2.8027,2.7832,2.7383,2.7389,2.7559,2.7734,2.7877,2.8138,2.9272,2.7884,2.4943,2.3862,2.4092,2.4531,2.4974,2.5381,2.5619,2.524,2.4462,2.5088,2.4555,2.3252,2.3703,0.0,2.4224,2.5299,2.6238,2.7066,2.7711,2.8251,2.8698,2.8719,2.8698,2.8657,2.8657,2.8649,2.8553,2.8173,2.7983,2.7962,2.6369,2.5739,2.6146,2.7028,2.8094,2.9407,2.9842,3.0256,3.0629,2.9352,2.8669,2.8669,2.7804,2.7327,2.7327,2.6892,2.6655,2.6634,2.5822,2.5324,2.52,0.0,0.0,0.0,0.0,0.0,0.0,0.0,0.0,0.0,0.0,0.0,0.0,0.0,0.0,0.0,2.1172,0.0,2.2003,2.168,0.0,0.0,0.0,2.1173,2.1977,2.2084,2.2407,2.3127,0.0,0.0,2.4008,2.4876,2.5488,2.5334,2.5571,2.5776,2.5815,2.6498,2.6934,2.6575,2.6855,2.7109,2.7155,2.7116,2.7226,2.7572,2.7754,2.7962,2.858,2.8756,2.9004,2.933,2.9534,2.9534,2.9579,2.9467,2.9246,2.8151,2.8177,2.8516,2.8814,2.918,2.9481,3.0453,2.9789,2.8694,2.7531,2.6473,2.7197,2.7591,2.7692,2.775,2.749,2.6983,2.6814,2.6435,2.597,2.6274,2.6457,2.6524,2.7105,2.7653,2.821,2.8715,2.9216,2.965,2.965,2.9477,2.9153,2.9145,2.8947,2.8616,2.8491,2.8616,2.8938,2.8533,2.8202,2.7986,2.8558,2.9324,3.0359,3.0484,3.0421,3.016,2.9497,2.9145,2.9112,2.8243,2.7759,2.7746,2.7357,2.7132,2.7143,2.6913,2.6478,2.5751,2.4995,0.0,0.0,0.0,0.0,0.0,0.0,0.0,0.0,0.0,2.0569,2.0869,0.0,2.175,0.0,2.3077,2.3387,2.3353,2.3418,0.0,0.0,2.3035,2.3193,2.3403,2.3745,2.4025,2.4204,2.4656,2.5045,2.5297,2.5698,2.625,2.701,2.6616,2.6335,2.6647,2.7168,2.7506,2.7428,2.7721,2.7988,2.7995,2.8001,2.8021,2.8138,2.8171,2.8236,2.8418,2.8424,2.8561,2.8965,2.9082,2.9213,2.9587,2.9598,2.9657,2.9584,2.9447,2.9324,2.9408,2.954,2.9808,3.1559,3.1145,3.0887,3.0119,2.9058,2.8847,2.889,2.9064,2.9007,2.8683,2.8157,2.7793,2.7667,2.7679,2.7826,2.7874,2.7916,2.8545,2.8967,2.927,2.9898,3.038,3.0608,3.0401,3.0297,3.0235,3.0028,2.9891,2.9849,2.9849,2.9973,3.0222,3.0222,3.0201,3.0113,2.9994,3.0367,3.1243,3.1285,3.0954,3.0325,2.9849,2.9402,2.9001,2.8284,2.7809,2.7646,2.741,2.7194,2.7019,2.6987,2.6655,2.5939,2.5253,2.4559,0.0,0.0,0.0,0.0,0.0,0.0,0.0,0.0,0.0,0.0,0.0,2.3077,2.3774,2.4293,2.4558,2.4434,2.4536,2.4537,2.4275,2.4391,2.4538,2.4719,2.4961,2.5225,2.5427,2.5739,2.6074,2.6399,2.6774,2.7292,2.8013,2.7823,2.7665,2.7889,2.816,2.8311,2.8331,2.8516,2.8654,2.8654,2.8641,2.8641,2.8674,2.8813,2.8965,2.8998,2.9281,2.9618,2.9842,3.0054,3.0252,3.0537,3.0597,3.0676,3.0786,3.0613,3.0347,3.0199,3.017,3.0366,3.2574,3.2264,3.2126,3.1912,3.1554,3.0099,2.9682,2.9991,2.9874,2.946,2.8852,2.8679,2.8744,2.8947,2.8967,2.8947,2.9009,2.9808,3.0194,3.0222,3.1022,3.1408,3.1374,3.0981,3.1001,3.1353,3.0994,3.1001,3.1408,3.1408,3.1429,3.1464,3.154,3.1768,3.2043,3.1402,3.136,3.1995,3.2016,3.1595,3.0732,3.0318,2.9629,2.8706,2.8231,2.78,2.7401,2.7318,2.7111,2.6705,2.6696,2.6498,2.6084,2.5243,2.4745,0.0,2.3919,0.0,0.0,0.0,0.0,0.0,0.0,0.0,0.0,2.4121,2.4334,2.477,2.519,2.5395,2.5372,2.5447,2.5479,2.5439,2.5453,2.5626,2.5935,2.5995,2.6177,2.6613,2.6898,2.7109,2.7365,2.7931,2.8345,2.8608,2.8868,2.9051,2.9178,2.9092,2.9025,2.9119,2.9119,2.9039,2.9052,2.9079,2.9079,2.9132,2.944,2.9762,2.9735,3.0392,3.0975,3.1061,3.1282,3.1632,3.1782,3.1767,3.1767,3.1704,3.1467,3.1222,3.098,3.0888,3.0971,3.3424,3.3631,3.2878,3.2754,3.2948,3.1883,3.1326,3.11,3.1085,3.0989,3.0852,3.0803,3.0816,3.0856,3.0877,3.0891,3.0877,3.1056,3.1139,3.1146,3.1326,3.1408,3.1408,3.1326,3.1312,3.1401,3.1326,3.1312,3.1408,3.1408,3.1567,3.1891,3.2264,3.2505,3.2574,0.0,0.0,0.0,3.2016,3.1561,3.0732,3.0642,3.0118,2.9195,2.8719,0.0,2.7809,2.7472,2.7244,2.7173,2.7173,0.0,0.0,0.0,0.0,0.0,0.0,0.0,0.0,0.0,0.0,0.0,2.6408,2.6082,2.508,2.5318,2.5621,2.5886,2.6299,2.6481,2.6279,2.6806,2.6987,2.6628,2.6765,2.694,2.701,2.7019,2.7172,2.7592,2.7679,2.7868,2.8268,2.8594,2.885,2.9114,2.9346,2.9586,2.9798,2.9409,2.9132,2.9119,2.9198,2.9152,2.9119,2.9152,2.9232,2.9179,2.9501,2.9809,2.9883,3.0279,3.0755,3.1057,3.1156,3.1419,3.1756,3.1802,3.1845,3.1802,3.1759,3.1614,3.1301,3.1223,3.1342,3.3895,0.0,3.359,3.3404,0.0,3.3141,3.2789,3.2341,3.1685,3.1408,3.1408,3.1408,3.1408,3.1408,3.1408,3.1408,3.1408,3.1623,3.1698,3.1698,3.194,3.2043,3.2043,3.1802,3.1836,3.2023,3.1802,3.1919,3.2382,3.2382,3.2617,3.3023,3.3285,3.3389,3.3389,3.3646,3.3265,3.2353,3.2332,3.2016,3.1388,3.136,3.0788,2.9684,2.9402,0.0,0.0,0.0,0.0,0.0,0.0,0.0,0.0,2.7069,0.0,2.6581,2.6363,2.633,2.6503,2.6753,2.7108,2.7564,2.78,2.7531,2.6597,2.696,2.7264,2.738,2.7606,2.7688,2.7578,2.7885,2.8008,2.777,2.7872,2.7936,2.7936,2.7936,2.8019,2.8202,2.8264,2.8417,2.8872,2.9031,2.9248,2.9596,2.9711,2.9889,2.9955,2.9725,2.9602,2.986,2.9887,2.9982,3.0166,3.001,3.0003,3.0207,3.0445,3.0567,3.0588,3.0942,3.1329,3.1512,3.173,3.1974,3.2172,3.2254,3.2254,3.2225,3.2119,3.2004,3.1816,3.1657,3.1696,3.4268,3.433,3.4232,3.3998,3.3687,3.4075,3.3915,3.3335,0.0,0.0,0.0,3.1664,3.1623,3.1636,3.1623,3.1623,3.1643,3.1974,3.2167,3.2278,3.2553,3.2739,3.2801,3.2429,3.245,3.2795,3.2512,3.2754,3.3486,3.3522,3.3729,3.4081,3.417,3.4205,3.4241,3.4143,3.3714,3.2967,3.2878,3.2553,3.2036,3.2016,3.1395,3.0139,3.0118,2.9684,2.876,2.8719,2.8512,2.8032,2.8036,2.7883,2.7555,2.7546,2.7513,2.7513,2.7525,2.7696,2.8107,2.816,2.8347,2.8822,2.8856,2.8616,2.8078,2.8388,2.8582,2.8582,2.8678,2.8678,2.8603,2.8665,2.8678,2.8616,2.8582,2.8595,2.8595,2.8582,2.867,2.8903,2.8869,2.9128,3.0096,3.0061,3.0131,3.0713,3.1091,3.0844,3.0797,3.0732,3.0785,3.1429,3.1654,3.159,3.1568,3.1428,3.1237,3.1263,3.1388,3.1485,3.1547,3.185,3.2098,3.2104,3.2471,3.2628,3.2669,3.2641,3.2754,3.2801,3.2629,3.2506,3.2573,3.2406,3.2339,3.4895,3.5195,3.4848,3.464,3.4614,3.4676,3.4205,3.3418,3.319,3.3107,3.3093,3.2706,3.2526,3.2526,3.2526,3.2512,3.2512,3.2574,3.2816,3.3176,3.2857,3.2934,3.3279,3.3238,3.3238,3.3321,3.3646,3.3874,3.3998,3.3998,3.404,3.4158,3.451,3.4718,3.4661,3.4324,3.404,3.3895,3.3522,3.2892,3.2022,3.2016,3.1561,3.067,3.0608,3.0173,2.9236,2.9228,2.898,2.8545,2.85,2.8471,2.8409,2.8409,2.8421,2.8409,2.8409,2.8616,2.905,2.9091,2.9311,2.9746,2.9808,2.9435,2.8595,2.8553,2.8582,2.8616,2.8988,2.9029,2.8698,2.9013,2.9125,2.879,2.8649,2.8616,2.8773,2.8823,2.9345,3.0478,2.9737,3.041,3.2571,3.2441,3.2418,3.3633,3.3617,3.399,3.3766,3.2921,3.2782,3.3821,3.4217,3.3844,3.3173,3.2845,3.251,3.1517,3.1878,3.2204,3.2218,3.2566,3.281,3.2694,3.2906,3.2877,3.2855,3.2684,3.3093,3.3429,3.3513,3.3557,3.3846,3.3818,3.3599,3.5832,3.5754,3.5583,3.5226,3.4786,3.4786,3.4703,3.4465,3.4232,3.3853,3.3397,3.3161,3.3223,3.3466,3.3466,3.3466,3.3466,3.3451,3.3569,3.375,3.33,3.3306,3.3729,3.3522,3.3528,3.3791,3.4013,3.4241,3.4454,3.4475,3.4599,3.4797,3.5024,3.5143,3.5122,3.49,3.4708,3.449,3.4019,3.346,3.2789,3.2768,3.2333,3.1429,3.1409,3.1098,3.0463,3.0442,3.0235,2.9746,2.9759,2.9635,2.9373,2.936,2.9352,2.934,2.936,2.9443,2.9663,2.9911,3.0276,3.0711,3.0753,3.088,3.1038,2.9996,2.9365,2.9373,2.9774,3.0227,3.0602,3.0533,3.059,3.1012,3.1047,3.1034,3.1111,3.1644,3.2234,3.2855,3.2593,3.2849,3.4231,3.4003,3.3879,3.4689,3.4813,3.5126,3.5988,3.5562,3.5004,3.5182,3.5152,3.5115,3.4777,3.4539,3.4298,3.4007,3.4181,3.4271,3.4271,3.4485,3.4523,3.4622,3.4594,3.4608,3.4566,3.4855,3.5111,3.5279,3.5651,3.5735,3.5379,3.5285,3.5081,3.6581,3.6266,3.625,3.5811,3.5096,3.4993,3.5045,3.5216,3.4931,3.4392,3.375,3.3605,3.377,3.4081,3.4087,3.4087,3.4087,3.4087,3.4179,3.4205,3.377,3.3812,3.4185,3.3874,3.3915,3.4292,3.4614,3.5008,3.5359,3.5637,3.5943,3.6215,3.6273,3.6258,3.6258,3.6258,3.6082,3.5788,3.5442,3.4842,3.4015,3.3986,3.3717,3.3176,3.314,3.2899,3.2361,3.2318,3.2106,3.166,3.163,3.146,3.1086,3.0816,3.0693,3.0693,3.0706,3.0824,3.106,3.1174,3.1506,3.2114,3.1926,3.227,3.3166,3.2057,3.1091,3.1107,3.1233,3.1715,3.2608,3.25,3.2526,3.3378,3.3484,3.3387,3.3555,3.4279,3.493,3.5072,3.4969,3.4881,3.551,3.5518,3.5601,3.5965,3.5902,3.6467,3.7575,3.7853,3.7401,3.6777,3.6448,3.6486,3.6616,3.6267,3.6077,3.6285,3.6081,3.5922,3.5986,3.6095,3.6145,3.6009,3.6077,3.5981,3.6177,3.6521,3.6809,3.6917,3.7328,3.7617,3.7005,3.7015,3.6955,3.6784,3.6742,3.6742,3.6453,3.5919,3.5526,3.519,3.491,3.4821,3.4765,3.4656,3.4241,3.4081,3.4102,3.4143,3.4164,3.4143,3.4102,3.4345,3.464,3.4247,3.4288,3.4703,3.4661,3.4682,3.4916,3.6209,3.6893,3.7019,3.8156,3.878,3.8847,3.8847,3.8781,3.8811,3.8773,3.878,3.8779,3.8748,3.7759,3.5896,3.5758,3.6028,3.6537,3.6515,3.6086,3.5077,3.512,3.4892,3.4465,3.4354,3.437,3.4198,3.3355,3.2795,3.2773,3.2795,3.3246,3.4129,3.3448,3.3294,3.4279,3.3502,3.3498,3.4546,3.4458,3.4351,3.4207,3.3475,3.3404,3.4406,3.4471,3.4461,3.4703,3.4723,3.4634,3.4752,3.4735,3.5176,3.6172,3.5667,3.5688,3.7718,3.7572,3.7627,3.8577,3.864,3.8754,3.9111,3.9225,3.9212,3.9147,3.921,3.8705,3.8018,3.774,3.7339,3.6592,3.628,3.647,3.6605,3.6511,3.6253,3.6861,3.6484,3.6551,3.6632,3.6654,3.7336,3.8092,3.8472,3.8614,3.8772,3.8894,3.8785,3.7463,3.7235,3.7218,3.6949,3.6478,3.6018,3.5712,3.5542,3.5273,3.5293,3.5537,3.5355,3.5128,3.49,3.5148,3.5143,3.4895,3.4859,3.4962,3.5122,3.4723,3.4744,3.5102,3.4889,3.491,3.5302,3.682,3.761,3.7864,3.9217,3.9979,3.9941,3.9786,3.9771,3.9918,3.9457,3.9187,3.9187,3.9187,3.9112,3.8909,3.8004,3.7465,3.7467,3.7187,3.6828,3.6414,3.6088,3.5688,3.5258,3.5212,3.5073,3.4813,3.437,3.4108,3.4108,3.4108,3.4138,3.4204,3.4387,3.4548,3.4652,3.485,3.5428,3.6454,3.6031,3.6137,3.7189,3.5775,3.4997,3.6067,3.5871,3.5885,3.6441,3.6635,3.6625,3.6649,3.7263,3.7921,3.8268,3.7998,3.8008,3.9014,3.8999,3.9021,3.962,3.971,3.971,3.971,3.971,3.971,3.971,3.971,3.9542,3.9024,3.896,3.8698,3.8423,3.8267,3.828,3.8174,3.8267,3.828,3.8214,3.8133,3.8277,3.8847,3.9178,3.9698,4.0013,3.9997,4.0277,4.1224,4.0832,4.0683,3.8022,3.7711,3.755,3.7301,3.6949,3.6354,3.6389,3.6771,3.6351,3.6647,3.7393,3.7543,3.7329,3.6895,3.6536,3.6044,3.5676,3.5976,3.6093,3.6068,3.5988,3.6266,3.6614,3.6206,3.6251,3.6857,3.8171,3.9046,3.9533,4.071,4.1411,4.1396,4.1104,4.106,4.1179,4.0579,4.0263,4.0254,4.0239,4.0673,4.13,4.0388,3.9524,3.9084,3.8668,3.8282,3.7948,3.7581,3.7146,3.6677,3.6667,3.6491,3.6163,3.5843,3.5647,3.5647,3.5647,3.5613,3.5407,3.5875,3.6103,3.5986,3.648,3.72,3.8145,3.7848,3.8252,3.9615,3.8273,3.7493,3.7692,3.7472,3.7594,3.828,3.841,3.8434,3.8646,3.9468,3.987,4.0086,3.9967,4.0074,3.9948,3.9759,3.9646,3.9697,3.971,3.971,3.971,3.971,3.971,3.971,3.971,3.9697,3.971,3.962,3.971,3.971,3.9542,3.9478,3.971,3.9684,3.9822,3.9297,3.9742,4.0046,4.0189,4.091,4.1597,4.2054,4.1991,4.1747,4.2446,4.2051,4.2079,3.8171,3.815,3.7707,3.7667,3.7433,3.6605,3.7149,3.8588,3.8213,3.8987,4.0372,4.0852,4.0953,4.0326,3.8058,3.6594,3.6337,3.7385,3.7822,3.7796,3.8499,3.9273,3.9829,3.9302,3.9229,3.9552,4.0539,4.1899,4.3332,4.3593,4.376,4.37,4.331,4.3193,4.3162,4.2829,4.2779,4.2625,4.2597,4.2765,4.2835,4.2754,4.2357,4.1856,4.1907,4.1246,4.0411,4.0265,3.999,3.9491,3.9313,3.9377,3.9301,3.834,3.7713,3.7713,3.7748,3.8207,3.8858,3.8333,3.8196,3.8995,3.8386,3.8549,3.9992,4.0068,4.032,4.1112,4.0785,4.0333,3.9665,3.9407,3.942,3.9551,3.9605,3.9842,4.0267,4.0317,4.07,4.1026,4.1076,4.0876,4.0512,4.0023,3.9873,3.9823,3.9747,3.9747,3.9785,3.976,3.9735,3.9747,3.9747,3.9722,3.9722,3.971,3.971,3.971,3.971,3.976,3.971,3.9747,4.0023,4.0287,4.0412,4.0713,4.1202,4.1717,4.2258,4.2621,4.2769,4.2902,4.2958,4.2986,4.293,4.0737,4.0737,4.0576,4.0509,4.0392,3.9461,3.9444,3.9928,3.9175,3.9545,4.064,4.0938,4.1245,4.165,4.0345,3.9543,3.9209,3.9492,3.9574,3.9548,3.9699,3.9902,4.0062,3.9858,3.9873,4.0265,4.1452,4.2989,4.4567,4.469,4.4868,4.5061,4.4563,4.4342,4.4405,4.3915,4.357,4.3568,4.3365,4.3254,4.324,4.3087,4.2875,4.2713,4.2375,4.1833,4.1026,4.0675,4.0236,3.9735,3.971,3.971,3.9671,3.9297,3.9025,3.9087,3.9371,3.9438,3.9238,3.977,3.9902,3.9674,3.9969,4.0219,4.0869,4.1026,4.1102,4.1264,4.1289,4.1051,4.0876,4.0725,4.0725,4.0725,4.0713,4.0763,4.0951,4.1026,4.1102,4.1239,4.1289,4.1214,4.1063,4.0812,4.0725,4.07,4.0437,4.0236,4.0136,3.9948,3.9861,4.0124,4.0211,4.0337,4.0725,4.0074,3.971,3.971,3.9722,3.9973,4.0049,4.0186,4.0437,4.0889,4.1001,4.1254,4.1756,4.2222,4.2752,4.2838,4.3,4.3,4.3,4.3,4.3,4.2646,4.2508,4.2485,4.2378,4.2109,4.1321,4.1307,4.1721,4.1116,4.1479,4.252,4.2767,4.3203,4.372,4.364,4.3344,4.2825,4.1897,4.1416,4.1532,4.1562,4.1792,4.2057,4.1753,4.1792,4.2293,4.3387,4.4693,4.5755,4.6033,4.6226,4.6368,4.5553,4.5124,4.5059,4.4336,4.3886,4.3844,4.3667,4.3517,4.3406,4.3226,4.3098,4.2978,4.2651,4.221,4.1603,4.1229,4.0777,4.0312,4.0224,4.0211,4.0211,4.0211,4.0211,4.0261,4.0536,4.0433,3.9844,4.0674,4.094,4.0278,4.0805,4.1339,4.1542,4.1592,4.1667,4.1793,4.1843,4.1868,4.1843,4.1868,4.1704,4.1414,4.1289,4.1389,4.1567,4.1592,4.1692,4.1829,4.1742,4.163,4.1567,4.1403,4.1289,4.1289,4.0951,4.0775,4.07,4.0512,4.0312,4.0675,4.075,4.0887,4.1063,4.0675,4.0437,4.0412,4.0287,4.0437,4.0576,4.0713,4.0951,4.1378,4.1692,4.1945,4.2286,4.2738,4.2914,4.2975,4.3,4.3,4.3,4.3,4.3,4.3678,4.3366,4.3166,4.3097,4.2705,4.2172,4.2692,4.4001,4.4008,4.4694,4.591,4.6753,4.6685,4.7106,4.7162,4.7442,4.6454,4.4378,4.3477,4.3722,4.4258,4.5035,4.5842,4.4871,4.4936,4.5932,4.6813,4.7157,4.729,4.7658,4.771,4.7235,4.646,4.5816,4.5274,4.4611,4.4057,4.4097,4.4069,4.384,4.3462,4.3459,4.3309,4.3073,4.3034,4.2782,4.2251,4.2137,4.177,4.1277,4.1188,4.1264,4.1177,4.1138,4.1214,4.1163,4.1264,4.13,4.1274,4.1335,4.1476,4.1327,4.1362,4.1692,4.2096,4.2185,4.2361,4.2699,4.2824,4.29,4.285,4.285,4.2473,4.1578,4.149,4.1717,4.206,4.2199,4.24,4.2699,4.2487,4.221,4.2085,4.1831,4.1578,4.1528,4.1403,4.1327,4.1277,4.1152,4.1214,4.1302,4.1327,4.1441,4.1403,4.13,4.1314,4.1302,4.1152,4.1127,4.1229,4.1341,4.1605,4.1982,4.2158,4.2386,4.2548,4.2939,4.2964,4.3,4.3,4.3,4.3,4.3,4.3,4.6551,4.642,4.6405,4.6307,4.6022,4.519,4.518,4.5627,4.5495,4.5941,4.6815,4.7506,4.8041,4.8312,4.8246,4.8235,4.8307,4.6949,4.6181,4.5959,4.5936,4.6134,4.6365,4.6108,4.6316,4.6953,4.7188,4.7766,4.8381,4.8355,4.8265,4.8314,4.7429,4.6839,4.6605,4.6027,4.5685,4.5619,4.5089,4.4755,4.4567,4.4051,4.372,4.3626,4.3598,4.3413,4.3042,4.251,4.1934,4.1339,4.1289,4.1289,4.1289,4.1289,4.1289,4.1339,4.1692,4.1934,4.197,4.2247,4.2434,4.2459,4.2459,4.2534,4.2713,4.2724,4.2813,4.2975,4.3,4.3,4.3,4.3,4.2799,4.2484,4.2459,4.2473,4.2637,4.2738,4.2813,4.2939,4.2838,4.2763,4.2738,4.2459,4.2384,4.2333,4.2121,4.192,4.187,4.1617,4.1542,4.182,4.187,4.2021,4.2082,4.2119,4.2144,4.1993,4.1818,4.1742,4.1856,4.197,4.2222,4.2411,4.2587,4.2738,4.2925,4.3,4.3,4.3,4.3,4.3,4.3,4.3,4.3,4.8488,4.8422,4.8422,4.8374,4.8255,4.7562,4.7309,4.7319,4.7278,4.7438,4.7882,4.8472,4.8984,4.9269,4.915,4.9176,4.931,4.9004,4.8481,4.7675,4.7027,4.6932,4.7141,4.7376,4.7597,4.8015,4.8419,4.8967,4.9677,4.9557,4.9572,4.952,4.8549,4.7844,4.7583,4.6865,4.6527,4.6407,4.5953,4.5617,4.5362,4.4767,4.4346,4.4195,4.3891,4.3626,4.3356,4.2776,4.2322,4.1993,4.1943,4.1943,4.193,4.1968,4.1943,4.1993,4.2247,4.25,4.2512,4.2788,4.3,4.3,4.3,4.2975,4.3014,4.3,4.3,4.3,4.3,4.3,4.3,4.3,4.3,4.3,4.295,4.3,4.3,4.3,4.3,4.3014,4.2975,4.3,4.3,4.3,4.3,4.2939,4.2727,4.2487,4.2436,4.2183,4.2272,4.2386,4.2475,4.2637,4.2875,4.2925,4.295,4.2699,4.2409,4.2384,4.2448,4.2473,4.2637,4.2738,4.2864,4.2864,4.3,4.3,4.3,4.3,4.3,4.3,4.3,4.3,4.3,4.9529,4.94,4.9349,4.9267,4.9107,4.8969,4.8902,4.902,4.9218,4.9288,4.9442,4.9774,4.9993,5.0128,5.0443,5.0433,5.0159,5.0348,5.0024,4.9057,4.8198,4.7858,4.8291,4.871,4.8997,4.9296,5.0106,5.0629,5.0749,5.1047,5.1335,5.0697,4.9729,4.8907,4.8317,4.7219,4.6801,4.6749,4.6604,4.637,4.6092,4.5559,4.5137,4.4846,4.4122,4.3741,4.3633,4.324,4.2967,4.295,4.2864,4.2824,4.295,4.2989,4.2875,4.285,4.2989,4.2964,4.2975,4.309,4.3126,4.3126,4.3126,4.3025,4.3101,4.3151,4.3101,4.3,4.3076,4.3076,4.3039,4.3,4.3,4.3,4.3,4.3,4.3,4.3,4.3,4.3,4.3,4.3,4.3,4.3,4.3,4.2975,4.2964,4.29,4.2875,4.2774,4.2925,4.2939,4.2852,4.2889,4.3,4.3,4.3,4.2925,4.2724,4.2749,4.2788,4.2838,4.2864,4.2964,4.3,4.3,4.3,4.3,4.3,4.3,4.3,4.3,4.3,4.3,4.3,5.0092,5.0241,5.0257,5.0243,5.0117,4.9774,4.961,4.9615,4.9925,5.0079,5.0203,5.0845,5.1073,5.1152,5.1282,5.1282,5.11,5.089,5.0723,5.0289,4.961,4.9311,4.9442,4.9625,4.9912,5.0289,5.0629,5.101,5.1361,5.1518,5.1533,5.1361,5.0644,5.0002,4.9416,4.871,4.8187,4.7742,4.7295,4.7084,4.6894,4.6424,4.6112,4.5989,4.5342,4.4892,4.4621,4.379,4.3198,4.3014,4.3,4.3,4.3,4.3,4.3,4.3,4.3025,4.3,4.3101,4.3377,4.3564,4.3589,4.3589,4.3589,4.3589,4.3589,4.3388,4.3201,4.3313,4.3438,4.3126,4.3051,4.3025,4.3,4.3115,4.3076,4.3,4.3,4.3,4.3,4.3,4.3,4.3,4.3,4.3,4.3,4.3,4.3,4.3,4.3,4.3,4.3,4.2964,4.2975,4.3,4.3,4.3,4.3,4.2925,4.29,4.2925,4.2925,4.295,4.3,4.3,4.3,4.3,4.3,4.3,4.3,4.3,4.3,4.3,4.3,4.3,5.0423,5.0604,5.0772,5.0915,5.0989,5.0685,5.054,5.0587,5.0743,5.0862,5.0961,5.1346,5.1596,5.1596,5.1596,5.1596,5.1544,5.1282,5.101,5.0749,5.0409,5.0121,5.0017,5.0121,5.0461,5.0775,5.1037,5.1309,5.1544,5.1596,5.1596,5.1492,5.1063,5.0618,5.0237,4.9729,4.9285,4.8866,4.8355,4.8068,4.8001,4.7257,4.6891,4.6692,4.6164,4.5563,4.4934,4.4086,4.3487,4.3212,4.3084,4.3,4.3,4.3,4.3,4.3,4.3215,4.3352,4.3427,4.3815,4.4116,4.4127,4.4127,4.4141,4.4141,4.4127,4.3966,4.3801,4.3976,4.394,4.3765,4.3664,4.3664,4.3714,4.3678,4.3463,4.3076,4.3,4.3,4.3,4.3,4.3,4.3,4.3,4.3,4.3,4.3,4.3,4.3,4.3,4.3,4.3,4.3,4.3,4.3,4.3,4.3,4.3,4.3,4.3,4.3076,4.3051,4.3,4.3,4.3,4.3,4.3,4.3,4.3,4.3,4.3,4.3,4.3,4.3,4.3,5.0661,5.0715,5.1041,5.1299,5.1549,5.1596,5.1481,5.1554,5.1513,5.1513,5.1554,5.1596,5.1596,5.1596,5.1596,5.1596,5.1596,5.1544,5.1309,5.1063,5.0854,5.067,5.0357,5.0681,5.088,5.101,5.1403,5.1544,5.1596,5.1596,5.1596,5.1518,5.1126,5.088,5.0644,5.0226,4.9991,4.9703,4.918,4.8971,4.8826,4.8041,4.7504,4.7502,4.6666,4.5882,4.5166,4.4482,4.4049,4.3633,4.329,4.3168,4.314,4.3137,4.3199,4.3311,4.3702,4.3962,4.3966,4.4378,4.4704,4.4704,4.4704,4.4704,4.4704,4.4704,4.4629,4.4389,4.4614,4.4604,4.4478,4.4514,4.4439,4.4403,4.4489,4.4077,4.3427,4.3101,4.3051,4.3,4.3,4.3,4.3,4.3,4.3,4.3,4.3,4.3,4.3,4.3,4.3,4.3,4.3,4.3,4.3,4.3,4.3,4.3,4.3,4.3025,4.3201,4.3176,4.3051,4.3,4.3,4.3,4.3,4.3,4.3,4.3,4.3,4.3,4.3,4.3,4.3,5.0931,5.1393,5.1455,5.156,5.158,5.1596,5.1622,5.1622,5.1622,5.1648,5.1596,5.1596,5.1596,5.1596,5.1596,5.1596,5.1596,5.1596,5.1533,5.1465,5.1413,5.1387,5.1204,5.1361,5.1387,5.1439,5.1533,5.1612,5.1596,5.1596,5.1596,5.157,5.1439,5.122,5.0854,5.0723,5.0357,4.9912,4.9416,4.9416,4.9494,4.8695,4.8224,4.8445,4.7548,4.6737,4.6184,4.5753,4.5328,4.4777,4.4181,4.3834,4.3765,4.4059,4.4164,4.4136,4.4485,4.4713,4.4615,4.4989,4.5311,4.537,4.534,4.5296,4.5311,4.5296,4.5081,4.4855,4.4995,4.5121,4.479,4.464,4.469,4.474,4.4715,4.4589,4.4267,4.389,4.3503,4.3201,4.3076,4.3,4.3025,4.3051,4.3051,4.3,4.3,4.3,4.3,4.3,4.3,4.3,4.3,4.3,4.3,4.3,4.3,4.3076,4.3101,4.3201,4.3352,4.3463,4.3388,4.3226,4.3,4.3025,4.3176,4.3,4.3,4.3,4.3,4.3,4.3,4.3,4.3126,5.1619,5.1835,5.2238,5.2433,5.2459,5.2433,5.2276,5.2082,5.2014,5.1873,5.1648,5.1596,5.1596,5.1596,5.1596,5.1596,5.1596,5.1596,5.1596,5.1596,5.1596,5.1596,5.1596,5.1596,5.1596,5.1596,5.1596,5.1596,5.1596,5.1596,5.1596,5.1596,5.1596,5.1481,5.123,5.1152,5.1037,5.0723,5.0174,5.0069,5.0121,4.9479,4.8919,4.8852,4.7975,4.7124,4.6849,4.6436,4.612,4.5765,4.538,4.4749,4.4273,4.4599,4.4769,4.4783,4.5182,4.5476,4.5541,4.5939,4.6309,4.6269,4.6161,4.6127,4.6053,4.5963,4.5748,4.5558,4.5633,4.5723,4.5432,4.5392,4.5382,4.5407,4.5382,4.5282,4.5006,4.4503,4.4102,4.3801,4.3801,4.3639,4.3528,4.3388,4.3151,4.3151,4.3025,4.3025,4.3,4.3,4.3,4.3,4.3,4.3,4.3,4.3,4.3,4.3126,4.3327,4.3452,4.3628,4.374,4.3826,4.3664,4.3489,4.3402,4.3478,4.3251,4.3,4.3,4.3,4.3,4.3076,4.3251,4.3377,5.2346,5.2284,5.3052,5.3416,5.3416,5.3347,5.306,5.2668,5.2537,5.2213,5.1779,5.1648,5.1596,5.1622,5.1769,5.1742,5.1753,5.1753,5.1805,5.1596,5.1596,5.1596,5.1596,5.1596,5.1596,5.1596,5.1596,5.1596,5.1596,5.1596,5.1596,5.1596,5.1596,5.157,5.157,5.1596,5.1492,5.1335,5.089,5.0749,5.0749,5.0185,4.9625,4.9165,4.834,4.7751,4.7556,4.7176,4.672,4.6644,4.671,4.5986,4.5244,4.5118,4.5406,4.5446,4.5959,4.6269,4.6418,4.6824,4.7095,4.7191,4.6968,4.6845,4.673,4.6585,4.6445,4.638,4.6405,4.633,4.6361,4.6165,4.62,4.621,4.6261,4.6075,4.5673,4.5131,4.4905,4.4503,4.4328,4.4166,4.4041,4.3915,4.3564,4.3277,4.3176,4.3065,4.3051,4.3,4.3,4.3,4.3,4.3,4.3,4.3,4.3,4.3126,4.3377,4.3614,4.379,4.3826,4.3926,4.4202,4.4127,4.3915,4.3589,4.3277,4.3101,4.3051,4.3025,4.3065,4.3251,4.3503,4.3689,5.25,5.3162,5.3331,5.3416,5.3416,5.3426,5.3373,5.3164,5.2772,5.2459,5.2302,5.1831,5.1648,5.1727,5.2187,5.2344,5.2328,5.2223,5.2014,5.1701,5.1648,5.1596,5.1596,5.1596,5.1596,5.1596,5.1648,5.1675,5.1622,5.1596,5.1596,5.1596,5.1596,5.1596,5.1596,5.1596,5.1596,5.1544,5.1152,5.1089,5.1115,5.0498,4.9965,4.9729,4.9061,4.8721,4.859,4.8187,4.7716,4.7269,4.7664,4.7302,4.6665,4.6697,4.672,4.6676,4.6938,4.7151,4.7159,4.7162,4.7235,4.7191,4.7212,4.7182,4.7153,4.7119,4.7127,4.694,4.6806,4.6686,4.6716,4.6436,4.6301,4.6311,4.6286,4.6235,4.611,4.5909,4.5533,4.4991,4.478,4.4654,4.4568,4.4443,4.4166,4.3815,4.3578,4.3352,4.3176,4.3101,4.3,4.3,4.3,4.3,4.3,4.3,4.3,4.3076,4.3302,4.3614,4.3765,4.3801,4.3976,4.4604,4.4478,4.3976,4.3664,4.3413,4.3251,4.3251,4.3215,4.319,4.3578,4.3991,4.4192,5.3384,5.3844,5.4131,5.4288,5.4288,5.4262,5.4079,5.3792,5.3488,5.3217,5.2867,5.237,5.2067,5.2145,5.2328,5.2642,5.2798,5.2223,5.2067,5.1962,5.1779,5.1596,5.1648,5.1648,5.1596,5.1701,5.1858,5.1884,5.1622,5.1596,5.1622,5.1596,5.1596,5.1596,5.1596,5.1596,5.1596,5.1518,5.1361,5.1309,5.1533,5.0734,5.0435,5.0226,4.9808,4.9416,4.9076,4.8893,4.8396,4.7963,4.8056,4.7916,4.7768,4.7635,4.7635,4.744,4.7563,4.7747,4.7718,4.7733,4.7747,4.7744,4.7818,4.7909,4.7979,4.8028,4.7882,4.7457,4.7006,4.6731,4.6551,4.6391,4.6301,4.6311,4.6326,4.6326,4.6301,4.6301,4.5924,4.5472,4.5533,4.5422,4.5121,4.4945,4.4744,4.4418,4.4041,4.374,4.3452,4.3226,4.3101,4.3025,4.3051,4.3126,4.3151,4.3226,4.3251,4.3302,4.3438,4.3765,4.4116,4.4303,4.4855,4.5508,4.5056,4.4278,4.4177,4.4077,4.3765,4.3528,4.3714,4.394,4.4192,4.4468,4.4694,5.4288,5.4419,5.4916,5.5099,5.5099,5.5099,5.4811,5.4419,5.421,5.3922,5.3504,5.2825,5.2459,5.2485,5.2563,5.2798,5.3295,5.2354,5.238,5.2553,5.2302,5.2014,5.1988,5.1962,5.2082,5.225,5.2433,5.2354,5.1962,5.1858,5.1805,5.1779,5.1727,5.1596,5.1596,5.1596,5.1596,5.1596,5.1596,5.1596,5.1492,5.122,5.0958,5.0906,5.0383,4.9886,4.9625,4.9337,4.9076,4.8736,4.8605,4.8527,4.8381,4.8355,4.8238,4.8021,4.7884,4.8005,4.8279,4.8378,4.8424,4.8577,4.873,4.8837,4.8829,4.8808,4.8643,4.7982,4.726,4.6855,4.6661,4.6391,4.6361,4.6421,4.6446,4.6446,4.6511,4.6511,4.6476,4.627,4.6346,4.61,4.5698,4.5573,4.5397,4.502,4.4644,4.4342,4.4016,4.3503,4.3302,4.314,4.3115,4.3226,4.3352,4.3578,4.3653,4.374,4.3966,4.4252,4.4654,4.5031,4.5508,4.5759,4.5432,4.4794,4.4754,4.464,4.4252,4.4127,4.4403,4.4629,4.4794,4.4995,4.5221,5.4524,5.4994,5.5072,5.5099,5.5099,5.5099,5.5072,5.4916,5.4445,5.4167,5.4027,5.305,5.2537,5.2537,5.2511,5.2851,5.3217,5.3191,5.3086,5.3233,5.3086,5.2981,5.3112,5.3191,5.2981,5.2981,5.3164,5.2929,5.2537,5.2448,5.2302,5.2197,5.1779,5.1622,5.1727,5.1648,5.1596,5.1622,5.1622,5.1596,5.1596,5.1507,5.1439,5.1309,5.0995,5.0577,5.0383,5.0028,4.9703,4.9625,4.9625,4.9442,4.9087,4.8997,4.8982,4.8781,4.8546,4.8378,4.8866,4.8971,4.9128,4.9374,4.9639,4.9706,4.9724,4.9422,4.9161,4.8964,4.7939,4.7193,4.6985,4.6641,4.6566,4.6616,4.6721,4.684,4.6904,4.678,4.6706,4.6551,4.6436,4.6346,4.61,4.61,4.6024,4.5648,4.5286,4.492,4.4568,4.4041,4.3678,4.3553,4.3578,4.3664,4.374,4.3915,4.4041,4.4166,4.4453,4.4729,4.5006,4.5296,4.5321,4.5447,4.5296,4.5372,4.5332,4.5131,4.4715,4.469,4.4905,4.5121,4.5321,4.5562,4.5738,5.4863,5.5099,5.5099,5.5099,5.5099,5.5099,5.5099,5.5046,5.4821,5.4707,5.4497,5.3504,5.3008,5.2929,5.2694,5.3217,5.3975,5.3713,5.3583,5.3713,5.3609,5.3426,5.339,5.34,5.3416,5.3556,5.3671,5.3766,5.3347,5.2772,5.238,5.2067,5.1821,5.1831,5.2014,5.1753,5.1858,5.191,5.1831,5.1622,5.1596,5.1596,5.1596,5.1596,5.1376,5.1115,5.0812,5.0603,5.0211,5.0017,4.9912,4.9834,4.961,4.9546,4.9546,4.952,4.9337,4.9337,4.952,4.9531,4.9714,4.9938,5.0226,5.0524,5.0644,5.0342,4.9728,4.9261,4.8801,4.8148,4.7532,4.7299,4.7193,4.7172,4.7197,4.7066,4.713,4.7068,4.6934,4.6736,4.6526,4.6466,4.6376,4.625,4.62,4.5999,4.5623,4.5321,4.4995,4.4618,4.4292,4.4077,4.4127,4.4227,4.4278,4.4353,4.4403,4.4579,4.4945,4.5171,4.5271,4.5422,4.5547,4.5723,4.5859,4.5909,4.5899,4.5733,4.5457,4.5382,4.5357,4.5598,4.5799,4.5899,4.6075,5.5099,5.5099,5.5099,5.5099,5.5099,5.5099,5.5099,5.5099,5.5072,5.5072,5.4837,5.4053,5.353,5.3321,5.305,5.3478,5.4707,5.3975,5.4027,5.4105,5.4079,5.3922,5.3975,5.3896,5.3913,5.3808,5.4246,5.4246,5.3896,5.3452,5.2825,5.225,5.2328,5.238,5.2459,5.2223,5.203,5.2056,5.1779,5.1622,5.1596,5.1596,5.1596,5.1596,5.1544,5.1413,5.1073,5.0995,5.0707,5.0524,5.042,5.0394,5.0174,5.0148,5.0132,5.0106,5.0069,5.0174,5.0252,5.0278,5.0211,5.0435,5.0644,5.1115,5.1335,5.11,5.0609,4.9874,4.9395,4.8722,4.8155,4.8163,4.8107,4.7938,4.7799,4.7511,4.7334,4.7438,4.731,4.6949,4.678,4.6641,4.6511,4.6361,4.6291,4.625,4.5999,4.5688,4.5401,4.5114,4.4823,4.4572,4.4719,4.4819,4.4895,4.4895,4.4905,4.5031,4.5397,4.5623,4.5698,4.5849,4.601,4.621,4.6311,4.6235,4.6085,4.616,4.6185,4.5984,4.5859,4.606,4.6235,4.6311,4.6311,5.5099,5.5099,5.5099,5.5099,5.5099,5.5099,5.5099,5.5099,5.5099,5.5072,5.4916,5.4419,5.3818,5.3504,5.3468,5.3713,5.4314,5.4184,5.4471,5.4811,5.4968,5.4811,5.4759,5.4759,5.4837,5.4837,5.4889,5.4628,5.4341,5.4184,5.3975,5.3932,5.3217,5.3243,5.3164,5.2851,5.225,5.2119,5.1858,5.1795,5.1753,5.1727,5.1769,5.1727,5.1675,5.157,5.1544,5.1544,5.1439,5.1282,5.123,5.1073,5.0801,5.0723,5.0707,5.0707,5.0707,5.088,5.1037,5.0958,5.101,5.1324,5.1465,5.1465,5.1544,5.1126,5.0755,5.0563,5.0082,4.9581,4.9191,4.9121,4.9074,4.8887,4.8655,4.8472,4.8242,4.8073,4.7863,4.73,4.7023,4.6945,4.678,4.6661,4.6376,4.6306,4.6411,4.6098,4.5882,4.5605,4.5313,4.5148,4.5315,4.5426,4.5542,4.5577,4.5608,4.5658,4.5884,4.6035,4.6135,4.6311,4.6311,4.6311,4.6311,4.6311,4.6286,4.6261,4.6261,4.6276,4.6301,4.6286,4.6311,4.6311,4.6361,5.5099,5.5099,5.5099,5.5099,5.5099,5.5099,5.5099,5.5099,5.5099,5.4863,5.4576,5.4288,5.4063,5.3922,5.3922,5.421,5.468,5.4759,5.4899,5.4977,5.5099,5.5099,5.5099,5.5099,5.5072,5.5099,5.5072,5.5063,5.4811,5.4707,5.4733,5.4497,5.3896,5.3739,5.3609,5.3556,5.2981,5.2459,5.2433,5.2579,5.225,5.2563,5.2694,5.2694,5.272,5.2485,5.2223,5.2145,5.1936,5.1701,5.1648,5.1492,5.1376,5.1324,5.1282,5.1309,5.1309,5.1465,5.1544,5.1429,5.1429,5.1492,5.1596,5.1596,5.1596,5.1361,5.1073,5.087,5.0756,5.044,4.9763,4.991,5.0082,4.98,4.9568,4.9395,4.9138,4.8881,4.8492,4.7977,4.7566,4.732,4.7142,4.6964,4.6636,4.6391,4.6496,4.652,4.6278,4.6137,4.587,4.5689,4.5832,4.6002,4.6118,4.623,4.6326,4.6336,4.6361,4.6386,4.6436,4.6311,4.6311,4.6311,4.6311,4.6311,4.6311,4.6311,4.6286,4.6301,4.6301,4.6286,4.6311,4.6361,4.6537,5.5099,5.5099,5.5099,5.5099,5.5099,5.5099,5.5099,5.5099,5.5099,5.4889,5.4471,5.4471,5.4471,5.4471,5.4497,5.4654,5.4968,5.5046,5.5072,5.5099,5.5099,5.5099,5.5099,5.5099,5.5099,5.5099,5.5099,5.5072,5.5046,5.5072,5.5046,5.4785,5.4393,5.4314,5.4314,5.421,5.3697,5.3112,5.306,5.3259,5.2851,5.3112,5.3321,5.3243,5.3086,5.2798,5.2511,5.238,5.2276,5.204,5.191,5.1884,5.1873,5.1873,5.1858,5.191,5.1988,5.204,5.1884,5.1675,5.1638,5.1596,5.1596,5.1596,5.1596,5.1596,5.1361,5.1178,5.1335,5.1272,5.0383,5.075,5.085,5.06,5.0389,5.0188,4.9835,4.953,4.9088,4.8657,4.8367,4.8165,4.7953,4.7759,4.7242,4.6903,4.6646,4.6706,4.661,4.6494,4.6479,4.6374,4.6364,4.654,4.6676,4.6718,4.6712,4.6697,4.6697,4.6647,4.6622,4.6512,4.6361,4.6311,4.6311,4.6311,4.6431,4.6592,4.6487,4.6326,4.6376,4.6436,4.6637,4.6737,4.6948,5.5072,5.5099,5.5099,5.5099,5.5099,5.5099,5.5099,5.5099,5.5099,5.5046,5.4994,5.4994,5.4994,5.4994,5.4942,5.4994,5.5046,5.5099,5.5099,5.5099,5.5099,5.5099,5.5099,5.5099,5.5099,5.5099,5.5099,5.5099,5.5099,5.5099,5.5099,5.5099,5.4889,5.4863,5.4994,5.4497,5.3949,5.3478,5.3452,5.3504,5.3426,5.353,5.3661,5.3609,5.3347,5.3112,5.2903,5.2851,5.272,5.2537,5.2459,5.2485,5.2485,5.2485,5.2485,5.2501,5.2955,5.2929,5.2537,5.1962,5.1753,5.1648,5.1596,5.1596,5.1596,5.1596,5.1596,5.1387,5.1544,5.1596,5.1492,5.1507,5.1413,5.1314,5.1049,5.0867,5.0503,5.0166,4.9752,4.9447,4.939,4.9282,4.901,4.8672,4.8022,4.7515,4.7046,4.6931,4.7073,4.7058,4.7124,4.7266,4.7221,4.7111,4.7212,4.7156,4.7114,4.7074,4.7074,4.7074,4.6973,4.6888,4.6687,4.6461,4.6562,4.6813,4.6909,4.698,4.6924,4.6868,4.6627,4.6662,4.6888,4.7164,4.7415,5.4497,5.455,5.4925,5.5099,5.5099,5.5099,5.5099,5.5099,5.5099,5.5099,5.5099,5.5099,5.5099,5.5099,5.5099,5.5099,5.5099,5.5099,5.5099,5.5099,5.5099,5.5099,5.5099,5.5099,5.5099,5.5099,5.5099,5.5099,5.5099,5.5099,5.5099,5.5099,5.5099,5.5099,5.5046,5.4811,5.4524,5.4131,5.4236,5.4393,5.4027,5.4262,5.4471,5.4429,5.4167,5.387,5.3514,5.3478,5.3347,5.3138,5.3086,5.3086,5.3086,5.3086,5.3086,5.3102,5.34,5.3321,5.3112,5.2825,5.238,5.1988,5.1727,5.1727,5.1596,5.1596,5.1596,5.1622,5.1622,5.1622,5.1596,5.157,5.1518,5.1518,5.1398,5.1372,5.1137,5.0798,5.0428,5.023,5.0111,4.9924,4.9666,4.9575,4.9064,4.8771,4.8406,4.8264,4.8351,4.8066,4.7944,4.8194,4.8211,4.7927,4.778,4.786,4.7832,4.7827,4.7734,4.7616,4.749,4.7401,4.733,4.7245,4.7305,4.7396,4.7529,4.7656,4.7573,4.7446,4.7421,4.733,4.7506,4.7732,4.7892,5.3922,5.4001,5.455,5.4785,5.4837,5.502,5.5099,5.5099,5.5099,5.5099,5.5099,5.5099,5.5099,5.5099,5.5099,5.5099,5.5099,5.5099,5.5099,5.5099,5.5099,5.5099,5.5099,5.5099,5.5099,5.5099,5.5099,5.5099,5.5099,5.5099,5.5099,5.5099,5.5099,5.5099,5.5072,5.4994,5.4916,5.4654,5.4785,5.4837,5.4707,5.4811,5.502,5.4968,5.4785,5.4524,5.4288,5.4158,5.4053,5.3766,5.3687,5.3661,5.3661,5.3661,5.3687,5.3687,5.3687,5.3687,5.3661,5.3373,5.2903,5.2433,5.2239,5.2119,5.1962,5.1988,5.1962,5.191,5.1753,5.1805,5.1884,5.1858,5.1622,5.1648,5.1622,5.158,5.1528,5.1162,5.1032,5.0864,5.0786,5.0551,5.0383,5.0326,5.013,4.998,4.9857,4.9698,4.9442,4.8986,4.874,4.8981,4.8987,4.8651,4.8585,4.8747,4.8694,4.8574,4.8465,4.8397,4.8245,4.8213,4.8114,4.7964,4.7823,4.7838,4.8208,4.835,4.8365,4.847,4.8589,4.8457,4.8275,4.8284,4.841,5.3373,5.3452,5.3975,5.422,5.4314,5.4863,5.5099,5.5099,5.5099,5.5099,5.5099,5.5099,5.5099,5.5099,5.5099,5.5099,5.5099,5.5099,5.5099,5.5099,5.5099,5.5099,5.5099,5.5099,5.5099,5.5099,5.5099,5.5099,5.5099,5.5099,5.5099,5.5099,5.5099,5.5099,5.5099,5.5072,5.5046,5.4994,5.4994,5.502,5.4968,5.502,5.5099,5.4994,5.4759,5.455,5.4376,5.4324,5.4314,5.4236,5.4236,5.4236,5.4236,5.4236,5.4236,5.4236,5.4236,5.4236,5.4184,5.387,5.3687,5.3426,5.3468,5.3112,5.272,5.2537,5.2537,5.2354,5.2171,5.2276,5.238,5.2014,5.1685,5.1701,5.1675,5.1675,5.1701,5.157,5.1518,5.1439,5.1413,5.1282,5.1193,5.1115,5.0827,5.0875,5.0667,5.0408,5.0109,4.9533,4.9383,4.9671,4.962,4.9322,4.9364,4.9589,4.9441,4.9282,4.9402,4.933,4.9187,4.8903,4.8724,4.8498,4.8206,4.8334,4.9005,4.9273,4.928,4.94,4.9488,4.9231,4.8923,4.8818,4.8912,5.2746,5.2851,5.3792,5.4193,5.4288,5.4837,5.5099,5.5099,5.5099,5.5099,5.5099,5.5099,5.5099,5.5099,5.5099,5.5099,5.5099,5.5099,5.5099,5.5099,5.5099,5.5099,5.5099,5.5099,5.5099,5.5099,5.5099,5.5099,5.5099,5.5099,5.5099,5.5099,5.5099,5.5099,5.5099,5.5099,5.5099,5.5099,5.5099,5.5099,5.5099,5.5099,5.5099,5.4968,5.4916,5.4759,5.4759,5.4742,5.4759,5.4785,5.4811,5.4837,5.4837,5.4837,5.4837,5.4837,5.4837,5.4837,5.4811,5.468,5.4524,5.4471,5.4497,5.4001,5.3504,5.3164,5.318,5.2929,5.2616,5.2668,5.272,5.2459,5.2328,5.2354,5.225,5.2067,5.204,5.191,5.1831,5.1596,5.1596,5.1596,5.1544,5.1492,5.1282,5.1455,5.1424,5.11,5.0783,5.0235,5.008,5.0353,5.0291,5.0007,5.0209,5.046,5.0212,5.0066,5.0148,5.0081,4.9714,4.9463,4.9247,4.9146,4.9055,4.946,5.0075,5.0114,4.992,5.0124,5.0222,4.9878,4.9597,4.9481,4.9398,5.2145,5.2292,5.3138,5.3766,5.4288,5.4837,5.5099,5.5099,5.5099,5.5099,5.5099,5.5099,5.5099,5.5099,5.5099,5.5099,5.5099,5.5099,5.5099,5.5099,5.5099,5.5099,5.5099,5.5099,5.5099,5.5099,5.5099,5.5099,5.5099,5.5099,5.5099,5.5099,5.5099,5.5099,5.5099,5.5099,5.5099,5.5099,5.5099,5.5099,5.5099,5.5099,5.5099,5.5099,5.5099,5.5099,5.5099,5.5099,5.5099,5.5099,5.5099,5.5099,5.5099,5.5072,5.5072,5.5046,5.5046,5.502,5.502,5.5046,5.5072,5.5099,5.5099,5.4733,5.4288,5.3922,5.3792,5.3609,5.3243,5.2981,5.3008,5.3034,5.3164,5.3269,5.2903,5.2537,5.238,5.2234,5.1988,5.1701,5.1596,5.1596,5.1596,5.1596,5.1596,5.1596,5.157,5.1476,5.1299,5.1059,5.0945,5.109,5.0955,5.0758,5.0991,5.1088,5.0895,5.0749,5.0849,5.0707,5.027,5.0133,5.005,5.007,5.0098,5.0388,5.0584,5.0563,5.0458,5.0636,5.0667,5.0404,5.0171,5.0082,5.0009,5.1622,5.1675,5.2302,5.3295,5.421,5.4837,5.5099,5.5099,5.5099,5.5099,5.5099,5.5099,5.5099,5.5099,5.5099,5.5099,5.5099,5.5099,5.5099,5.5099,5.5099,5.5099,5.5099,5.5099,5.5099,5.5099,5.5099,5.5099,5.5099,5.5099,5.5099,5.5099,5.5099,5.5099,5.5099,5.5099,5.5099,5.5099,5.5099,5.5099,5.5099,5.5099,5.5099,5.5099,5.5099,5.5099,5.5099,5.5099,5.5099,5.5099,5.5099,5.5099,5.5099,5.5099,5.5099,5.5099,5.5099,5.5099,5.5099,5.5099,5.5099,5.5099,5.5072,5.4994,5.4707,5.4471,5.4341,5.4184,5.3844,5.3792,5.3844,5.3478,5.34,5.3556,5.3426,5.3269,5.3191,5.2877,5.2433,5.2119,5.191,5.1858,5.1596,5.1596,5.1596,5.1596,5.1596,5.1596,5.158,5.1497,5.1513,5.157,5.1408,5.1195,5.133,5.1393,5.1424,5.1424,5.1393,5.1126,5.0556,5.0661,5.0899,5.0757,5.0582,5.0677,5.0778,5.0826,5.0889,5.0873,5.0873,5.0763,5.0667,5.062,5.0477,5.1596,5.1701,5.2746,5.3583,5.422,5.4837,5.5099,5.5099,5.5099,5.5099,5.5099,5.5099,5.5099,5.5099,5.5099,5.5099,5.5099,5.5099,5.5099,5.5099,5.5099,5.5099,5.5099,5.5099,5.5099,5.5099,5.5099,5.5099,5.5099,5.5099,5.5099,5.5099,5.5099,5.5099,5.5099,5.5099,5.5099,5.5099,5.5099,5.5099,5.5099,5.5099,5.5099,5.5099,5.5099,5.5099,5.5099,5.5099,5.5099,5.5099,5.5099,5.5099,5.5099,5.5099,5.5099,5.5099,5.5099,5.5099,5.5099,5.5099,5.5099,5.5099,5.5099,5.5099,5.502,5.4942,5.4811,5.4654,5.4576,5.4576,5.4471,5.4001,5.3687,5.387,5.4001,5.3975,5.3975,5.3452,5.2929,5.2616,5.2312,5.204,5.1753,5.1622,5.1596,5.1596,5.1596,5.1596,5.1596,5.1554,5.1554,5.1596,5.1596,5.1523,5.1596,5.158,5.1549,5.1424,5.1299,5.1063,5.0826,5.0852,5.0915,5.101,5.0978,5.1025,5.1094,5.1314,5.1346,5.1173,5.111,5.1041,5.1141,5.1157,5.0921,5.1596,5.1753,5.2919,5.3713,5.4262,5.4863,5.5099,5.5099,5.5099,5.5099,5.5099,5.5099,5.5099,5.5099,5.5099,5.5099,5.5099,5.5099,5.5099,5.5099,5.5099,5.5099,5.5099,5.5099,5.5099,5.5099,5.5099,5.5099,5.5099,5.5099,5.5099,5.5099,5.5099,5.5125,5.5125,5.5099,5.5151,5.5099,5.5151,5.5151,5.5151,5.5125,5.5099,5.5099,5.5099,5.5099,5.5099,5.5099,5.5099,5.5099,5.5099,5.5099,5.5099,5.5099,5.5099,5.5099,5.5099,5.5099,5.5099,5.5099,5.5099,5.5125,5.5125,5.5125,5.5099,5.4994,5.4994,5.4863,5.4837,5.4863,5.4863,5.4524,5.4471,5.4602,5.455,5.4497,5.4262,5.387,5.34,5.306,5.272,5.2328,5.2014,5.1701,5.1675,5.1596,5.1596,5.1701,5.1701,5.1831,5.1779,5.1701,5.1753,5.1675,5.1596,5.158,5.1549,5.1408,5.1267,5.1293,5.1214,5.0994,5.0899,5.1109,5.1276,5.1262,5.1403,5.1591,5.1419,5.1157,5.1214,5.1293,5.145,5.1607,5.1548,5.1648,5.1899,5.2929,5.3713,5.4262,5.4847,5.5099,5.5099,5.5099,5.5099,5.5099,5.5099,5.5099,5.5099,5.5099,5.5099,5.5099,5.5099,5.5099,5.5099,5.5099,5.5099,5.5099,5.5099,5.5099,5.5099,5.5099,5.5099,5.5099,5.5099,5.5099,5.5125,5.5177,5.5213,5.5213,5.5317,5.5491,5.5543,5.5569,5.5438,5.5308,5.5177,5.5177,5.5177,5.5151,5.5151,5.5177,5.5125,5.5125,5.5177,5.5229,5.5438,5.5395,5.5422,5.5308,5.5308,5.5151,5.5125,5.5099,5.5099,5.5151,5.5203,5.5203,5.5203,5.5229,5.5308,5.5308,5.5229,5.5203,5.5151,5.5177,5.5229,5.5229,5.5072,5.4968,5.4889,5.4576,5.4288,5.3949,5.3556,5.3164,5.2772,5.2406,5.2067,5.191,5.1805,5.1779,5.1821,5.1952,5.2239,5.238,5.2197,5.2119,5.1962,5.1675,5.158,5.1565,5.1534,5.1481,5.1586,5.1612,5.1376,5.1287,5.1422,5.1548,5.1627,5.1621,5.1757,5.1511,5.1323,5.1574,5.1757,5.1595,5.1809,5.2124,5.1884,5.2396,5.3112,5.3713,5.4262,5.4837,5.5099,5.5099,5.5099,5.5099,5.5046,5.5072,5.5099,5.5072,5.5099,5.5099,5.5099,5.5099,5.5099,5.5099,5.5177,5.5151,5.5151,5.5255,5.5125,5.5125,5.5151,5.5099,5.5151,5.5125,5.5125,5.5151,5.5647,5.5778,5.583,5.6013,5.6284,5.6275,5.6275,5.6258,5.6049,5.5857,5.5465,5.5386,5.5334,5.5465,5.5517,5.5265,5.5151,5.5203,5.5543,5.5935,5.604,5.5944,5.5804,5.57,5.5517,5.5386,5.5386,5.5386,5.5491,5.5752,5.5778,5.5778,5.5909,5.617,5.6066,5.5787,5.5726,5.5569,5.5569,5.5726,5.5726,5.5334,5.5082,5.5046,5.4863,5.4759,5.4576,5.4236,5.3896,5.353,5.3191,5.2955,5.2877,5.2798,5.2772,5.2814,5.2736,5.2867,5.2971,5.2746,5.2537,5.2067,5.1727,5.1622,5.158,5.1596,5.1737,5.1993,5.2019,5.1737,5.1695,5.1772,5.1981,5.2118,5.2123,5.1948,5.19,5.1827,5.2127,5.2259,5.2032,5.212,5.2562]}]]